Time,TemperatureF,DewpointF,PressureIn,WindDirection,WindDirectionDegrees,WindSpeedMPH,WindSpeedGustMPH,Humidity,HourlyPrecipIn,Conditions,Clouds,dailyrainin,SoftwareType,DateUTC
2013-08-08 00:00:00,82.4,72.1,29.90,South,169,3.0,5.0,71,0.00,,CLR,0.00,VWS V14.01,2013-08-08 05:00:00,
2013-08-08 00:01:00,82.8,72.0,29.90,SE,137,5.0,10.0,70,0.00,,CLR,0.00,VWS V14.01,2013-08-08 05:01:00,
2013-08-08 00:02:00,82.4,72.1,29.90,SSE,149,3.0,10.0,71,0.00,,CLR,0.00,VWS V14.01,2013-08-08 05:02:00,
2013-08-08 00:03:00,82.4,72.1,29.90,SE,124,0.0,10.0,71,0.00,,CLR,0.00,VWS V14.01,2013-08-08 05:03:00,
2013-08-08 00:04:00,82.4,72.1,29.90,ENE,71,0.0,10.0,71,0.00,,CLR,0.00,VWS V14.01,2013-08-08 05:04:00,
2013-08-08 00:05:00,82.4,72.1,29.90,South,172,0.0,10.0,71,0.00,,CLR,0.00,VWS V14.01,2013-08-08 05:05:00,
2013-08-08 00:06:00,82.6,71.8,29.90,SSE,159,5.0,11.0,70,0.00,,CLR,0.00,VWS V14.01,2013-08-08 05:06:00,
2013-08-08 00:07:00,82.4,72.1,29.90,SE,134,2.0,10.0,71,0.00,,CLR,0.00,VWS V14.01,2013-08-08 05:07:00,
2013-08-08 00:08:00,82.2,71.9,29.90,SE,135,0.0,10.0,71,0.00,,CLR,0.00,VWS V14.01,2013-08-08 05:08:00,
2013-08-08 00:09:00,82.2,71.9,29.90,South,176,9.0,10.0,71,0.00,,CLR,0.00,VWS V14.01,2013-08-08 05:09:00,
2013-08-08 00:10:00,82.2,71.9,29.90,South,178,6.0,8.0,71,0.00,,CLR,0.00,VWS V14.01,2013-08-08 05:10:00,
2013-08-08 00:11:00,82.4,72.1,29.90,SE,141,3.0,10.0,71,0.00,,CLR,0.00,VWS V14.01,2013-08-08 05:11:00,
2013-08-08 00:12:00,82.2,72.3,29.90,SSE,163,3.0,8.0,72,0.00,,CLR,0.00,VWS V14.01,2013-08-08 05:12:00,
2013-08-08 00:13:00,82.2,72.3,29.90,SE,136,14.0,14.0,72,0.00,,CLR,0.00,VWS V14.01,2013-08-08 05:13:00,
2013-08-08 00:14:00,82.2,72.3,29.90,SSE,166,3.0,14.0,72,0.00,,CLR,0.00,VWS V14.01,2013-08-08 05:14:00,
2013-08-08 00:15:00,82.0,72.1,29.90,SSE,165,4.0,15.0,72,0.00,,CLR,0.00,VWS V14.01,2013-08-08 05:15:00,
2013-08-08 00:16:00,82.4,72.1,29.90,SSE,158,3.0,10.0,71,0.00,,CLR,0.00,VWS V14.01,2013-08-08 05:16:00,
2013-08-08 00:17:00,82.0,72.1,29.90,SE,142,0.0,15.0,72,0.00,,CLR,0.00,VWS V14.01,2013-08-08 05:17:00,
2013-08-08 00:18:00,82.0,72.1,29.90,SSE,151,0.0,15.0,72,0.00,,CLR,0.00,VWS V14.01,2013-08-08 05:18:00,
2013-08-08 00:19:00,82.0,72.1,29.90,SSE,159,0.0,15.0,72,0.00,,CLR,0.00,VWS V14.01,2013-08-08 05:19:00,
2013-08-08 00:20:00,82.0,72.1,29.90,East,89,4.0,4.0,72,0.00,,CLR,0.00,VWS V14.01,2013-08-08 05:20:00,
2013-08-08 00:21:00,82.2,72.3,29.90,SSE,165,4.0,8.0,72,0.00,,CLR,0.00,VWS V14.01,2013-08-08 05:21:00,
2013-08-08 00:22:00,81.8,71.9,29.90,SSW,196,5.0,9.0,72,0.00,,CLR,0.00,VWS V14.01,2013-08-08 05:22:00,
2013-08-08 00:23:00,81.8,72.3,29.90,SE,131,6.0,9.0,73,0.00,,CLR,0.00,VWS V14.01,2013-08-08 05:23:00,
2013-08-08 00:24:00,81.8,72.3,29.90,SSE,152,0.0,9.0,73,0.00,,CLR,0.00,VWS V14.01,2013-08-08 05:24:00,
2013-08-08 00:25:00,81.8,72.3,29.90,South,173,3.0,9.0,73,0.00,,CLR,0.00,VWS V14.01,2013-08-08 05:25:00,
2013-08-08 00:26:00,82.0,72.1,29.90,SSE,155,3.0,15.0,72,0.00,,CLR,0.00,VWS V14.01,2013-08-08 05:26:00,
2013-08-08 00:27:00,81.8,72.3,29.90,South,178,0.0,9.0,73,0.00,,CLR,0.00,VWS V14.01,2013-08-08 05:27:00,
2013-08-08 00:28:00,81.8,72.3,29.90,SE,144,3.0,9.0,73,0.00,,CLR,0.00,VWS V14.01,2013-08-08 05:28:00,
2013-08-08 00:29:00,81.8,72.3,29.91,NE,51,0.0,9.0,73,0.00,,CLR,0.00,VWS V14.01,2013-08-08 05:29:00,
2013-08-08 00:30:00,81.8,72.3,29.91,South,188,4.0,4.0,73,0.00,,CLR,0.00,VWS V14.01,2013-08-08 05:30:00,
2013-08-08 00:31:00,81.8,71.9,29.90,SSE,160,0.0,9.0,72,0.00,,CLR,0.00,VWS V14.01,2013-08-08 05:31:00,
2013-08-08 00:32:00,81.8,72.3,29.91,South,178,5.0,6.0,73,0.00,,CLR,0.00,VWS V14.01,2013-08-08 05:32:00,
2013-08-08 00:33:00,81.6,72.1,29.91,South,169,0.0,6.0,73,0.00,,CLR,0.00,VWS V14.01,2013-08-08 05:33:00,
2013-08-08 00:34:00,81.6,72.1,29.91,South,170,3.0,12.0,73,0.00,,CLR,0.00,VWS V14.01,2013-08-08 05:34:00,
2013-08-08 00:35:00,81.6,72.1,29.91,South,169,0.0,12.0,73,0.00,,CLR,0.00,VWS V14.01,2013-08-08 05:35:00,
2013-08-08 00:36:00,81.8,72.3,29.90,South,180,0.0,9.0,73,0.00,,CLR,0.00,VWS V14.01,2013-08-08 05:36:00,
2013-08-08 00:37:00,81.6,72.5,29.91,SSE,166,0.0,12.0,74,0.00,,CLR,0.00,VWS V14.01,2013-08-08 05:37:00,
2013-08-08 00:38:00,81.6,72.5,29.91,SE,134,0.0,12.0,74,0.00,,CLR,0.00,VWS V14.01,2013-08-08 05:38:00,
2013-08-08 00:39:00,81.6,72.5,29.91,SE,124,0.0,12.0,74,0.00,,CLR,0.00,VWS V14.01,2013-08-08 05:39:00,
2013-08-08 00:40:00,81.6,72.5,29.91,South,185,3.0,3.0,74,0.00,,CLR,0.00,VWS V14.01,2013-08-08 05:40:00,
2013-08-08 00:41:00,81.8,72.3,29.91,SSE,148,3.0,6.0,73,0.00,,CLR,0.00,VWS V14.01,2013-08-08 05:41:00,
2013-08-08 00:42:00,81.4,72.3,29.91,South,175,0.0,8.0,74,0.00,,CLR,0.00,VWS V14.01,2013-08-08 05:42:00,
2013-08-08 00:43:00,81.4,72.3,29.91,SSE,154,3.0,8.0,74,0.00,,CLR,0.00,VWS V14.01,2013-08-08 05:43:00,
2013-08-08 00:44:00,81.4,72.3,29.91,SSE,156,2.0,8.0,74,0.00,,CLR,0.00,VWS V14.01,2013-08-08 05:44:00,
2013-08-08 00:45:00,81.4,72.3,29.91,South,181,2.0,9.0,74,0.00,,CLR,0.00,VWS V14.01,2013-08-08 05:45:00,
2013-08-08 00:46:00,81.6,72.1,29.91,South,188,0.0,12.0,73,0.00,,CLR,0.00,VWS V14.01,2013-08-08 05:46:00,
2013-08-08 00:47:00,81.2,72.1,29.91,ESE,111,2.0,9.0,74,0.00,,CLR,0.00,VWS V14.01,2013-08-08 05:47:00,
2013-08-08 00:48:00,81.2,72.1,29.91,South,179,0.0,9.0,74,0.00,,CLR,0.00,VWS V14.01,2013-08-08 05:48:00,
2013-08-08 00:49:00,81.2,72.1,29.91,SE,134,7.0,12.0,74,0.00,,CLR,0.00,VWS V14.01,2013-08-08 05:49:00,
2013-08-08 00:50:00,81.2,72.1,29.91,South,188,0.0,0.0,74,0.00,,CLR,0.00,VWS V14.01,2013-08-08 05:50:00,
2013-08-08 00:51:00,81.4,72.3,29.91,South,175,6.0,8.0,74,0.00,,CLR,0.00,VWS V14.01,2013-08-08 05:51:00,
2013-08-08 00:52:00,81.2,72.5,29.91,ESE,121,3.0,6.0,75,0.00,,CLR,0.00,VWS V14.01,2013-08-08 05:52:00,
2013-08-08 00:53:00,81.2,72.5,29.91,SSE,156,1.0,9.0,75,0.00,,CLR,0.00,VWS V14.01,2013-08-08 05:53:00,
2013-08-08 00:54:00,81.2,72.5,29.91,SE,140,0.0,9.0,75,0.00,,CLR,0.00,VWS V14.01,2013-08-08 05:54:00,
2013-08-08 00:55:00,81.2,72.5,29.91,SE,131,0.0,9.0,75,0.00,,CLR,0.00,VWS V14.01,2013-08-08 05:55:00,
2013-08-08 00:56:00,81.2,72.1,29.91,SSE,167,0.0,9.0,74,0.00,,CLR,0.00,VWS V14.01,2013-08-08 05:56:00,
2013-08-08 00:57:00,81.2,72.5,29.91,South,180,4.0,9.0,75,0.00,,CLR,0.00,VWS V14.01,2013-08-08 05:57:00,
2013-08-08 00:58:00,81.2,72.5,29.91,South,182,5.0,9.0,75,0.00,,CLR,0.00,VWS V14.01,2013-08-08 05:58:00,
2013-08-08 00:59:00,81.1,72.4,29.90,SSE,165,4.0,9.0,75,0.00,,CLR,0.00,VWS V14.01,2013-08-08 05:59:00,
2013-08-08 01:00:00,81.1,72.4,29.90,SE,142,0.0,4.0,75,0.00,,CLR,0.00,VWS V14.01,2013-08-08 06:00:00,
2013-08-08 01:01:00,81.2,72.5,29.91,ESE,106,4.0,6.0,75,0.00,,CLR,0.00,VWS V14.01,2013-08-08 06:01:00,
2013-08-08 01:02:00,81.1,72.4,29.90,South,178,0.0,9.0,75,0.00,,CLR,0.00,VWS V14.01,2013-08-08 06:02:00,
2013-08-08 01:03:00,81.1,72.4,29.90,SSE,160,0.0,9.0,75,0.00,,CLR,0.00,VWS V14.01,2013-08-08 06:03:00,
2013-08-08 01:04:00,81.1,72.8,29.90,SSE,155,3.0,9.0,76,0.00,,CLR,0.00,VWS V14.01,2013-08-08 06:04:00,
2013-08-08 01:05:00,81.1,72.8,29.90,SE,124,0.0,9.0,76,0.00,,CLR,0.00,VWS V14.01,2013-08-08 06:05:00,
2013-08-08 01:06:00,81.2,72.5,29.91,SSE,159,0.0,9.0,75,0.00,,CLR,0.00,VWS V14.01,2013-08-08 06:06:00,
2013-08-08 01:07:00,81.1,72.8,29.90,SSE,153,6.0,9.0,76,0.00,,CLR,0.00,VWS V14.01,2013-08-08 06:07:00,
2013-08-08 01:08:00,80.9,72.6,29.90,South,175,0.0,9.0,76,0.00,,CLR,0.00,VWS V14.01,2013-08-08 06:08:00,
2013-08-08 01:09:00,80.9,72.6,29.90,SSE,164,0.0,9.0,76,0.00,,CLR,0.00,VWS V14.01,2013-08-08 06:09:00,
2013-08-08 01:10:00,80.9,72.6,29.90,SE,146,0.0,0.0,76,0.00,,CLR,0.00,VWS V14.01,2013-08-08 06:10:00,
2013-08-08 01:11:00,81.1,72.4,29.90,South,177,0.0,9.0,75,0.00,,CLR,0.00,VWS V14.01,2013-08-08 06:11:00,
2013-08-08 01:12:00,80.9,72.6,29.90,SE,128,0.0,0.0,76,0.00,,CLR,0.00,VWS V14.01,2013-08-08 06:12:00,
2013-08-08 01:13:00,80.9,72.6,29.90,East,101,5.0,5.0,76,0.00,,CLR,0.00,VWS V14.01,2013-08-08 06:13:00,
2013-08-08 01:14:00,80.9,72.6,29.91,SE,139,3.0,5.0,76,0.00,,CLR,0.00,VWS V14.01,2013-08-08 06:14:00,
2013-08-08 01:15:00,80.9,72.6,29.91,SE,142,4.0,6.0,76,0.00,,CLR,0.00,VWS V14.01,2013-08-08 06:15:00,
2013-08-08 01:16:00,81.1,72.8,29.90,ESE,119,3.0,9.0,76,0.00,,CLR,0.00,VWS V14.01,2013-08-08 06:16:00,
2013-08-08 01:17:00,80.7,72.8,29.91,SSE,162,0.0,6.0,77,0.00,,CLR,0.00,VWS V14.01,2013-08-08 06:17:00,
2013-08-08 01:18:00,80.7,72.8,29.91,SSE,165,0.0,6.0,77,0.00,,CLR,0.00,VWS V14.01,2013-08-08 06:18:00,
2013-08-08 01:19:00,80.7,72.8,29.91,SSE,153,0.0,6.0,77,0.00,,CLR,0.00,VWS V14.01,2013-08-08 06:19:00,
2013-08-08 01:20:00,80.7,72.8,29.91,SE,138,0.0,0.0,77,0.00,,CLR,0.00,VWS V14.01,2013-08-08 06:20:00,
2013-08-08 01:21:00,80.9,72.6,29.90,SE,128,0.0,0.0,76,0.00,,CLR,0.00,VWS V14.01,2013-08-08 06:21:00,
2013-08-08 01:22:00,80.7,72.8,29.91,SSE,151,0.0,0.0,77,0.00,,CLR,0.00,VWS V14.01,2013-08-08 06:22:00,
2013-08-08 01:23:00,80.7,72.8,29.91,SSE,151,0.0,0.0,77,0.00,,CLR,0.00,VWS V14.01,2013-08-08 06:23:00,
2013-08-08 01:24:00,80.7,72.8,29.91,ESE,118,0.0,0.0,77,0.00,,CLR,0.00,VWS V14.01,2013-08-08 06:24:00,
2013-08-08 01:25:00,80.7,72.8,29.91,SSE,151,3.0,4.0,77,0.00,,CLR,0.00,VWS V14.01,2013-08-08 06:25:00,
2013-08-08 01:26:00,80.7,72.8,29.91,SE,131,0.0,6.0,77,0.00,,CLR,0.00,VWS V14.01,2013-08-08 06:26:00,
2013-08-08 01:27:00,80.5,72.6,29.91,SSE,165,3.0,5.0,77,0.00,,CLR,0.00,VWS V14.01,2013-08-08 06:27:00,
2013-08-08 01:28:00,80.5,72.6,29.91,SE,144,0.0,5.0,77,0.00,,CLR,0.00,VWS V14.01,2013-08-08 06:28:00,
2013-08-08 01:29:00,80.5,72.6,29.90,SSE,153,0.0,5.0,77,0.00,,CLR,0.00,VWS V14.01,2013-08-08 06:29:00,
2013-08-08 01:30:00,80.5,72.6,29.90,SE,145,0.0,0.0,77,0.00,,CLR,0.00,VWS V14.01,2013-08-08 06:30:00,
2013-08-08 01:31:00,80.7,72.8,29.91,SE,138,0.0,0.0,77,0.00,,CLR,0.00,VWS V14.01,2013-08-08 06:31:00,
2013-08-08 01:32:00,80.5,72.6,29.90,SSE,154,0.0,0.0,77,0.00,,CLR,0.00,VWS V14.01,2013-08-08 06:32:00,
2013-08-08 01:33:00,80.5,73.0,29.90,SE,140,0.0,0.0,78,0.00,,CLR,0.00,VWS V14.01,2013-08-08 06:33:00,
2013-08-08 01:34:00,80.5,73.0,29.90,SSE,157,2.0,5.0,78,0.00,,CLR,0.00,VWS V14.01,2013-08-08 06:34:00,
2013-08-08 01:35:00,80.5,73.0,29.90,SSE,166,3.0,8.0,78,0.00,,CLR,0.00,VWS V14.01,2013-08-08 06:35:00,
2013-08-08 01:36:00,80.5,72.6,29.91,SSE,159,5.0,5.0,77,0.00,,CLR,0.00,VWS V14.01,2013-08-08 06:36:00,
2013-08-08 01:37:00,80.3,72.8,29.90,SSE,154,0.0,8.0,78,0.00,,CLR,0.00,VWS V14.01,2013-08-08 06:37:00,
2013-08-08 01:38:00,80.3,72.8,29.90,SE,138,0.0,8.0,78,0.00,,CLR,0.00,VWS V14.01,2013-08-08 06:38:00,
2013-08-08 01:39:00,80.3,72.8,29.90,SE,142,0.0,8.0,78,0.00,,CLR,0.00,VWS V14.01,2013-08-08 06:39:00,
2013-08-08 01:40:00,80.3,72.8,29.90,SSE,159,0.0,0.0,78,0.00,,CLR,0.00,VWS V14.01,2013-08-08 06:40:00,
2013-08-08 01:41:00,80.5,72.6,29.90,SSE,154,0.0,0.0,77,0.00,,CLR,0.00,VWS V14.01,2013-08-08 06:41:00,
2013-08-08 01:42:00,80.3,72.8,29.90,South,177,0.0,3.0,78,0.00,,CLR,0.00,VWS V14.01,2013-08-08 06:42:00,
2013-08-08 01:43:00,80.3,72.8,29.90,SSE,161,2.0,3.0,78,0.00,,CLR,0.00,VWS V14.01,2013-08-08 06:43:00,
2013-08-08 01:44:00,80.3,72.8,29.90,South,180,0.0,3.0,78,0.00,,CLR,0.00,VWS V14.01,2013-08-08 06:44:00,
2013-08-08 01:45:00,80.3,72.8,29.90,South,175,0.0,3.0,78,0.00,,CLR,0.00,VWS V14.01,2013-08-08 06:45:00,
2013-08-08 01:46:00,80.3,72.8,29.90,SSE,165,4.0,8.0,78,0.00,,CLR,0.00,VWS V14.01,2013-08-08 06:46:00,
2013-08-08 01:47:00,80.3,72.8,29.90,South,180,0.0,3.0,78,0.00,,CLR,0.00,VWS V14.01,2013-08-08 06:47:00,
2013-08-08 01:48:00,80.3,72.8,29.90,SSW,202,0.0,5.0,78,0.00,,CLR,0.00,VWS V14.01,2013-08-08 06:48:00,
2013-08-08 01:49:00,80.3,73.2,29.90,SSE,150,0.0,5.0,79,0.00,,CLR,0.00,VWS V14.01,2013-08-08 06:49:00,
2013-08-08 01:50:00,80.3,73.2,29.90,SSE,150,0.0,0.0,79,0.00,,CLR,0.00,VWS V14.01,2013-08-08 06:50:00,
2013-08-08 01:51:00,80.3,72.8,29.90,South,177,0.0,3.0,78,0.00,,CLR,0.00,VWS V14.01,2013-08-08 06:51:00,
2013-08-08 01:52:00,80.3,73.2,29.90,South,177,6.0,6.0,79,0.00,,CLR,0.00,VWS V14.01,2013-08-08 06:52:00,
2013-08-08 01:53:00,80.3,73.2,29.90,SSE,168,0.0,7.0,79,0.00,,CLR,0.00,VWS V14.01,2013-08-08 06:53:00,
2013-08-08 01:54:00,80.3,73.2,29.90,SSE,168,0.0,7.0,79,0.00,,CLR,0.00,VWS V14.01,2013-08-08 06:54:00,
2013-08-08 01:55:00,80.3,73.2,29.90,SSE,158,0.0,7.0,79,0.00,,CLR,0.00,VWS V14.01,2013-08-08 06:55:00,
2013-08-08 01:56:00,80.3,72.8,29.90,South,187,0.0,3.0,78,0.00,,CLR,0.00,VWS V14.01,2013-08-08 06:56:00,
2013-08-08 01:57:00,80.3,73.2,29.90,SSE,153,2.0,7.0,79,0.00,,CLR,0.00,VWS V14.01,2013-08-08 06:57:00,
2013-08-08 01:58:00,80.1,73.0,29.90,South,173,0.0,7.0,79,0.00,,CLR,0.00,VWS V14.01,2013-08-08 06:58:00,
2013-08-08 01:59:00,80.1,73.0,29.90,SE,145,0.0,7.0,79,0.00,,CLR,0.00,VWS V14.01,2013-08-08 06:59:00,
2013-08-08 02:00:00,80.1,73.0,29.90,SE,142,0.0,0.0,79,0.00,,CLR,0.00,VWS V14.01,2013-08-08 07:00:00,
2013-08-08 02:01:00,80.3,73.2,29.90,SSE,150,2.0,2.0,79,0.00,,CLR,0.00,VWS V14.01,2013-08-08 07:01:00,
2013-08-08 02:02:00,80.1,73.0,29.90,ESE,123,0.0,0.0,79,0.00,,CLR,0.00,VWS V14.01,2013-08-08 07:02:00,
2013-08-08 02:03:00,80.1,73.0,29.90,ESE,113,0.0,2.0,79,0.00,,CLR,0.00,VWS V14.01,2013-08-08 07:03:00,
2013-08-08 02:04:00,80.1,73.0,29.90,SSE,168,0.0,2.0,79,0.00,,CLR,0.00,VWS V14.01,2013-08-08 07:04:00,
2013-08-08 02:05:00,80.1,73.0,29.90,SSE,168,0.0,2.0,79,0.00,,CLR,0.00,VWS V14.01,2013-08-08 07:05:00,
2013-08-08 02:06:00,80.3,73.2,29.90,SSE,156,4.0,7.0,79,0.00,,CLR,0.00,VWS V14.01,2013-08-08 07:06:00,
2013-08-08 02:07:00,80.1,73.0,29.90,South,170,0.0,2.0,79,0.00,,CLR,0.00,VWS V14.01,2013-08-08 07:07:00,
2013-08-08 02:08:00,80.1,73.0,29.90,SSE,167,0.0,2.0,79,0.00,,CLR,0.00,VWS V14.01,2013-08-08 07:08:00,
2013-08-08 02:09:00,80.1,73.0,29.90,SSE,167,0.0,2.0,79,0.00,,CLR,0.00,VWS V14.01,2013-08-08 07:09:00,
2013-08-08 02:10:00,80.1,73.0,29.90,SSE,167,0.0,0.0,79,0.00,,CLR,0.00,VWS V14.01,2013-08-08 07:10:00,
2013-08-08 02:11:00,80.1,73.0,29.90,ESE,123,0.0,0.0,79,0.00,,CLR,0.00,VWS V14.01,2013-08-08 07:11:00,
2013-08-08 02:12:00,80.1,73.0,29.90,SSE,160,0.0,6.0,79,0.00,,CLR,0.00,VWS V14.01,2013-08-08 07:12:00,
2013-08-08 02:13:00,80.1,73.0,29.90,SSE,165,0.0,6.0,79,0.00,,CLR,0.00,VWS V14.01,2013-08-08 07:13:00,
2013-08-08 02:14:00,80.1,73.0,29.90,SE,144,0.0,6.0,79,0.00,,CLR,0.00,VWS V14.01,2013-08-08 07:14:00,
2013-08-08 02:15:00,80.1,73.0,29.90,South,186,3.0,6.0,79,0.00,,CLR,0.00,VWS V14.01,2013-08-08 07:15:00,
2013-08-08 02:16:00,80.1,73.0,29.90,SSE,167,1.0,2.0,79,0.00,,CLR,0.00,VWS V14.01,2013-08-08 07:16:00,
2013-08-08 02:17:00,80.1,73.0,29.90,SSW,192,0.0,6.0,79,0.00,,CLR,0.00,VWS V14.01,2013-08-08 07:17:00,
2013-08-08 02:18:00,80.1,73.0,29.90,SSE,157,0.0,6.0,79,0.00,,CLR,0.00,VWS V14.01,2013-08-08 07:18:00,
2013-08-08 02:19:00,80.1,73.0,29.90,South,188,0.0,6.0,79,0.00,,CLR,0.00,VWS V14.01,2013-08-08 07:19:00,
2013-08-08 02:20:00,80.1,73.0,29.90,South,188,0.0,0.0,79,0.00,,CLR,0.00,VWS V14.01,2013-08-08 07:20:00,
2013-08-08 02:21:00,80.1,73.0,29.90,ESE,105,6.0,6.0,79,0.00,,CLR,0.00,VWS V14.01,2013-08-08 07:21:00,
2013-08-08 02:22:00,80.1,73.0,29.90,South,172,0.0,0.0,79,0.00,,BKN026,0.00,VWS V14.01,2013-08-08 07:22:00,
2013-08-08 02:23:00,80.1,73.0,29.90,South,169,0.0,1.0,79,0.00,,BKN026,0.00,VWS V14.01,2013-08-08 07:23:00,
2013-08-08 02:24:00,80.1,73.0,29.90,South,174,0.0,1.0,79,0.00,,BKN026,0.00,VWS V14.01,2013-08-08 07:24:00,
2013-08-08 02:25:00,80.1,73.0,29.90,South,178,0.0,4.0,79,0.00,,BKN026,0.00,VWS V14.01,2013-08-08 07:25:00,
2013-08-08 02:26:00,80.1,73.0,29.90,South,179,4.0,6.0,79,0.00,,CLR,0.00,VWS V14.01,2013-08-08 07:26:00,
2013-08-08 02:27:00,80.1,73.0,29.90,SSW,196,0.0,6.0,79,0.00,,BKN026,0.00,VWS V14.01,2013-08-08 07:27:00,
2013-08-08 02:28:00,80.1,73.0,29.90,SSW,196,0.0,6.0,79,0.00,,BKN026,0.00,VWS V14.01,2013-08-08 07:28:00,
2013-08-08 02:29:00,80.1,73.4,29.90,SSE,160,0.0,6.0,80,0.00,,BKN026,0.00,VWS V14.01,2013-08-08 07:29:00,
2013-08-08 02:30:00,80.1,73.0,29.90,SSW,194,3.0,3.0,79,0.00,,BKN026,0.00,VWS V14.01,2013-08-08 07:30:00,
2013-08-08 02:31:00,80.1,73.0,29.90,South,172,0.0,0.0,79,0.00,,BKN026,0.00,VWS V14.01,2013-08-08 07:31:00,
2013-08-08 02:32:00,80.1,73.0,29.90,SSW,192,0.0,4.0,79,0.00,,BKN026,0.00,VWS V14.01,2013-08-08 07:32:00,
2013-08-08 02:33:00,80.1,73.4,29.90,South,174,0.0,4.0,80,0.00,,BKN026,0.00,VWS V14.01,2013-08-08 07:33:00,
2013-08-08 02:34:00,80.1,73.4,29.90,South,169,0.0,4.0,80,0.00,,BKN026,0.00,VWS V14.01,2013-08-08 07:34:00,
2013-08-08 02:35:00,80.1,73.4,29.90,South,169,0.0,4.0,80,0.00,,BKN026,0.00,VWS V14.01,2013-08-08 07:35:00,
2013-08-08 02:36:00,80.1,73.0,29.90,SSW,195,1.0,6.0,79,0.00,,BKN026,0.00,VWS V14.01,2013-08-08 07:36:00,
2013-08-08 02:37:00,80.1,73.4,29.90,South,173,0.0,9.0,80,0.00,,BKN026,0.00,VWS V14.01,2013-08-08 07:37:00,
2013-08-08 02:38:00,80.1,73.4,29.90,SE,129,0.0,9.0,80,0.00,,BKN026,0.00,VWS V14.01,2013-08-08 07:38:00,
2013-08-08 02:39:00,80.1,73.4,29.90,SE,144,0.0,9.0,80,0.00,,BKN026,0.00,VWS V14.01,2013-08-08 07:39:00,
2013-08-08 02:40:00,80.1,73.4,29.90,SSE,159,0.0,0.0,80,0.00,,BKN026,0.00,VWS V14.01,2013-08-08 07:40:00,
2013-08-08 02:41:00,80.1,73.0,29.90,SSW,192,0.0,4.0,79,0.00,,BKN026,0.00,VWS V14.01,2013-08-08 07:41:00,
2013-08-08 02:42:00,80.1,73.4,29.90,SE,143,0.0,0.0,80,0.00,,BKN026,0.00,VWS V14.01,2013-08-08 07:42:00,
2013-08-08 02:43:00,80.1,73.4,29.90,SSE,163,0.0,0.0,80,0.00,,BKN026,0.00,VWS V14.01,2013-08-08 07:43:00,
2013-08-08 02:44:00,80.1,73.4,29.89,South,178,0.0,1.0,80,0.00,,BKN026,0.00,VWS V14.01,2013-08-08 07:44:00,
2013-08-08 02:45:00,79.9,73.2,29.89,SSE,162,0.0,3.0,80,0.00,,BKN026,0.00,VWS V14.01,2013-08-08 07:45:00,
2013-08-08 02:46:00,80.1,73.4,29.90,South,174,1.0,9.0,80,0.00,,BKN026,0.00,VWS V14.01,2013-08-08 07:46:00,
2013-08-08 02:47:00,79.9,73.2,29.89,SSE,162,3.0,5.0,80,0.00,,BKN017,0.00,VWS V14.01,2013-08-08 07:47:00,
2013-08-08 02:48:00,79.9,73.2,29.89,ENE,77,0.0,5.0,80,0.00,,BKN017,0.00,VWS V14.01,2013-08-08 07:48:00,
2013-08-08 02:49:00,79.9,73.2,29.89,East,93,0.0,5.0,80,0.00,,BKN017,0.00,VWS V14.01,2013-08-08 07:49:00,
2013-08-08 02:50:00,79.9,73.2,29.89,East,93,0.0,0.0,80,0.00,,BKN017,0.00,VWS V14.01,2013-08-08 07:50:00,
2013-08-08 02:51:00,80.1,73.4,29.90,SE,143,0.0,0.0,80,0.00,,BKN026,0.00,VWS V14.01,2013-08-08 07:51:00,
2013-08-08 02:52:00,79.9,73.2,29.89,ESE,109,0.0,0.0,80,0.00,,BKN017,0.00,VWS V14.01,2013-08-08 07:52:00,
2013-08-08 02:53:00,79.9,73.2,29.89,SW,221,0.0,0.0,80,0.00,,BKN017,0.00,VWS V14.01,2013-08-08 07:53:00,
2013-08-08 02:54:00,79.9,73.2,29.89,South,179,0.0,0.0,80,0.00,,BKN017,0.00,VWS V14.01,2013-08-08 07:54:00,
2013-08-08 02:55:00,79.9,73.2,29.89,South,179,0.0,0.0,80,0.00,,BKN017,0.00,VWS V14.01,2013-08-08 07:55:00,
2013-08-08 02:56:00,79.9,73.2,29.89,SSE,156,0.0,3.0,80,0.00,,BKN017,0.00,VWS V14.01,2013-08-08 07:56:00,
2013-08-08 02:57:00,79.9,73.2,29.89,South,177,0.0,0.0,80,0.00,,BKN017,0.00,VWS V14.01,2013-08-08 07:57:00,
2013-08-08 02:58:00,79.9,73.2,29.89,South,182,1.0,2.0,80,0.00,,BKN017,0.00,VWS V14.01,2013-08-08 07:58:00,
2013-08-08 02:59:00,79.9,73.2,29.89,SSE,157,0.0,3.0,80,0.00,,BKN017,0.00,VWS V14.01,2013-08-08 07:59:00,
2013-08-08 03:00:00,79.9,73.2,29.89,SSE,155,0.0,0.0,80,0.00,,BKN017,0.00,VWS V14.01,2013-08-08 08:00:00,
2013-08-08 03:01:00,79.9,73.2,29.89,ESE,109,0.0,0.0,80,0.00,,BKN017,0.00,VWS V14.01,2013-08-08 08:01:00,
2013-08-08 03:02:00,79.9,73.2,29.89,SSE,155,0.0,1.0,80,0.00,,BKN017,0.00,VWS V14.01,2013-08-08 08:02:00,
2013-08-08 03:03:00,79.9,73.2,29.89,SSE,147,0.0,1.0,80,0.00,,BKN017,0.00,VWS V14.01,2013-08-08 08:03:00,
2013-08-08 03:04:00,79.9,73.2,29.89,South,178,0.0,1.0,80,0.00,,BKN017,0.00,VWS V14.01,2013-08-08 08:04:00,
2013-08-08 03:05:00,79.8,73.1,29.89,SE,129,3.0,7.0,80,0.00,,BKN017,0.00,VWS V14.01,2013-08-08 08:05:00,
2013-08-08 03:06:00,79.9,73.2,29.89,South,177,0.0,0.0,80,0.00,,BKN017,0.00,VWS V14.01,2013-08-08 08:06:00,
2013-08-08 03:07:00,79.8,73.1,29.89,South,171,0.0,7.0,80,0.00,,SCT017,0.00,VWS V14.01,2013-08-08 08:07:00,
2013-08-08 03:08:00,79.8,73.1,29.89,SSE,152,0.0,7.0,80,0.00,,SCT017,0.00,VWS V14.01,2013-08-08 08:08:00,
2013-08-08 03:09:00,79.8,73.1,29.89,SSE,167,4.0,7.0,80,0.00,,SCT017,0.00,VWS V14.01,2013-08-08 08:09:00,
2013-08-08 03:10:00,79.8,73.1,29.89,SSE,157,0.0,0.0,80,0.00,,SCT017,0.00,VWS V14.01,2013-08-08 08:10:00,
2013-08-08 03:11:00,79.9,73.2,29.89,SSE,155,0.0,1.0,80,0.00,,BKN017,0.00,VWS V14.01,2013-08-08 08:11:00,
2013-08-08 03:12:00,79.6,72.9,29.89,South,182,7.0,7.0,80,0.00,,SCT017,0.00,VWS V14.01,2013-08-08 08:12:00,
2013-08-08 03:13:00,79.6,72.9,29.89,SSW,198,5.0,10.0,80,0.00,,SCT017,0.00,VWS V14.01,2013-08-08 08:13:00,
2013-08-08 03:14:00,79.6,72.9,29.89,SSW,200,0.0,10.0,80,0.00,,SCT017,0.00,VWS V14.01,2013-08-08 08:14:00,
2013-08-08 03:15:00,79.6,72.9,29.89,South,177,0.0,10.0,80,0.00,,SCT017,0.00,VWS V14.01,2013-08-08 08:15:00,
2013-08-08 03:16:00,79.8,73.1,29.89,South,178,0.0,7.0,80,0.00,,SCT017,0.00,VWS V14.01,2013-08-08 08:16:00,
2013-08-08 03:17:00,79.6,73.3,29.89,SE,129,0.0,10.0,81,0.00,,SCT017,0.00,VWS V14.01,2013-08-08 08:17:00,
2013-08-08 03:18:00,79.6,73.3,29.89,SE,129,0.0,10.0,81,0.00,,SCT017,0.00,VWS V14.01,2013-08-08 08:18:00,
2013-08-08 03:19:00,79.6,73.3,29.89,South,173,5.0,10.0,81,0.00,,SCT017,0.00,VWS V14.01,2013-08-08 08:19:00,
2013-08-08 03:20:00,79.6,73.3,29.89,SSE,161,0.0,0.0,81,0.00,,SCT017,0.00,VWS V14.01,2013-08-08 08:20:00,
2013-08-08 03:21:00,79.6,72.9,29.89,SSE,167,0.0,0.0,80,0.00,,SCT017,0.00,VWS V14.01,2013-08-08 08:21:00,
2013-08-08 03:22:00,79.6,73.3,29.89,South,175,0.0,1.0,81,0.00,,SCT017,0.00,VWS V14.01,2013-08-08 08:22:00,
2013-08-08 03:23:00,79.6,73.3,29.89,South,175,0.0,1.0,81,0.00,,SCT017,0.00,VWS V14.01,2013-08-08 08:23:00,
2013-08-08 03:24:00,79.6,73.3,29.89,SSE,154,0.0,1.0,81,0.00,,SCT017,0.00,VWS V14.01,2013-08-08 08:24:00,
2013-08-08 03:25:00,79.6,73.3,29.89,SSE,161,0.0,1.0,81,0.00,,SCT017,0.00,VWS V14.01,2013-08-08 08:25:00,
2013-08-08 03:26:00,79.6,72.9,29.89,SSE,148,2.0,10.0,80,0.00,,SCT017,0.00,VWS V14.01,2013-08-08 08:26:00,
2013-08-08 03:27:00,79.6,73.3,29.89,SE,144,0.0,1.0,81,0.00,,SCT017,0.00,VWS V14.01,2013-08-08 08:27:00,
2013-08-08 03:28:00,79.6,73.3,29.89,SE,144,0.0,1.0,81,0.00,,SCT017,0.00,VWS V14.01,2013-08-08 08:28:00,
2013-08-08 03:29:00,79.6,73.3,29.88,SE,146,1.0,7.0,81,0.00,,SCT017,0.00,VWS V14.01,2013-08-08 08:29:00,
2013-08-08 03:30:00,79.6,73.3,29.88,SE,126,0.0,1.0,81,0.00,,SCT017,0.00,VWS V14.01,2013-08-08 08:30:00,
2013-08-08 03:31:00,79.6,73.3,29.89,SSE,149,0.0,1.0,81,0.00,,SCT017,0.00,VWS V14.01,2013-08-08 08:31:00,
2013-08-08 03:32:00,79.6,73.3,29.88,South,175,0.0,1.0,81,0.00,,SCT017,0.00,VWS V14.01,2013-08-08 08:32:00,
2013-08-08 03:33:00,79.6,73.3,29.88,SSE,164,0.0,8.0,81,0.00,,SCT017,0.00,VWS V14.01,2013-08-08 08:33:00,
2013-08-08 03:34:00,79.6,73.3,29.88,SSE,163,0.0,8.0,81,0.00,,SCT017,0.00,VWS V14.01,2013-08-08 08:34:00,
2013-08-08 03:35:00,79.6,73.3,29.88,SE,144,6.0,10.0,81,0.00,,SCT017,0.00,VWS V14.01,2013-08-08 08:35:00,
2013-08-08 03:36:00,79.6,73.3,29.89,SE,146,0.0,1.0,81,0.00,,SCT017,0.00,VWS V14.01,2013-08-08 08:36:00,
2013-08-08 03:37:00,79.4,73.1,29.88,SE,138,0.0,10.0,81,0.00,,BKN017,0.00,VWS V14.01,2013-08-08 08:37:00,
2013-08-08 03:38:00,79.4,73.1,29.88,South,182,3.0,10.0,81,0.00,,BKN017,0.00,VWS V14.01,2013-08-08 08:38:00,
2013-08-08 03:39:00,79.4,73.1,29.88,South,169,6.0,10.0,81,0.00,,BKN017,0.00,VWS V14.01,2013-08-08 08:39:00,
2013-08-08 03:40:00,79.4,73.1,29.88,SSE,163,0.0,0.0,81,0.00,,BKN017,0.00,VWS V14.01,2013-08-08 08:40:00,
2013-08-08 03:41:00,79.6,73.3,29.88,SSE,166,0.0,1.0,81,0.00,,SCT017,0.00,VWS V14.01,2013-08-08 08:41:00,
2013-08-08 03:42:00,79.4,73.1,29.88,South,180,3.0,7.0,81,0.00,,BKN017,0.00,VWS V14.01,2013-08-08 08:42:00,
2013-08-08 03:43:00,79.4,73.1,29.88,SE,142,4.0,7.0,81,0.00,,BKN017,0.00,VWS V14.01,2013-08-08 08:43:00,
2013-08-08 03:44:00,79.4,73.1,29.88,ESE,121,3.0,11.0,81,0.00,,BKN017,0.00,VWS V14.01,2013-08-08 08:44:00,
2013-08-08 03:45:00,79.4,73.1,29.88,SE,144,0.0,11.0,81,0.00,,BKN017,0.00,VWS V14.01,2013-08-08 08:45:00,
2013-08-08 03:46:00,79.4,73.1,29.88,South,171,0.0,10.0,81,0.00,,BKN017,0.00,VWS V14.01,2013-08-08 08:46:00,
2013-08-08 03:47:00,79.4,73.1,29.88,SSE,150,0.0,11.0,81,0.00,,BKN017,0.00,VWS V14.01,2013-08-08 08:47:00,
2013-08-08 03:48:00,79.4,73.1,29.88,South,182,0.0,11.0,81,0.00,,BKN017,0.00,VWS V14.01,2013-08-08 08:48:00,
2013-08-08 03:49:00,79.4,73.1,29.88,South,182,5.0,11.0,81,0.00,,BKN017,0.00,VWS V14.01,2013-08-08 08:49:00,
2013-08-08 03:50:00,79.4,73.1,29.88,SSE,159,7.0,7.0,81,0.00,,BKN017,0.00,VWS V14.01,2013-08-08 08:50:00,
2013-08-08 03:51:00,79.4,73.1,29.88,SE,130,0.0,0.0,81,0.00,,BKN017,0.00,VWS V14.01,2013-08-08 08:51:00,
2013-08-08 03:52:00,79.4,73.1,29.88,South,173,2.0,7.0,81,0.00,,BKN017,0.00,VWS V14.01,2013-08-08 08:52:00,
2013-08-08 03:53:00,79.4,73.1,29.88,SSW,193,3.0,7.0,81,0.00,,BKN017,0.00,VWS V14.01,2013-08-08 08:53:00,
2013-08-08 03:54:00,79.4,73.1,29.88,SSE,166,0.0,7.0,81,0.00,,BKN017,0.00,VWS V14.01,2013-08-08 08:54:00,
2013-08-08 03:55:00,79.4,73.1,29.88,SSE,167,0.0,7.0,81,0.00,,BKN017,0.00,VWS V14.01,2013-08-08 08:55:00,
2013-08-08 03:56:00,79.4,73.1,29.88,SSE,150,0.0,11.0,81,0.00,,BKN017,0.00,VWS V14.01,2013-08-08 08:56:00,
2013-08-08 03:57:00,79.4,73.1,29.88,South,181,10.0,10.0,81,0.00,,BKN017,0.00,VWS V14.01,2013-08-08 08:57:00,
2013-08-08 03:58:00,79.4,73.1,29.88,SSE,158,0.0,10.0,81,0.00,,BKN017,0.00,VWS V14.01,2013-08-08 08:58:00,
2013-08-08 03:59:00,79.4,73.1,29.88,SSW,209,0.0,10.0,81,0.00,,BKN017,0.00,VWS V14.01,2013-08-08 08:59:00,
2013-08-08 04:00:00,79.4,73.1,29.88,SE,146,6.0,7.0,81,0.00,,BKN017,0.00,VWS V14.01,2013-08-08 09:00:00,
2013-08-08 04:01:00,79.4,73.1,29.88,South,184,0.0,7.0,81,0.00,,BKN017,0.00,VWS V14.01,2013-08-08 09:01:00,
2013-08-08 04:02:00,79.2,72.9,29.88,South,173,0.0,7.0,81,0.00,,BKN017,0.00,VWS V14.01,2013-08-08 09:02:00,
2013-08-08 04:03:00,79.2,72.9,29.88,SSE,156,0.0,7.0,81,0.00,,BKN017,0.00,VWS V14.01,2013-08-08 09:03:00,
2013-08-08 04:04:00,79.2,72.9,29.88,SSE,166,0.0,7.0,81,0.00,,BKN017,0.00,VWS V14.01,2013-08-08 09:04:00,
2013-08-08 04:05:00,79.2,72.9,29.88,South,169,3.0,9.0,81,0.00,,BKN017,0.00,VWS V14.01,2013-08-08 09:05:00,
2013-08-08 04:06:00,79.4,73.1,29.88,South,188,0.0,7.0,81,0.00,,BKN017,0.00,VWS V14.01,2013-08-08 09:06:00,
2013-08-08 04:07:00,79.2,72.5,29.88,SSE,162,6.0,9.0,80,0.00,,BKN017,0.00,VWS V14.01,2013-08-08 09:07:00,
2013-08-08 04:08:00,79.2,72.5,29.88,SSE,161,0.0,9.0,80,0.00,,BKN017,0.00,VWS V14.01,2013-08-08 09:08:00,
2013-08-08 04:09:00,79.2,72.5,29.88,SSE,150,0.0,9.0,80,0.00,,BKN017,0.00,VWS V14.01,2013-08-08 09:09:00,
2013-08-08 04:10:00,79.2,72.5,29.88,SSE,159,0.0,0.0,80,0.00,,BKN017,0.00,VWS V14.01,2013-08-08 09:10:00,
2013-08-08 04:11:00,79.2,72.9,29.88,South,173,0.0,7.0,81,0.00,,BKN017,0.00,VWS V14.01,2013-08-08 09:11:00,
2013-08-08 04:12:00,79.2,72.5,29.88,SSW,194,2.0,2.0,80,0.00,,BKN017,0.00,VWS V14.01,2013-08-08 09:12:00,
2013-08-08 04:13:00,79.2,72.5,29.88,SSW,199,0.0,6.0,80,0.00,,BKN017,0.00,VWS V14.01,2013-08-08 09:13:00,
2013-08-08 04:14:00,79.2,72.5,29.88,SSE,162,4.0,6.0,80,0.00,,BKN017,0.00,VWS V14.01,2013-08-08 09:14:00,
2013-08-08 04:15:00,79.2,72.5,29.88,SSE,165,2.0,6.0,80,0.00,,BKN017,0.00,VWS V14.01,2013-08-08 09:15:00,
2013-08-08 04:16:00,79.2,72.5,29.88,ESE,121,4.0,9.0,80,0.00,,BKN017,0.00,VWS V14.01,2013-08-08 09:16:00,
2013-08-08 04:17:00,79.2,72.5,29.88,South,187,7.0,9.0,80,0.00,,BKN017,0.00,VWS V14.01,2013-08-08 09:17:00,
2013-08-08 04:18:00,79.2,72.5,29.88,SSW,196,5.0,9.0,80,0.00,,BKN017,0.00,VWS V14.01,2013-08-08 09:18:00,
2013-08-08 04:19:00,79.2,72.5,29.88,SSE,165,0.0,9.0,80,0.00,,BKN017,0.00,VWS V14.01,2013-08-08 09:19:00,
2013-08-08 04:20:00,79.2,72.5,29.88,SSE,150,0.0,0.0,80,0.00,,BKN017,0.00,VWS V14.01,2013-08-08 09:20:00,
2013-08-08 04:21:00,79.2,72.5,29.88,South,184,0.0,0.0,80,0.00,,BKN017,0.00,VWS V14.01,2013-08-08 09:21:00,
2013-08-08 04:22:00,79.2,72.5,29.88,South,180,2.0,6.0,80,0.00,,BKN017,0.00,VWS V14.01,2013-08-08 09:22:00,
2013-08-08 04:23:00,79.2,72.5,29.88,South,175,0.0,6.0,80,0.00,,BKN017,0.00,VWS V14.01,2013-08-08 09:23:00,
2013-08-08 04:24:00,79.0,72.3,29.88,South,190,0.0,6.0,80,0.00,,BKN017,0.00,VWS V14.01,2013-08-08 09:24:00,
2013-08-08 04:25:00,79.0,72.3,29.88,South,188,0.0,6.0,80,0.00,,BKN017,0.00,VWS V14.01,2013-08-08 09:25:00,
2013-08-08 04:26:00,79.2,72.5,29.88,South,180,0.0,7.0,80,0.00,,BKN017,0.00,VWS V14.01,2013-08-08 09:26:00,
2013-08-08 04:27:00,79.0,72.3,29.88,SSE,161,5.0,7.0,80,0.00,,BKN017,0.00,VWS V14.01,2013-08-08 09:27:00,
2013-08-08 04:28:00,79.0,72.3,29.88,ESE,115,2.0,7.0,80,0.00,,BKN017,0.00,VWS V14.01,2013-08-08 09:28:00,
2013-08-08 04:29:00,79.0,72.3,29.88,SSE,155,1.0,7.0,80,0.00,,BKN017,0.00,VWS V14.01,2013-08-08 09:29:00,
2013-08-08 04:30:00,79.0,72.3,29.88,South,173,0.0,4.0,80,0.00,,BKN017,0.00,VWS V14.01,2013-08-08 09:30:00,
2013-08-08 04:31:00,79.2,72.5,29.88,South,182,3.0,6.0,80,0.00,,BKN017,0.00,VWS V14.01,2013-08-08 09:31:00,
2013-08-08 04:32:00,79.0,72.3,29.88,South,178,3.0,9.0,80,0.00,,BKN017,0.00,VWS V14.01,2013-08-08 09:32:00,
2013-08-08 04:33:00,79.0,72.3,29.88,South,178,0.0,9.0,80,0.00,,BKN017,0.00,VWS V14.01,2013-08-08 09:33:00,
2013-08-08 04:34:00,79.0,72.3,29.88,South,175,2.0,9.0,80,0.00,,BKN017,0.00,VWS V14.01,2013-08-08 09:34:00,
2013-08-08 04:35:00,79.0,72.3,29.88,South,187,3.0,9.0,80,0.00,,BKN017,0.00,VWS V14.01,2013-08-08 09:35:00,
2013-08-08 04:36:00,79.0,72.3,29.88,East,98,0.0,7.0,80,0.00,,BKN017,0.00,VWS V14.01,2013-08-08 09:36:00,
2013-08-08 04:37:00,79.0,72.3,29.88,South,173,7.0,10.0,80,0.00,,BKN017,0.00,VWS V14.01,2013-08-08 09:37:00,
2013-08-08 04:38:00,79.0,72.3,29.88,SSE,150,6.0,10.0,80,0.00,,BKN017,0.00,VWS V14.01,2013-08-08 09:38:00,
2013-08-08 04:39:00,79.0,72.3,29.88,South,184,6.0,10.0,80,0.00,,BKN017,0.00,VWS V14.01,2013-08-08 09:39:00,
2013-08-08 04:40:00,79.0,72.3,29.88,South,173,0.0,7.0,80,0.00,,BKN017,0.00,VWS V14.01,2013-08-08 09:40:00,
2013-08-08 04:41:00,79.0,72.3,29.88,South,181,9.0,9.0,80,0.00,,BKN017,0.00,VWS V14.01,2013-08-08 09:41:00,
2013-08-08 04:42:00,79.0,72.3,29.88,SSE,162,0.0,7.0,80,0.00,,BKN017,0.00,VWS V14.01,2013-08-08 09:42:00,
2013-08-08 04:43:00,79.0,72.3,29.88,SSE,162,0.0,7.0,80,0.00,,BKN017,0.00,VWS V14.01,2013-08-08 09:43:00,
2013-08-08 04:44:00,79.0,71.9,29.87,SSE,150,4.0,10.0,79,0.00,,BKN017,0.00,VWS V14.01,2013-08-08 09:44:00,
2013-08-08 04:45:00,79.0,71.9,29.87,South,179,4.0,10.0,79,0.00,,BKN017,0.00,VWS V14.01,2013-08-08 09:45:00,
2013-08-08 04:46:00,79.0,72.3,29.88,SSW,207,5.0,10.0,80,0.00,,BKN017,0.00,VWS V14.01,2013-08-08 09:46:00,
2013-08-08 04:47:00,79.0,71.9,29.87,SSE,153,3.0,10.0,79,0.00,,BKN019,0.00,VWS V14.01,2013-08-08 09:47:00,
2013-08-08 04:48:00,79.0,71.9,29.87,SSW,195,3.0,10.0,79,0.00,,BKN019,0.00,VWS V14.01,2013-08-08 09:48:00,
2013-08-08 04:49:00,79.0,71.9,29.87,SSE,162,0.0,10.0,79,0.00,,BKN019,0.00,VWS V14.01,2013-08-08 09:49:00,
2013-08-08 04:50:00,79.2,72.1,29.87,South,180,4.0,5.0,79,0.00,,BKN019,0.00,VWS V14.01,2013-08-08 09:50:00,
2013-08-08 04:51:00,79.0,72.3,29.88,SSE,162,0.0,7.0,80,0.00,,BKN017,0.00,VWS V14.01,2013-08-08 09:51:00,
2013-08-08 04:52:00,79.2,72.1,29.87,South,176,0.0,6.0,79,0.00,,BKN019,0.00,VWS V14.01,2013-08-08 09:52:00,
2013-08-08 04:53:00,79.2,72.1,29.87,South,173,0.0,6.0,79,0.00,,BKN019,0.00,VWS V14.01,2013-08-08 09:53:00,
2013-08-08 04:54:00,79.2,72.1,29.87,SSE,161,0.0,6.0,79,0.00,,BKN019,0.00,VWS V14.01,2013-08-08 09:54:00,
2013-08-08 04:55:00,79.2,72.1,29.87,SSE,162,0.0,7.0,79,0.00,,BKN019,0.00,VWS V14.01,2013-08-08 09:55:00,
2013-08-08 04:56:00,79.0,71.9,29.87,SSE,168,0.0,10.0,79,0.00,,BKN019,0.00,VWS V14.01,2013-08-08 09:56:00,
2013-08-08 04:57:00,79.2,72.1,29.87,South,188,11.0,12.0,79,0.00,,BKN019,0.00,VWS V14.01,2013-08-08 09:57:00,
2013-08-08 04:58:00,79.2,72.1,29.87,South,182,4.0,12.0,79,0.00,,BKN019,0.00,VWS V14.01,2013-08-08 09:58:00,
2013-08-08 04:59:00,79.2,72.1,29.88,South,173,4.0,12.0,79,0.00,,BKN019,0.00,VWS V14.01,2013-08-08 09:59:00,
2013-08-08 05:00:00,79.2,72.1,29.88,SSE,161,7.0,7.0,79,0.00,,BKN019,0.00,VWS V14.01,2013-08-08 10:00:00,
2013-08-08 05:01:00,79.2,72.1,29.87,SSE,167,3.0,6.0,79,0.00,,BKN019,0.00,VWS V14.01,2013-08-08 10:01:00,
2013-08-08 05:02:00,79.4,71.9,29.88,South,175,3.0,9.0,78,0.00,,BKN019,0.00,VWS V14.01,2013-08-08 10:02:00,
2013-08-08 05:03:00,79.4,71.9,29.88,South,175,6.0,11.0,78,0.00,,BKN019,0.00,VWS V14.01,2013-08-08 10:03:00,
2013-08-08 05:04:00,79.4,71.9,29.88,SSE,163,5.0,13.0,78,0.00,,BKN019,0.00,VWS V14.01,2013-08-08 10:04:00,
2013-08-08 05:05:00,79.4,71.9,29.88,South,182,4.0,13.0,78,0.00,,BKN019,0.00,VWS V14.01,2013-08-08 10:05:00,
2013-08-08 05:06:00,79.2,72.1,29.87,SSE,158,5.0,10.0,79,0.00,,BKN019,0.00,VWS V14.01,2013-08-08 10:06:00,
2013-08-08 05:07:00,79.4,71.9,29.88,SE,136,4.0,13.0,78,0.00,,BKN019,0.00,VWS V14.01,2013-08-08 10:07:00,
2013-08-08 05:08:00,79.4,71.9,29.88,SE,140,1.0,13.0,78,0.00,,BKN019,0.00,VWS V14.01,2013-08-08 10:08:00,
2013-08-08 05:09:00,79.4,71.9,29.88,South,188,9.0,13.0,78,0.00,,BKN019,0.00,VWS V14.01,2013-08-08 10:09:00,
2013-08-08 05:10:00,79.4,71.9,29.88,SSE,163,0.0,4.0,78,0.00,,BKN019,0.00,VWS V14.01,2013-08-08 10:10:00,
2013-08-08 05:11:00,79.4,72.3,29.88,South,173,0.0,9.0,79,0.00,,BKN019,0.00,VWS V14.01,2013-08-08 10:11:00,
2013-08-08 05:12:00,79.4,71.9,29.88,South,185,2.0,9.0,78,0.00,,BKN019,0.00,VWS V14.01,2013-08-08 10:12:00,
2013-08-08 05:13:00,79.4,71.9,29.88,South,172,0.0,9.0,78,0.00,,BKN019,0.00,VWS V14.01,2013-08-08 10:13:00,
2013-08-08 05:14:00,79.4,71.9,29.88,SSW,196,6.0,9.0,78,0.00,,BKN019,0.00,VWS V14.01,2013-08-08 10:14:00,
2013-08-08 05:15:00,79.4,71.9,29.88,SSE,150,0.0,9.0,78,0.00,,BKN019,0.00,VWS V14.01,2013-08-08 10:15:00,
2013-08-08 05:16:00,79.4,71.9,29.88,ESE,122,0.0,13.0,78,0.00,,BKN019,0.00,VWS V14.01,2013-08-08 10:16:00,
2013-08-08 05:17:00,79.6,72.1,29.88,SSE,160,3.0,9.0,78,0.00,,BKN019,0.00,VWS V14.01,2013-08-08 10:17:00,
2013-08-08 05:18:00,79.6,72.1,29.88,South,169,0.0,9.0,78,0.00,,BKN019,0.00,VWS V14.01,2013-08-08 10:18:00,
2013-08-08 05:19:00,79.6,72.1,29.88,South,181,0.0,9.0,78,0.00,,BKN019,0.00,VWS V14.01,2013-08-08 10:19:00,
2013-08-08 05:20:00,79.6,72.1,29.88,South,170,1.0,6.0,78,0.00,,BKN019,0.00,VWS V14.01,2013-08-08 10:20:00,
2013-08-08 05:21:00,79.4,71.9,29.88,SSE,168,5.0,9.0,78,0.00,,BKN019,0.00,VWS V14.01,2013-08-08 10:21:00,
2013-08-08 05:22:00,79.6,72.1,29.88,SSW,192,4.0,7.0,78,0.00,,BKN019,0.00,VWS V14.01,2013-08-08 10:22:00,
2013-08-08 05:23:00,79.6,72.1,29.88,South,181,2.0,7.0,78,0.00,,BKN019,0.00,VWS V14.01,2013-08-08 10:23:00,
2013-08-08 05:24:00,79.6,72.1,29.88,SSE,159,5.0,7.0,78,0.00,,BKN019,0.00,VWS V14.01,2013-08-08 10:24:00,
2013-08-08 05:25:00,79.6,72.1,29.88,South,170,2.0,7.0,78,0.00,,BKN019,0.00,VWS V14.01,2013-08-08 10:25:00,
2013-08-08 05:26:00,79.6,72.1,29.88,SSE,159,9.0,9.0,78,0.00,,BKN019,0.00,VWS V14.01,2013-08-08 10:26:00,
2013-08-08 05:27:00,79.6,72.1,29.88,SSW,194,7.0,7.0,78,0.00,,BKN019,0.00,VWS V14.01,2013-08-08 10:27:00,
2013-08-08 05:28:00,79.6,72.1,29.88,South,173,6.0,8.0,78,0.00,,BKN019,0.00,VWS V14.01,2013-08-08 10:28:00,
2013-08-08 05:29:00,79.6,72.1,29.88,South,180,5.0,9.0,78,0.00,,BKN019,0.00,VWS V14.01,2013-08-08 10:29:00,
2013-08-08 05:30:00,79.6,72.1,29.88,South,184,12.0,12.0,78,0.00,,BKN019,0.00,VWS V14.01,2013-08-08 10:30:00,
2013-08-08 05:31:00,79.6,72.1,29.88,SSW,201,4.0,7.0,78,0.00,,BKN019,0.00,VWS V14.01,2013-08-08 10:31:00,
2013-08-08 05:32:00,79.4,71.6,29.88,South,175,4.0,13.0,77,0.00,,BKN019,0.00,VWS V14.01,2013-08-08 10:32:00,
2013-08-08 05:33:00,79.4,71.6,29.88,SSE,167,4.0,13.0,77,0.00,,BKN019,0.00,VWS V14.01,2013-08-08 10:33:00,
2013-08-08 05:34:00,79.4,71.6,29.88,SSW,196,9.0,13.0,77,0.00,,BKN019,0.00,VWS V14.01,2013-08-08 10:34:00,
2013-08-08 05:35:00,79.6,71.8,29.88,SSE,159,4.0,13.0,77,0.00,,BKN019,0.00,VWS V14.01,2013-08-08 10:35:00,
2013-08-08 05:36:00,79.6,72.1,29.88,SW,222,6.0,7.0,78,0.00,,BKN019,0.00,VWS V14.01,2013-08-08 10:36:00,
2013-08-08 05:37:00,79.6,71.8,29.88,SSE,159,0.0,13.0,77,0.00,,BKN019,0.00,VWS V14.01,2013-08-08 10:37:00,
2013-08-08 05:38:00,79.6,71.8,29.88,South,180,0.0,13.0,77,0.00,,BKN019,0.00,VWS V14.01,2013-08-08 10:38:00,
2013-08-08 05:39:00,79.6,71.8,29.88,South,177,0.0,13.0,77,0.00,,BKN019,0.00,VWS V14.01,2013-08-08 10:39:00,
2013-08-08 05:40:00,79.6,71.8,29.88,South,186,0.0,6.0,77,0.00,,BKN019,0.00,VWS V14.01,2013-08-08 10:40:00,
2013-08-08 05:41:00,79.4,71.6,29.88,SSW,193,7.0,13.0,77,0.00,,BKN019,0.00,VWS V14.01,2013-08-08 10:41:00,
2013-08-08 05:42:00,79.6,71.8,29.88,South,185,3.0,6.0,77,0.00,,BKN019,0.00,VWS V14.01,2013-08-08 10:42:00,
2013-08-08 05:43:00,79.6,71.8,29.88,South,175,0.0,6.0,77,0.00,,BKN019,0.00,VWS V14.01,2013-08-08 10:43:00,
2013-08-08 05:44:00,79.6,71.8,29.88,South,190,3.0,6.0,77,0.00,,BKN019,0.00,VWS V14.01,2013-08-08 10:44:00,
2013-08-08 05:45:00,79.6,71.8,29.88,SSE,155,1.0,9.0,77,0.00,,BKN019,0.00,VWS V14.01,2013-08-08 10:45:00,
2013-08-08 05:46:00,79.6,71.8,29.88,SSE,158,4.0,13.0,77,0.00,,BKN019,0.00,VWS V14.01,2013-08-08 10:46:00,
2013-08-08 05:47:00,79.8,71.6,29.88,South,172,0.0,9.0,76,0.00,,BKN021,0.00,VWS V14.01,2013-08-08 10:47:00,
2013-08-08 05:48:00,79.8,71.6,29.88,South,188,3.0,9.0,76,0.00,,BKN021,0.00,VWS V14.01,2013-08-08 10:48:00,
2013-08-08 05:49:00,79.8,71.6,29.88,SSE,167,1.0,9.0,76,0.00,,BKN021,0.00,VWS V14.01,2013-08-08 10:49:00,
2013-08-08 05:50:00,79.8,71.6,29.88,South,175,4.0,6.0,76,0.00,,BKN021,0.00,VWS V14.01,2013-08-08 10:50:00,
2013-08-08 05:51:00,79.6,71.8,29.88,South,175,0.0,6.0,77,0.00,,BKN019,0.00,VWS V14.01,2013-08-08 10:51:00,
2013-08-08 05:52:00,79.8,71.6,29.88,South,191,7.0,11.0,76,0.00,,BKN021,0.00,VWS V14.01,2013-08-08 10:52:00,
2013-08-08 05:53:00,79.8,71.6,29.88,SSE,164,0.0,11.0,76,0.00,,BKN021,0.00,VWS V14.01,2013-08-08 10:53:00,
2013-08-08 05:54:00,79.8,71.6,29.88,South,182,3.0,11.0,76,0.00,,BKN021,0.00,VWS V14.01,2013-08-08 10:54:00,
2013-08-08 05:55:00,79.8,71.6,29.88,South,180,2.0,11.0,76,0.00,,BKN021,0.00,VWS V14.01,2013-08-08 10:55:00,
2013-08-08 05:56:00,79.8,71.6,29.88,South,169,0.0,9.0,76,0.00,,BKN021,0.00,VWS V14.01,2013-08-08 10:56:00,
2013-08-08 05:57:00,79.8,71.6,29.88,SSW,193,0.0,11.0,76,0.00,,BKN021,0.00,VWS V14.01,2013-08-08 10:57:00,
2013-08-08 05:58:00,79.8,71.6,29.88,South,182,4.0,11.0,76,0.00,,BKN021,0.00,VWS V14.01,2013-08-08 10:58:00,
2013-08-08 05:59:00,79.8,71.6,29.88,South,190,3.0,12.0,76,0.00,,BKN021,0.00,VWS V14.01,2013-08-08 10:59:00,
2013-08-08 06:00:00,79.8,71.6,29.88,South,169,1.0,5.0,76,0.00,,BKN021,0.00,VWS V14.01,2013-08-08 11:00:00,
2013-08-08 06:01:00,79.8,71.6,29.88,SSE,153,4.0,11.0,76,0.00,,BKN021,0.00,VWS V14.01,2013-08-08 11:01:00,
2013-08-08 06:02:00,79.8,71.6,29.88,South,188,2.0,8.0,76,0.00,,BKN021,0.00,VWS V14.01,2013-08-08 11:02:00,
2013-08-08 06:03:00,79.8,71.2,29.88,SSW,200,1.0,8.0,75,0.00,,BKN021,0.00,VWS V14.01,2013-08-08 11:03:00,
2013-08-08 06:04:00,79.8,71.2,29.88,South,179,0.0,8.0,75,0.00,,BKN021,0.00,VWS V14.01,2013-08-08 11:04:00,
2013-08-08 06:05:00,79.8,71.2,29.88,SSE,155,0.0,8.0,75,0.00,,BKN021,0.00,VWS V14.01,2013-08-08 11:05:00,
2013-08-08 06:06:00,79.8,71.6,29.88,SSW,193,0.0,11.0,76,0.00,,BKN021,0.00,VWS V14.01,2013-08-08 11:06:00,
2013-08-08 06:07:00,79.8,71.2,29.88,SSE,164,3.0,8.0,75,0.00,,BKN021,0.00,VWS V14.01,2013-08-08 11:07:00,
2013-08-08 06:08:00,79.8,71.2,29.88,SSE,167,6.0,8.0,75,0.00,,BKN021,0.00,VWS V14.01,2013-08-08 11:08:00,
2013-08-08 06:09:00,79.8,71.2,29.88,South,190,0.0,8.0,75,0.00,,BKN021,0.00,VWS V14.01,2013-08-08 11:09:00,
2013-08-08 06:10:00,79.8,70.8,29.88,South,174,9.0,9.0,74,0.00,,BKN021,0.00,VWS V14.01,2013-08-08 11:10:00,
2013-08-08 06:11:00,79.8,71.6,29.88,SSW,202,5.0,8.0,76,0.00,,BKN021,0.00,VWS V14.01,2013-08-08 11:11:00,
2013-08-08 06:12:00,79.8,70.8,29.88,SSW,202,0.0,9.0,74,0.00,,BKN021,0.00,VWS V14.01,2013-08-08 11:12:00,
2013-08-08 06:13:00,79.9,70.9,29.88,South,180,2.0,10.0,74,0.00,,BKN021,0.00,VWS V14.01,2013-08-08 11:13:00,
2013-08-08 06:14:00,79.9,70.9,29.88,South,177,0.0,10.0,74,0.00,,BKN021,0.00,VWS V14.01,2013-08-08 11:14:00,
2013-08-08 06:15:00,79.9,70.9,29.88,SSE,160,3.0,10.0,74,0.00,,BKN021,0.00,VWS V14.01,2013-08-08 11:15:00,
2013-08-08 06:16:00,79.8,71.2,29.88,South,190,2.0,8.0,75,0.00,,BKN021,0.00,VWS V14.01,2013-08-08 11:16:00,
2013-08-08 06:17:00,79.9,70.9,29.88,SSW,200,6.0,13.0,74,0.00,,BKN021,0.00,VWS V14.01,2013-08-08 11:17:00,
2013-08-08 06:18:00,79.9,70.9,29.88,South,183,7.0,13.0,74,0.00,,BKN021,0.00,VWS V14.01,2013-08-08 11:18:00,
2013-08-08 06:19:00,79.9,70.9,29.88,SSE,167,6.0,14.0,74,0.00,,BKN021,0.00,VWS V14.01,2013-08-08 11:19:00,
2013-08-08 06:20:00,79.9,70.9,29.88,SSW,207,9.0,9.0,74,0.00,,BKN021,0.00,VWS V14.01,2013-08-08 11:20:00,
2013-08-08 06:21:00,79.8,70.8,29.88,SSW,205,4.0,9.0,74,0.00,,BKN021,0.00,VWS V14.01,2013-08-08 11:21:00,
2013-08-08 06:22:00,79.9,70.9,29.88,South,173,0.0,9.0,74,0.00,,BKN021,0.00,VWS V14.01,2013-08-08 11:22:00,
2013-08-08 06:23:00,79.9,70.9,29.88,South,185,4.0,9.0,74,0.00,,BKN021,0.00,VWS V14.01,2013-08-08 11:23:00,
2013-08-08 06:24:00,79.9,70.9,29.88,South,175,11.0,11.0,74,0.00,,BKN021,0.00,VWS V14.01,2013-08-08 11:24:00,
2013-08-08 06:25:00,79.8,70.8,29.88,SSW,202,3.0,11.0,74,0.00,,BKN021,0.00,VWS V14.01,2013-08-08 11:25:00,
2013-08-08 06:26:00,79.9,70.9,29.88,South,189,11.0,13.0,74,0.00,,BKN021,0.00,VWS V14.01,2013-08-08 11:26:00,
2013-08-08 06:27:00,79.8,70.8,29.88,South,186,3.0,13.0,74,0.00,,BKN021,0.00,VWS V14.01,2013-08-08 11:27:00,
2013-08-08 06:28:00,79.9,70.9,29.88,SSE,150,5.0,13.0,74,0.00,,BKN021,0.00,VWS V14.01,2013-08-08 11:28:00,
2013-08-08 06:29:00,79.9,70.9,29.89,SSE,153,3.0,13.0,74,0.00,,BKN021,0.00,VWS V14.01,2013-08-08 11:29:00,
2013-08-08 06:30:00,79.9,70.9,29.89,South,171,0.0,5.0,74,0.00,,BKN021,0.00,VWS V14.01,2013-08-08 11:30:00,
2013-08-08 06:31:00,79.9,70.9,29.88,South,173,3.0,9.0,74,0.00,,BKN021,0.00,VWS V14.01,2013-08-08 11:31:00,
2013-08-08 06:32:00,79.9,70.9,29.89,SSE,159,5.0,11.0,74,0.00,,BKN021,0.00,VWS V14.01,2013-08-08 11:32:00,
2013-08-08 06:33:00,79.9,70.9,29.89,SSW,192,0.0,11.0,74,0.00,,BKN021,0.00,VWS V14.01,2013-08-08 11:33:00,
2013-08-08 06:34:00,79.9,70.9,29.89,South,175,0.0,11.0,74,0.00,,BKN021,0.00,VWS V14.01,2013-08-08 11:34:00,
2013-08-08 06:35:00,79.9,70.9,29.89,South,175,0.0,11.0,74,0.00,,BKN021,0.00,VWS V14.01,2013-08-08 11:35:00,
2013-08-08 06:36:00,79.8,70.8,29.88,South,173,4.0,13.0,74,0.00,,BKN021,0.00,VWS V14.01,2013-08-08 11:36:00,
2013-08-08 06:37:00,79.9,70.9,29.89,South,175,0.0,11.0,74,0.00,,BKN021,0.00,VWS V14.01,2013-08-08 11:37:00,
2013-08-08 06:38:00,79.9,70.9,29.89,South,175,0.0,11.0,74,0.00,,BKN021,0.00,VWS V14.01,2013-08-08 11:38:00,
2013-08-08 06:39:00,80.1,71.1,29.89,SE,139,3.0,11.0,74,0.00,,BKN021,0.00,VWS V14.01,2013-08-08 11:39:00,
2013-08-08 06:40:00,80.1,71.1,29.89,South,184,12.0,12.0,74,0.00,,BKN021,0.00,VWS V14.01,2013-08-08 11:40:00,
2013-08-08 06:41:00,79.9,70.9,29.89,South,181,0.0,6.0,74,0.00,,BKN021,0.00,VWS V14.01,2013-08-08 11:41:00,
2013-08-08 06:42:00,80.1,70.7,29.89,SSW,192,9.0,12.0,73,0.00,,BKN021,0.00,VWS V14.01,2013-08-08 11:42:00,
2013-08-08 06:43:00,80.1,70.7,29.89,SSE,162,3.0,12.0,73,0.00,,BKN021,0.00,VWS V14.01,2013-08-08 11:43:00,
2013-08-08 06:44:00,80.1,70.7,29.89,South,179,6.0,12.0,73,0.00,,BKN021,0.00,VWS V14.01,2013-08-08 11:44:00,
2013-08-08 06:45:00,80.1,70.7,29.89,South,178,3.0,12.0,73,0.00,,BKN021,0.00,VWS V14.01,2013-08-08 11:45:00,
2013-08-08 06:46:00,79.9,70.9,29.89,South,175,0.0,11.0,74,0.00,,BKN021,0.00,VWS V14.01,2013-08-08 11:46:00,
2013-08-08 06:47:00,80.1,70.7,29.89,South,189,0.0,12.0,73,0.00,,OVC021,0.00,VWS V14.01,2013-08-08 11:47:00,
2013-08-08 06:48:00,80.1,70.7,29.89,SSW,208,5.0,12.0,73,0.00,,OVC021,0.00,VWS V14.01,2013-08-08 11:48:00,
2013-08-08 06:49:00,80.1,70.7,29.89,South,175,4.0,12.0,73,0.00,,OVC021,0.00,VWS V14.01,2013-08-08 11:49:00,
2013-08-08 06:50:00,80.1,70.7,29.89,SW,230,5.0,7.0,73,0.00,,OVC021,0.00,VWS V14.01,2013-08-08 11:50:00,
2013-08-08 06:51:00,80.1,70.7,29.89,South,186,7.0,12.0,73,0.00,,BKN021,0.00,VWS V14.01,2013-08-08 11:51:00,
2013-08-08 06:52:00,80.1,70.7,29.89,South,181,0.0,7.0,73,0.00,,OVC021,0.00,VWS V14.01,2013-08-08 11:52:00,
2013-08-08 06:53:00,80.1,70.7,29.89,South,180,0.0,7.0,73,0.00,,OVC021,0.00,VWS V14.01,2013-08-08 11:53:00,
2013-08-08 06:54:00,80.1,70.7,29.89,South,188,0.0,7.0,73,0.00,,OVC021,0.00,VWS V14.01,2013-08-08 11:54:00,
2013-08-08 06:55:00,80.1,70.7,29.89,South,178,0.0,7.0,73,0.00,,OVC021,0.00,VWS V14.01,2013-08-08 11:55:00,
2013-08-08 06:56:00,80.1,70.7,29.89,South,189,2.0,12.0,73,0.00,,OVC021,0.00,VWS V14.01,2013-08-08 11:56:00,
2013-08-08 06:57:00,80.1,70.7,29.89,South,182,0.0,7.0,73,0.00,,OVC021,0.00,VWS V14.01,2013-08-08 11:57:00,
2013-08-08 06:58:00,80.1,70.7,29.89,SSE,160,0.0,7.0,73,0.00,,OVC021,0.00,VWS V14.01,2013-08-08 11:58:00,
2013-08-08 06:59:00,80.1,70.7,29.90,SSE,158,0.0,7.0,73,0.00,,OVC021,0.00,VWS V14.01,2013-08-08 11:59:00,
2013-08-08 07:00:00,80.3,70.9,29.90,SSW,192,3.0,6.0,73,0.00,,OVC021,0.00,VWS V14.01,2013-08-08 12:00:00,
2013-08-08 07:01:00,80.1,70.7,29.89,South,181,0.0,7.0,73,0.00,,OVC021,0.00,VWS V14.01,2013-08-08 12:01:00,
2013-08-08 07:02:00,80.3,70.9,29.90,SSE,153,0.0,6.0,73,0.00,,OVC021,0.00,VWS V14.01,2013-08-08 12:02:00,
2013-08-08 07:03:00,80.3,70.5,29.90,South,178,1.0,6.0,72,0.00,,OVC021,0.00,VWS V14.01,2013-08-08 12:03:00,
2013-08-08 07:04:00,80.3,70.5,29.90,South,169,6.0,6.0,72,0.00,,OVC021,0.00,VWS V14.01,2013-08-08 12:04:00,
2013-08-08 07:05:00,80.3,70.5,29.90,SSE,162,3.0,12.0,72,0.00,,OVC021,0.00,VWS V14.01,2013-08-08 12:05:00,
2013-08-08 07:06:00,80.1,70.7,29.89,South,186,1.0,7.0,73,0.00,,OVC021,0.00,VWS V14.01,2013-08-08 12:06:00,
2013-08-08 07:07:00,80.3,70.5,29.90,South,175,4.0,12.0,72,0.00,,OVC021,0.00,VWS V14.01,2013-08-08 12:07:00,
2013-08-08 07:08:00,80.3,70.5,29.90,SSE,167,0.0,12.0,72,0.00,,OVC021,0.00,VWS V14.01,2013-08-08 12:08:00,
2013-08-08 07:09:00,80.3,70.5,29.90,South,177,0.0,12.0,72,0.00,,OVC021,0.00,VWS V14.01,2013-08-08 12:09:00,
2013-08-08 07:10:00,80.3,70.5,29.90,South,175,4.0,6.0,72,0.00,,OVC021,0.00,VWS V14.01,2013-08-08 12:10:00,
2013-08-08 07:11:00,80.3,70.9,29.90,SSE,162,0.0,6.0,73,0.00,,OVC021,0.00,VWS V14.01,2013-08-08 12:11:00,
2013-08-08 07:12:00,80.3,70.1,29.90,South,173,0.0,6.0,71,0.00,,OVC021,0.00,VWS V14.01,2013-08-08 12:12:00,
2013-08-08 07:13:00,80.5,70.2,29.90,South,173,0.0,6.0,71,0.00,,OVC021,0.00,VWS V14.01,2013-08-08 12:13:00,
2013-08-08 07:14:00,80.5,70.2,29.90,SSE,166,4.0,6.0,71,0.00,,OVC021,0.00,VWS V14.01,2013-08-08 12:14:00,
2013-08-08 07:15:00,80.5,70.2,29.90,SSW,192,1.0,6.0,71,0.00,,OVC021,0.00,VWS V14.01,2013-08-08 12:15:00,
2013-08-08 07:16:00,80.3,70.5,29.90,South,174,3.0,12.0,72,0.00,,OVC021,0.00,VWS V14.01,2013-08-08 12:16:00,
2013-08-08 07:17:00,80.5,70.2,29.90,SE,140,0.0,6.0,71,0.00,,OVC021,0.00,VWS V14.01,2013-08-08 12:17:00,
2013-08-08 07:18:00,80.5,70.2,29.90,SE,142,0.0,6.0,71,0.00,,OVC021,0.00,VWS V14.01,2013-08-08 12:18:00,
2013-08-08 07:19:00,80.5,70.2,29.90,South,184,5.0,6.0,71,0.00,,OVC021,0.00,VWS V14.01,2013-08-08 12:19:00,
2013-08-08 07:20:00,80.5,70.2,29.90,South,174,6.0,6.0,71,0.00,,OVC021,0.00,VWS V14.01,2013-08-08 12:20:00,
2013-08-08 07:21:00,80.3,70.1,29.90,South,186,0.0,6.0,71,0.00,,OVC021,0.00,VWS V14.01,2013-08-08 12:21:00,
2013-08-08 07:22:00,80.5,70.2,29.90,SSW,210,8.0,10.0,71,0.00,,OVC021,0.00,VWS V14.01,2013-08-08 12:22:00,
2013-08-08 07:23:00,80.7,70.4,29.90,South,184,1.0,10.0,71,0.00,,OVC021,0.00,VWS V14.01,2013-08-08 12:23:00,
2013-08-08 07:24:00,80.7,70.4,29.90,SSW,193,5.0,10.0,71,0.00,,OVC021,0.00,VWS V14.01,2013-08-08 12:24:00,
2013-08-08 07:25:00,80.7,70.4,29.90,South,184,4.0,10.0,71,0.00,,OVC021,0.00,VWS V14.01,2013-08-08 12:25:00,
2013-08-08 07:26:00,80.5,70.2,29.90,SE,140,0.0,6.0,71,0.00,,OVC021,0.00,VWS V14.01,2013-08-08 12:26:00,
2013-08-08 07:27:00,80.7,70.4,29.90,SSW,213,6.0,10.0,71,0.00,,OVC021,0.00,VWS V14.01,2013-08-08 12:27:00,
2013-08-08 07:28:00,80.7,70.4,29.90,South,174,0.0,10.0,71,0.00,,OVC021,0.00,VWS V14.01,2013-08-08 12:28:00,
2013-08-08 07:29:00,80.7,70.4,29.90,South,174,0.0,10.0,71,0.00,,OVC021,0.00,VWS V14.01,2013-08-08 12:29:00,
2013-08-08 07:30:00,80.9,70.6,29.90,SSE,167,0.0,0.0,71,0.00,,OVC021,0.00,VWS V14.01,2013-08-08 12:30:00,
2013-08-08 07:31:00,80.5,70.2,29.90,SSW,196,5.0,6.0,71,0.00,,OVC021,0.00,VWS V14.01,2013-08-08 12:31:00,
2013-08-08 07:32:00,80.9,70.6,29.90,South,175,0.0,0.0,71,0.00,,OVC021,0.00,VWS V14.01,2013-08-08 12:32:00,
2013-08-08 07:33:00,80.9,70.6,29.90,South,171,0.0,0.0,71,0.00,,OVC021,0.00,VWS V14.01,2013-08-08 12:33:00,
2013-08-08 07:34:00,80.9,70.6,29.90,South,171,0.0,0.0,71,0.00,,OVC021,0.00,VWS V14.01,2013-08-08 12:34:00,
2013-08-08 07:35:00,80.9,70.6,29.90,South,171,0.0,0.0,71,0.00,,OVC021,0.00,VWS V14.01,2013-08-08 12:35:00,
2013-08-08 07:36:00,80.7,70.4,29.90,SSW,207,2.0,10.0,71,0.00,,OVC021,0.00,VWS V14.01,2013-08-08 12:36:00,
2013-08-08 07:37:00,80.9,70.6,29.90,SSE,156,3.0,4.0,71,0.00,,OVC021,0.00,VWS V14.01,2013-08-08 12:37:00,
2013-08-08 07:38:00,80.9,70.6,29.90,South,180,0.0,4.0,71,0.00,,OVC021,0.00,VWS V14.01,2013-08-08 12:38:00,
2013-08-08 07:39:00,80.9,70.6,29.90,South,181,1.0,4.0,71,0.00,,OVC021,0.00,VWS V14.01,2013-08-08 12:39:00,
2013-08-08 07:40:00,80.9,70.6,29.90,South,180,2.0,2.0,71,0.00,,OVC021,0.00,VWS V14.01,2013-08-08 12:40:00,
2013-08-08 07:41:00,80.9,70.6,29.90,South,175,0.0,0.0,71,0.00,,OVC021,0.00,VWS V14.01,2013-08-08 12:41:00,
2013-08-08 07:42:00,81.1,70.8,29.90,SSW,196,0.0,6.0,71,0.00,,OVC021,0.00,VWS V14.01,2013-08-08 12:42:00,
2013-08-08 07:43:00,81.1,70.8,29.90,South,184,5.0,7.0,71,0.00,,OVC021,0.00,VWS V14.01,2013-08-08 12:43:00,
2013-08-08 07:44:00,80.9,70.6,29.90,South,186,1.0,7.0,71,0.00,,OVC021,0.00,VWS V14.01,2013-08-08 12:44:00,
2013-08-08 07:45:00,80.9,70.6,29.90,SSW,200,3.0,7.0,71,0.00,,OVC021,0.00,VWS V14.01,2013-08-08 12:45:00,
2013-08-08 07:46:00,80.9,70.6,29.90,SE,144,0.0,0.0,71,0.00,,OVC021,0.00,VWS V14.01,2013-08-08 12:46:00,
2013-08-08 07:47:00,80.9,70.6,29.90,South,191,0.0,7.0,71,0.00,,OVC025,0.00,VWS V14.01,2013-08-08 12:47:00,
2013-08-08 07:48:00,80.9,70.6,29.90,South,191,0.0,7.0,71,0.00,,OVC025,0.00,VWS V14.01,2013-08-08 12:48:00,
2013-08-08 07:49:00,80.9,70.6,29.90,South,191,0.0,7.0,71,0.00,,OVC025,0.00,VWS V14.01,2013-08-08 12:49:00,
2013-08-08 07:50:00,80.9,71.0,29.90,South,191,0.0,0.0,72,0.00,,OVC025,0.00,VWS V14.01,2013-08-08 12:50:00,
2013-08-08 07:51:00,81.1,70.8,29.90,SSW,198,1.0,6.0,71,0.00,,OVC021,0.00,VWS V14.01,2013-08-08 12:51:00,
2013-08-08 07:52:00,81.1,70.8,29.90,West,275,2.0,4.0,71,0.00,,OVC025,0.00,VWS V14.01,2013-08-08 12:52:00,
2013-08-08 07:53:00,81.1,70.8,29.90,South,186,0.0,4.0,71,0.00,,OVC025,0.00,VWS V14.01,2013-08-08 12:53:00,
2013-08-08 07:54:00,81.1,70.8,29.90,SSE,166,0.0,4.0,71,0.00,,OVC025,0.00,VWS V14.01,2013-08-08 12:54:00,
2013-08-08 07:55:00,81.1,70.8,29.90,SSE,166,0.0,4.0,71,0.00,,OVC025,0.00,VWS V14.01,2013-08-08 12:55:00,
2013-08-08 07:56:00,80.9,70.6,29.90,SSW,192,4.0,7.0,71,0.00,,OVC025,0.00,VWS V14.01,2013-08-08 12:56:00,
2013-08-08 07:57:00,81.1,70.4,29.90,South,182,5.0,5.0,70,0.00,,OVC025,0.00,VWS V14.01,2013-08-08 12:57:00,
2013-08-08 07:58:00,81.2,70.5,29.90,SSE,159,1.0,5.0,70,0.00,,OVC025,0.00,VWS V14.01,2013-08-08 12:58:00,
2013-08-08 07:59:00,81.2,70.5,29.90,SSE,158,4.0,5.0,70,0.00,,OVC025,0.00,VWS V14.01,2013-08-08 12:59:00,
2013-08-08 08:00:00,81.2,70.5,29.90,South,185,1.0,4.0,70,0.00,,OVC025,0.00,VWS V14.01,2013-08-08 13:00:00,
2013-08-08 08:01:00,81.1,70.8,29.90,South,191,0.0,0.0,71,0.00,,OVC025,0.00,VWS V14.01,2013-08-08 13:01:00,
2013-08-08 08:02:00,81.2,70.5,29.90,SSE,168,0.0,4.0,70,0.00,,OVC025,0.00,VWS V14.01,2013-08-08 13:02:00,
2013-08-08 08:03:00,81.2,70.5,29.90,South,169,0.0,4.0,70,0.00,,OVC025,0.00,VWS V14.01,2013-08-08 13:03:00,
2013-08-08 08:04:00,81.2,70.5,29.90,South,169,0.0,4.0,70,0.00,,OVC025,0.00,VWS V14.01,2013-08-08 13:04:00,
2013-08-08 08:05:00,81.4,70.7,29.90,SSE,167,0.0,4.0,70,0.00,,OVC025,0.00,VWS V14.01,2013-08-08 13:05:00,
2013-08-08 08:06:00,81.1,70.4,29.90,SSE,167,3.0,4.0,70,0.00,,OVC025,0.00,VWS V14.01,2013-08-08 13:06:00,
2013-08-08 08:07:00,81.2,70.5,29.90,South,189,0.0,6.0,70,0.00,,OVC025,0.00,VWS V14.01,2013-08-08 13:07:00,
2013-08-08 08:08:00,81.2,70.5,29.90,South,190,1.0,6.0,70,0.00,,OVC025,0.00,VWS V14.01,2013-08-08 13:08:00,
2013-08-08 08:09:00,81.4,70.7,29.90,SW,232,1.0,6.0,70,0.00,,OVC025,0.00,VWS V14.01,2013-08-08 13:09:00,
2013-08-08 08:10:00,81.4,70.7,29.90,SSW,198,0.0,2.0,70,0.00,,OVC025,0.00,VWS V14.01,2013-08-08 13:10:00,
2013-08-08 08:11:00,81.2,70.5,29.90,SSE,168,0.0,4.0,70,0.00,,OVC025,0.00,VWS V14.01,2013-08-08 13:11:00,
2013-08-08 08:12:00,81.4,70.7,29.90,South,190,0.0,6.0,70,0.00,,OVC025,0.00,VWS V14.01,2013-08-08 13:12:00,
2013-08-08 08:13:00,81.4,70.7,29.90,South,190,0.0,6.0,70,0.00,,OVC025,0.00,VWS V14.01,2013-08-08 13:13:00,
2013-08-08 08:14:00,81.4,70.7,29.91,South,189,0.0,6.0,70,0.00,,OVC025,0.00,VWS V14.01,2013-08-08 13:14:00,
2013-08-08 08:15:00,81.4,70.7,29.91,SSE,167,5.0,6.0,70,0.00,,OVC025,0.00,VWS V14.01,2013-08-08 13:15:00,
2013-08-08 08:16:00,81.2,70.5,29.90,South,190,0.0,6.0,70,0.00,,OVC025,0.00,VWS V14.01,2013-08-08 13:16:00,
2013-08-08 08:17:00,81.6,70.4,29.91,South,182,1.0,6.0,69,0.00,,OVC025,0.00,VWS V14.01,2013-08-08 13:17:00,
2013-08-08 08:18:00,81.6,70.4,29.91,SSW,193,5.0,7.0,69,0.00,,OVC025,0.00,VWS V14.01,2013-08-08 13:18:00,
2013-08-08 08:19:00,81.6,70.4,29.91,SSW,195,0.0,7.0,69,0.00,,OVC025,0.00,VWS V14.01,2013-08-08 13:19:00,
2013-08-08 08:20:00,81.8,70.6,29.91,SSW,193,0.0,0.0,69,0.00,,OVC025,0.00,VWS V14.01,2013-08-08 13:20:00,
2013-08-08 08:21:00,81.4,70.7,29.90,South,190,0.0,6.0,70,0.00,,OVC025,0.00,VWS V14.01,2013-08-08 13:21:00,
2013-08-08 08:22:00,82.0,70.8,29.91,South,170,0.0,0.0,69,0.00,,OVC025,0.00,VWS V14.01,2013-08-08 13:22:00,
2013-08-08 08:23:00,82.0,70.8,29.91,South,190,0.0,0.0,69,0.00,,OVC025,0.00,VWS V14.01,2013-08-08 13:23:00,
2013-08-08 08:24:00,82.0,70.8,29.91,South,180,0.0,0.0,69,0.00,,OVC025,0.00,VWS V14.01,2013-08-08 13:24:00,
2013-08-08 08:25:00,82.0,70.8,29.91,South,177,0.0,0.0,69,0.00,,OVC025,0.00,VWS V14.01,2013-08-08 13:25:00,
2013-08-08 08:26:00,81.6,70.4,29.91,South,184,3.0,6.0,69,0.00,,OVC025,0.00,VWS V14.01,2013-08-08 13:26:00,
2013-08-08 08:27:00,82.2,71.0,29.91,South,177,0.0,0.0,69,0.00,,OVC025,0.00,VWS V14.01,2013-08-08 13:27:00,
2013-08-08 08:28:00,82.2,71.0,29.91,South,173,0.0,0.0,69,0.00,,OVC025,0.00,VWS V14.01,2013-08-08 13:28:00,
2013-08-08 08:29:00,82.4,71.2,29.92,SSE,158,0.0,0.0,69,0.00,,OVC025,0.00,VWS V14.01,2013-08-08 13:29:00,
2013-08-08 08:30:00,82.4,71.2,29.92,SSE,158,0.0,0.0,69,0.00,,OVC025,0.00,VWS V14.01,2013-08-08 13:30:00,
2013-08-08 08:31:00,81.8,70.6,29.91,South,170,0.0,0.0,69,0.00,,OVC025,0.00,VWS V14.01,2013-08-08 13:31:00,
2013-08-08 08:32:00,82.4,70.8,29.92,SSE,162,1.0,6.0,68,0.00,,OVC025,0.00,VWS V14.01,2013-08-08 13:32:00,
2013-08-08 08:33:00,82.6,71.0,29.92,SSE,162,0.0,6.0,68,0.00,,OVC025,0.00,VWS V14.01,2013-08-08 13:33:00,
2013-08-08 08:34:00,82.6,71.0,29.92,SSE,152,0.0,6.0,68,0.00,,OVC025,0.00,VWS V14.01,2013-08-08 13:34:00,
2013-08-08 08:35:00,82.6,71.0,29.92,WSW,246,0.0,6.0,68,0.00,,OVC025,0.00,VWS V14.01,2013-08-08 13:35:00,
2013-08-08 08:36:00,82.2,71.0,29.91,South,177,0.0,0.0,69,0.00,,OVC025,0.00,VWS V14.01,2013-08-08 13:36:00,
2013-08-08 08:37:00,82.8,71.2,29.92,South,182,0.0,6.0,68,0.00,,SCT025,0.00,VWS V14.01,2013-08-08 13:37:00,
2013-08-08 08:38:00,82.8,71.2,29.92,South,190,7.0,7.0,68,0.00,,SCT025,0.00,VWS V14.01,2013-08-08 13:38:00,
2013-08-08 08:39:00,82.8,71.2,29.92,SSE,163,3.0,10.0,68,0.00,,SCT025,0.00,VWS V14.01,2013-08-08 13:39:00,
2013-08-08 08:40:00,82.8,71.2,29.92,SSE,163,0.0,0.0,68,0.00,,SCT025,0.00,VWS V14.01,2013-08-08 13:40:00,
2013-08-08 08:41:00,82.4,71.2,29.92,South,188,5.0,5.0,69,0.00,,OVC025,0.00,VWS V14.01,2013-08-08 13:41:00,
2013-08-08 08:42:00,82.8,71.2,29.92,South,184,3.0,3.0,68,0.00,,SCT025,0.00,VWS V14.01,2013-08-08 13:42:00,
2013-08-08 08:43:00,82.8,71.2,29.92,SSE,151,0.0,3.0,68,0.00,,SCT025,0.00,VWS V14.01,2013-08-08 13:43:00,
2013-08-08 08:44:00,82.8,71.2,29.92,SSE,159,0.0,3.0,68,0.00,,SCT025,0.00,VWS V14.01,2013-08-08 13:44:00,
2013-08-08 08:45:00,82.8,71.2,29.92,SSE,158,3.0,3.0,68,0.00,,SCT025,0.00,VWS V14.01,2013-08-08 13:45:00,
2013-08-08 08:46:00,82.8,71.2,29.92,South,184,0.0,6.0,68,0.00,,SCT025,0.00,VWS V14.01,2013-08-08 13:46:00,
2013-08-08 08:47:00,82.8,71.2,29.92,South,190,4.0,7.0,68,0.00,,SCT025,0.00,VWS V14.01,2013-08-08 13:47:00,
2013-08-08 08:48:00,82.8,71.2,29.92,South,180,0.0,7.0,68,0.00,,SCT025,0.00,VWS V14.01,2013-08-08 13:48:00,
2013-08-08 08:49:00,82.8,71.2,29.92,SSE,158,4.0,7.0,68,0.00,,SCT025,0.00,VWS V14.01,2013-08-08 13:49:00,
2013-08-08 08:50:00,82.8,70.7,29.92,South,183,0.0,0.0,67,0.00,,SCT025,0.00,VWS V14.01,2013-08-08 13:50:00,
2013-08-08 08:51:00,82.8,71.2,29.92,SE,130,0.0,3.0,68,0.00,,SCT025,0.00,VWS V14.01,2013-08-08 13:51:00,
2013-08-08 08:52:00,82.8,70.7,29.92,South,188,2.0,9.0,67,0.00,,SCT025,0.00,VWS V14.01,2013-08-08 13:52:00,
2013-08-08 08:53:00,82.8,70.7,29.92,SW,222,4.0,9.0,67,0.00,,SCT025,0.00,VWS V14.01,2013-08-08 13:53:00,
2013-08-08 08:54:00,82.8,70.7,29.92,South,175,4.0,11.0,67,0.00,,SCT025,0.00,VWS V14.01,2013-08-08 13:54:00,
2013-08-08 08:55:00,82.8,70.7,29.92,South,175,0.0,11.0,67,0.00,,SCT025,0.00,VWS V14.01,2013-08-08 13:55:00,
2013-08-08 08:56:00,82.8,71.2,29.92,SSW,194,0.0,7.0,68,0.00,,SCT025,0.00,VWS V14.01,2013-08-08 13:56:00,
2013-08-08 08:57:00,82.8,70.7,29.92,South,191,0.0,11.0,67,0.00,,SCT025,0.00,VWS V14.01,2013-08-08 13:57:00,
2013-08-08 08:58:00,83.0,70.9,29.92,South,188,0.0,11.0,67,0.00,,SCT025,0.00,VWS V14.01,2013-08-08 13:58:00,
2013-08-08 08:59:00,83.0,70.9,29.92,SW,225,2.0,11.0,67,0.00,,SCT025,0.00,VWS V14.01,2013-08-08 13:59:00,
2013-08-08 09:00:00,83.0,70.9,29.92,South,185,0.0,2.0,67,0.00,,SCT025,0.00,VWS V14.01,2013-08-08 14:00:00,
2013-08-08 09:01:00,82.8,70.7,29.92,SSE,162,0.0,9.0,67,0.00,,SCT025,0.00,VWS V14.01,2013-08-08 14:01:00,
2013-08-08 09:02:00,83.0,70.9,29.92,South,185,3.0,5.0,67,0.00,,SCT025,0.00,VWS V14.01,2013-08-08 14:02:00,
2013-08-08 09:03:00,83.2,70.7,29.92,SSE,167,3.0,6.0,66,0.00,,SCT025,0.00,VWS V14.01,2013-08-08 14:03:00,
2013-08-08 09:04:00,83.2,70.7,29.92,SSE,148,5.0,6.0,66,0.00,,SCT025,0.00,VWS V14.01,2013-08-08 14:04:00,
2013-08-08 09:05:00,83.2,70.7,29.92,SSE,161,3.0,6.0,66,0.00,,SCT025,0.00,VWS V14.01,2013-08-08 14:05:00,
2013-08-08 09:06:00,82.8,70.7,29.92,South,191,1.0,11.0,67,0.00,,SCT025,0.00,VWS V14.01,2013-08-08 14:06:00,
2013-08-08 09:07:00,83.4,70.9,29.92,South,170,3.0,6.0,66,0.00,,SCT025,0.00,VWS V14.01,2013-08-08 14:07:00,
2013-08-08 09:08:00,83.4,70.9,29.92,SSW,197,0.0,6.0,66,0.00,,SCT025,0.00,VWS V14.01,2013-08-08 14:08:00,
2013-08-08 09:09:00,83.4,70.9,29.92,South,179,4.0,6.0,66,0.00,,SCT025,0.00,VWS V14.01,2013-08-08 14:09:00,
2013-08-08 09:10:00,83.4,70.9,29.92,South,184,0.0,5.0,66,0.00,,SCT025,0.00,VWS V14.01,2013-08-08 14:10:00,
2013-08-08 09:11:00,83.0,70.9,29.92,SSE,167,0.0,5.0,67,0.00,,SCT025,0.00,VWS V14.01,2013-08-08 14:11:00,
2013-08-08 09:12:00,83.4,70.9,29.92,SSE,166,7.0,10.0,66,0.00,,SCT025,0.00,VWS V14.01,2013-08-08 14:12:00,
2013-08-08 09:13:00,83.6,71.1,29.92,South,188,6.0,11.0,66,0.00,,SCT025,0.00,VWS V14.01,2013-08-08 14:13:00,
2013-08-08 09:14:00,83.4,70.9,29.92,South,169,10.0,11.0,66,0.00,,SCT025,0.00,VWS V14.01,2013-08-08 14:14:00,
2013-08-08 09:15:00,83.4,70.9,29.92,SE,143,0.0,11.0,66,0.00,,SCT025,0.00,VWS V14.01,2013-08-08 14:15:00,
2013-08-08 09:16:00,83.4,70.9,29.92,SSE,166,2.0,6.0,66,0.00,,SCT025,0.00,VWS V14.01,2013-08-08 14:16:00,
2013-08-08 09:17:00,83.6,71.1,29.92,South,172,0.0,11.0,66,0.00,,SCT025,0.00,VWS V14.01,2013-08-08 14:17:00,
2013-08-08 09:18:00,83.6,71.1,29.92,South,174,0.0,11.0,66,0.00,,SCT025,0.00,VWS V14.01,2013-08-08 14:18:00,
2013-08-08 09:19:00,83.8,71.2,29.92,SSW,192,6.0,11.0,66,0.00,,SCT025,0.00,VWS V14.01,2013-08-08 14:19:00,
2013-08-08 09:20:00,84.0,71.4,29.92,South,188,2.0,3.0,66,0.00,,SCT025,0.00,VWS V14.01,2013-08-08 14:20:00,
2013-08-08 09:21:00,83.4,70.9,29.92,South,182,7.0,7.0,66,0.00,,SCT025,0.00,VWS V14.01,2013-08-08 14:21:00,
2013-08-08 09:22:00,84.0,71.0,29.92,South,174,3.0,5.0,65,0.00,,SCT025,0.00,VWS V14.01,2013-08-08 14:22:00,
2013-08-08 09:23:00,84.1,71.1,29.92,South,186,0.0,6.0,65,0.00,,SCT025,0.00,VWS V14.01,2013-08-08 14:23:00,
2013-08-08 09:24:00,84.1,71.1,29.92,SW,215,5.0,6.0,65,0.00,,SCT025,0.00,VWS V14.01,2013-08-08 14:24:00,
2013-08-08 09:25:00,84.1,71.1,29.92,SSW,194,9.0,9.0,65,0.00,,SCT025,0.00,VWS V14.01,2013-08-08 14:25:00,
2013-08-08 09:26:00,83.4,70.9,29.92,South,172,0.0,11.0,66,0.00,,SCT025,0.00,VWS V14.01,2013-08-08 14:26:00,
2013-08-08 09:27:00,84.0,71.0,29.92,SSE,167,1.0,9.0,65,0.00,,SCT025,0.00,VWS V14.01,2013-08-08 14:27:00,
2013-08-08 09:28:00,84.0,71.4,29.92,South,176,0.0,9.0,66,0.00,,SCT025,0.00,VWS V14.01,2013-08-08 14:28:00,
2013-08-08 09:29:00,84.0,71.4,29.92,South,182,2.0,9.0,66,0.00,,SCT025,0.00,VWS V14.01,2013-08-08 14:29:00,
2013-08-08 09:30:00,84.0,71.4,29.92,South,182,1.0,1.0,66,0.00,,SCT025,0.00,VWS V14.01,2013-08-08 14:30:00,
2013-08-08 09:31:00,84.0,71.0,29.92,SSE,163,3.0,5.0,65,0.00,,SCT025,0.00,VWS V14.01,2013-08-08 14:31:00,
2013-08-08 09:32:00,84.1,71.5,29.92,South,175,0.0,5.0,66,0.00,,SCT025,0.00,VWS V14.01,2013-08-08 14:32:00,
2013-08-08 09:33:00,84.1,71.5,29.92,SSW,193,0.0,5.0,66,0.00,,SCT025,0.00,VWS V14.01,2013-08-08 14:33:00,
2013-08-08 09:34:00,84.3,71.3,29.92,South,183,0.0,5.0,65,0.00,,SCT025,0.00,VWS V14.01,2013-08-08 14:34:00,
2013-08-08 09:35:00,84.3,71.3,29.92,SSW,204,0.0,5.0,65,0.00,,SCT025,0.00,VWS V14.01,2013-08-08 14:35:00,
2013-08-08 09:36:00,84.0,71.0,29.92,South,186,5.0,9.0,65,0.00,,SCT025,0.00,VWS V14.01,2013-08-08 14:36:00,
2013-08-08 09:37:00,84.5,71.4,29.92,South,181,0.0,6.0,65,0.00,,SCT025,0.00,VWS V14.01,2013-08-08 14:37:00,
2013-08-08 09:38:00,84.5,71.4,29.92,SSE,168,4.0,6.0,65,0.00,,SCT025,0.00,VWS V14.01,2013-08-08 14:38:00,
2013-08-08 09:39:00,84.5,71.4,29.92,South,181,0.0,6.0,65,0.00,,SCT025,0.00,VWS V14.01,2013-08-08 14:39:00,
2013-08-08 09:40:00,84.5,71.4,29.92,South,173,0.0,1.0,65,0.00,,SCT025,0.00,VWS V14.01,2013-08-08 14:40:00,
2013-08-08 09:41:00,84.0,71.4,29.92,WSW,243,0.0,5.0,66,0.00,,SCT025,0.00,VWS V14.01,2013-08-08 14:41:00,
2013-08-08 09:42:00,84.7,71.2,29.92,SSW,198,0.0,5.0,64,0.00,,SCT025,0.00,VWS V14.01,2013-08-08 14:42:00,
2013-08-08 09:43:00,84.7,71.2,29.92,SSW,193,2.0,9.0,64,0.00,,SCT025,0.00,VWS V14.01,2013-08-08 14:43:00,
2013-08-08 09:44:00,84.9,70.9,29.92,South,174,4.0,9.0,63,0.00,,SCT025,0.00,VWS V14.01,2013-08-08 14:44:00,
2013-08-08 09:45:00,84.9,70.9,29.92,SSE,165,3.0,9.0,63,0.00,,SCT025,0.00,VWS V14.01,2013-08-08 14:45:00,
2013-08-08 09:46:00,84.5,71.4,29.92,SSE,158,6.0,6.0,65,0.00,,SCT025,0.00,VWS V14.01,2013-08-08 14:46:00,
2013-08-08 09:47:00,85.1,71.1,29.92,South,169,0.0,9.0,63,0.00,,FEW025,0.00,VWS V14.01,2013-08-08 14:47:00,
2013-08-08 09:48:00,85.1,71.1,29.92,SSW,192,2.0,9.0,63,0.00,,FEW025,0.00,VWS V14.01,2013-08-08 14:48:00,
2013-08-08 09:49:00,85.3,70.8,29.92,South,181,7.0,11.0,62,0.00,,FEW025,0.00,VWS V14.01,2013-08-08 14:49:00,
2013-08-08 09:50:00,85.3,70.8,29.92,South,176,6.0,8.0,62,0.00,,FEW025,0.00,VWS V14.01,2013-08-08 14:50:00,
2013-08-08 09:51:00,84.7,71.2,29.92,SSE,159,4.0,5.0,64,0.00,,SCT025,0.00,VWS V14.01,2013-08-08 14:51:00,
2013-08-08 09:52:00,85.3,70.3,29.92,SSW,200,10.0,12.0,61,0.00,,FEW025,0.00,VWS V14.01,2013-08-08 14:52:00,
2013-08-08 09:53:00,85.3,70.8,29.92,South,190,4.0,12.0,62,0.00,,FEW025,0.00,VWS V14.01,2013-08-08 14:53:00,
2013-08-08 09:54:00,85.3,70.8,29.92,South,173,0.0,12.0,62,0.00,,FEW025,0.00,VWS V14.01,2013-08-08 14:54:00,
2013-08-08 09:55:00,85.3,70.8,29.92,South,177,6.0,12.0,62,0.00,,FEW025,0.00,VWS V14.01,2013-08-08 14:55:00,
2013-08-08 09:56:00,85.1,71.1,29.92,South,169,0.0,9.0,63,0.00,,FEW025,0.00,VWS V14.01,2013-08-08 14:56:00,
2013-08-08 09:57:00,85.3,70.3,29.92,South,182,5.0,12.0,61,0.00,,FEW025,0.00,VWS V14.01,2013-08-08 14:57:00,
2013-08-08 09:58:00,85.3,70.3,29.92,South,170,3.0,12.0,61,0.00,,FEW025,0.00,VWS V14.01,2013-08-08 14:58:00,
2013-08-08 09:59:00,85.3,70.8,29.93,SSE,167,3.0,12.0,62,0.00,,FEW025,0.00,VWS V14.01,2013-08-08 14:59:00,
2013-08-08 10:00:00,85.5,71.0,29.93,SSE,167,0.0,0.0,62,0.00,,FEW025,0.00,VWS V14.01,2013-08-08 15:00:00,
2013-08-08 10:01:00,85.3,70.3,29.92,SSW,192,10.0,12.0,61,0.00,,FEW025,0.00,VWS V14.01,2013-08-08 15:01:00,
2013-08-08 10:02:00,85.5,70.5,29.93,South,173,4.0,4.0,61,0.00,,FEW025,0.00,VWS V14.01,2013-08-08 15:02:00,
2013-08-08 10:03:00,85.7,70.7,29.93,South,173,0.0,4.0,61,0.00,,FEW025,0.00,VWS V14.01,2013-08-08 15:03:00,
2013-08-08 10:04:00,85.7,70.7,29.93,South,173,0.0,4.0,61,0.00,,FEW025,0.00,VWS V14.01,2013-08-08 15:04:00,
2013-08-08 10:05:00,85.7,70.7,29.93,SSE,164,0.0,6.0,61,0.00,,FEW025,0.00,VWS V14.01,2013-08-08 15:05:00,
2013-08-08 10:06:00,85.3,70.3,29.92,South,171,3.0,12.0,61,0.00,,FEW025,0.00,VWS V14.01,2013-08-08 15:06:00,
2013-08-08 10:07:00,85.9,70.9,29.93,SSE,154,0.0,6.0,61,0.00,,FEW025,0.00,VWS V14.01,2013-08-08 15:07:00,
2013-08-08 10:08:00,85.9,70.9,29.93,SSW,202,0.0,6.0,61,0.00,,FEW025,0.00,VWS V14.01,2013-08-08 15:08:00,
2013-08-08 10:09:00,86.1,71.1,29.93,SSE,156,0.0,6.0,61,0.00,,FEW025,0.00,VWS V14.01,2013-08-08 15:09:00,
2013-08-08 10:10:00,86.1,71.1,29.93,SSE,161,2.0,5.0,61,0.00,,FEW025,0.00,VWS V14.01,2013-08-08 15:10:00,
2013-08-08 10:11:00,85.5,70.5,29.93,South,173,3.0,3.0,61,0.00,,FEW025,0.00,VWS V14.01,2013-08-08 15:11:00,
2013-08-08 10:12:00,86.3,70.8,29.93,SE,139,0.0,5.0,60,0.00,,FEW025,0.00,VWS V14.01,2013-08-08 15:12:00,
2013-08-08 10:13:00,86.5,71.0,29.93,South,190,5.0,5.0,60,0.00,,FEW025,0.00,VWS V14.01,2013-08-08 15:13:00,
2013-08-08 10:14:00,86.7,71.2,29.92,SSW,201,2.0,5.0,60,0.00,,FEW025,0.00,VWS V14.01,2013-08-08 15:14:00,
2013-08-08 10:15:00,86.7,71.2,29.92,South,171,0.0,7.0,60,0.00,,FEW025,0.00,VWS V14.01,2013-08-08 15:15:00,
2013-08-08 10:16:00,85.9,70.9,29.93,SSE,155,0.0,6.0,61,0.00,,FEW025,0.00,VWS V14.01,2013-08-08 15:16:00,
2013-08-08 10:17:00,86.7,71.2,29.92,South,184,5.0,10.0,60,0.00,,FEW025,0.00,VWS V14.01,2013-08-08 15:17:00,
2013-08-08 10:18:00,86.7,71.2,29.92,South,177,3.0,10.0,60,0.00,,FEW025,0.00,VWS V14.01,2013-08-08 15:18:00,
2013-08-08 10:19:00,86.7,71.2,29.92,South,180,10.0,10.0,60,0.00,,FEW025,0.00,VWS V14.01,2013-08-08 15:19:00,
2013-08-08 10:20:00,86.5,71.5,29.92,South,191,5.0,5.0,61,0.00,,FEW025,0.00,VWS V14.01,2013-08-08 15:20:00,
2013-08-08 10:21:00,86.3,70.8,29.93,WSW,244,0.0,5.0,60,0.00,,FEW025,0.00,VWS V14.01,2013-08-08 15:21:00,
2013-08-08 10:22:00,86.5,71.5,29.92,South,169,0.0,5.0,61,0.00,,FEW025,0.00,VWS V14.01,2013-08-08 15:22:00,
2013-08-08 10:23:00,86.7,71.7,29.92,SSE,161,0.0,5.0,61,0.00,,FEW025,0.00,VWS V14.01,2013-08-08 15:23:00,
2013-08-08 10:24:00,87.0,71.9,29.92,SSE,161,0.0,5.0,61,0.00,,FEW025,0.00,VWS V14.01,2013-08-08 15:24:00,
2013-08-08 10:25:00,87.0,71.4,29.92,SSE,157,0.0,5.0,60,0.00,,FEW025,0.00,VWS V14.01,2013-08-08 15:25:00,
2013-08-08 10:26:00,87.0,71.4,29.92,South,187,6.0,10.0,60,0.00,,FEW025,0.00,VWS V14.01,2013-08-08 15:26:00,
2013-08-08 10:27:00,87.2,71.1,29.92,South,172,0.0,5.0,59,0.00,,FEW025,0.00,VWS V14.01,2013-08-08 15:27:00,
2013-08-08 10:28:00,87.4,70.8,29.92,SSW,202,0.0,5.0,58,0.00,,FEW025,0.00,VWS V14.01,2013-08-08 15:28:00,
2013-08-08 10:29:00,87.4,70.8,29.92,SSW,192,0.0,5.0,58,0.00,,FEW025,0.00,VWS V14.01,2013-08-08 15:29:00,
2013-08-08 10:30:00,87.4,70.8,29.92,South,180,0.0,0.0,58,0.00,,FEW025,0.00,VWS V14.01,2013-08-08 15:30:00,
2013-08-08 10:31:00,86.5,71.5,29.92,South,181,0.0,5.0,61,0.00,,FEW025,0.00,VWS V14.01,2013-08-08 15:31:00,
2013-08-08 10:32:00,87.6,71.0,29.92,SSE,150,4.0,10.0,58,0.00,,FEW025,0.00,VWS V14.01,2013-08-08 15:32:00,
2013-08-08 10:33:00,87.4,70.8,29.92,South,188,2.0,10.0,58,0.00,,FEW025,0.00,VWS V14.01,2013-08-08 15:33:00,
2013-08-08 10:34:00,87.4,70.8,29.92,SSW,194,0.0,10.0,58,0.00,,FEW025,0.00,VWS V14.01,2013-08-08 15:34:00,
2013-08-08 10:35:00,87.4,70.8,29.92,SW,221,2.0,10.0,58,0.00,,FEW025,0.00,VWS V14.01,2013-08-08 15:35:00,
2013-08-08 10:36:00,87.2,71.1,29.92,South,172,0.0,5.0,59,0.00,,FEW025,0.00,VWS V14.01,2013-08-08 15:36:00,
2013-08-08 10:37:00,87.4,70.8,29.92,South,172,2.0,11.0,58,0.00,,FEW025,0.00,VWS V14.01,2013-08-08 15:37:00,
2013-08-08 10:38:00,87.4,71.3,29.92,SE,146,1.0,11.0,59,0.00,,FEW025,0.00,VWS V14.01,2013-08-08 15:38:00,
2013-08-08 10:39:00,87.4,70.8,29.92,South,184,1.0,11.0,58,0.00,,FEW025,0.00,VWS V14.01,2013-08-08 15:39:00,
2013-08-08 10:40:00,87.6,71.0,29.92,South,188,0.0,0.0,58,0.00,,FEW025,0.00,VWS V14.01,2013-08-08 15:40:00,
2013-08-08 10:41:00,87.6,71.0,29.92,South,180,3.0,6.0,58,0.00,,FEW025,0.00,VWS V14.01,2013-08-08 15:41:00,
2013-08-08 10:42:00,87.8,71.2,29.92,SSE,161,0.0,0.0,58,0.00,,FEW025,0.00,VWS V14.01,2013-08-08 15:42:00,
2013-08-08 10:43:00,87.8,71.2,29.92,South,184,1.0,4.0,58,0.00,,FEW025,0.00,VWS V14.01,2013-08-08 15:43:00,
2013-08-08 10:44:00,87.8,71.2,29.92,SSE,163,3.0,6.0,58,0.00,,FEW025,0.00,VWS V14.01,2013-08-08 15:44:00,
2013-08-08 10:45:00,87.8,71.2,29.92,SSE,167,5.0,6.0,58,0.00,,FEW025,0.00,VWS V14.01,2013-08-08 15:45:00,
2013-08-08 10:46:00,87.4,70.8,29.92,South,188,0.0,11.0,58,0.00,,FEW025,0.00,VWS V14.01,2013-08-08 15:46:00,
2013-08-08 10:47:00,88.0,71.4,29.92,South,180,3.0,7.0,58,0.00,,CLR,0.00,VWS V14.01,2013-08-08 15:47:00,
2013-08-08 10:48:00,88.0,70.9,29.92,South,185,5.0,8.0,57,0.00,,CLR,0.00,VWS V14.01,2013-08-08 15:48:00,
2013-08-08 10:49:00,88.0,70.9,29.92,SSW,213,5.0,9.0,57,0.00,,CLR,0.00,VWS V14.01,2013-08-08 15:49:00,
2013-08-08 10:50:00,88.0,70.9,29.92,South,185,0.0,0.0,57,0.00,,CLR,0.00,VWS V14.01,2013-08-08 15:50:00,
2013-08-08 10:51:00,87.6,71.5,29.92,SSE,161,0.0,0.0,59,0.00,,FEW025,0.00,VWS V14.01,2013-08-08 15:51:00,
2013-08-08 10:52:00,88.0,70.9,29.92,South,175,4.0,12.0,57,0.00,,CLR,0.00,VWS V14.01,2013-08-08 15:52:00,
2013-08-08 10:53:00,88.0,70.9,29.92,South,173,5.0,12.0,57,0.00,,CLR,0.00,VWS V14.01,2013-08-08 15:53:00,
2013-08-08 10:54:00,88.0,70.9,29.92,SSE,163,0.0,12.0,57,0.00,,CLR,0.00,VWS V14.01,2013-08-08 15:54:00,
2013-08-08 10:55:00,88.2,71.1,29.92,SSE,164,4.0,12.0,57,0.00,,CLR,0.00,VWS V14.01,2013-08-08 15:55:00,
2013-08-08 10:56:00,88.0,71.4,29.92,South,176,0.0,7.0,58,0.00,,CLR,0.00,VWS V14.01,2013-08-08 15:56:00,
2013-08-08 10:57:00,88.4,71.2,29.92,SSW,200,6.0,12.0,57,0.00,,CLR,0.00,VWS V14.01,2013-08-08 15:57:00,
2013-08-08 10:58:00,88.4,71.2,29.92,ESE,123,4.0,12.0,57,0.00,,CLR,0.00,VWS V14.01,2013-08-08 15:58:00,
2013-08-08 10:59:00,88.6,70.9,29.92,South,180,4.0,12.0,56,0.00,,CLR,0.00,VWS V14.01,2013-08-08 15:59:00,
2013-08-08 11:00:00,88.6,70.9,29.92,South,190,2.0,6.0,56,0.00,,CLR,0.00,VWS V14.01,2013-08-08 16:00:00,
2013-08-08 11:01:00,88.0,70.9,29.92,SSE,155,3.0,12.0,57,0.00,,CLR,0.00,VWS V14.01,2013-08-08 16:01:00,
2013-08-08 11:02:00,88.8,70.6,29.92,South,185,0.0,6.0,55,0.00,,CLR,0.00,VWS V14.01,2013-08-08 16:02:00,
2013-08-08 11:03:00,89.0,70.8,29.92,SSW,195,0.0,6.0,55,0.00,,CLR,0.00,VWS V14.01,2013-08-08 16:03:00,
2013-08-08 11:04:00,89.3,70.5,29.92,South,189,0.0,8.0,54,0.00,,CLR,0.00,VWS V14.01,2013-08-08 16:04:00,
2013-08-08 11:05:00,89.3,70.5,29.92,South,189,0.0,8.0,54,0.00,,CLR,0.00,VWS V14.01,2013-08-08 16:05:00,
2013-08-08 11:06:00,88.4,71.2,29.92,SSW,193,6.0,12.0,57,0.00,,CLR,0.00,VWS V14.01,2013-08-08 16:06:00,
2013-08-08 11:07:00,89.5,70.7,29.92,SSW,198,2.0,8.0,54,0.00,,CLR,0.00,VWS V14.01,2013-08-08 16:07:00,
2013-08-08 11:08:00,89.5,70.7,29.92,SSE,151,3.0,8.0,54,0.00,,CLR,0.00,VWS V14.01,2013-08-08 16:08:00,
2013-08-08 11:09:00,89.7,70.9,29.92,SSE,156,0.0,8.0,54,0.00,,CLR,0.00,VWS V14.01,2013-08-08 16:09:00,
2013-08-08 11:10:00,89.7,70.9,29.92,South,190,3.0,6.0,54,0.00,,CLR,0.00,VWS V14.01,2013-08-08 16:10:00,
2013-08-08 11:11:00,88.8,70.6,29.92,South,176,3.0,6.0,55,0.00,,CLR,0.00,VWS V14.01,2013-08-08 16:11:00,
2013-08-08 11:12:00,89.9,71.0,29.92,South,180,7.0,9.0,54,0.00,,CLR,0.00,VWS V14.01,2013-08-08 16:12:00,
2013-08-08 11:13:00,90.1,71.2,29.92,WSW,238,4.0,9.0,54,0.00,,CLR,0.00,VWS V14.01,2013-08-08 16:13:00,
2013-08-08 11:14:00,90.1,70.7,29.92,South,179,0.0,9.0,53,0.00,,CLR,0.00,VWS V14.01,2013-08-08 16:14:00,
2013-08-08 11:15:00,90.1,70.7,29.92,South,184,0.0,9.0,53,0.00,,CLR,0.00,VWS V14.01,2013-08-08 16:15:00,
2013-08-08 11:16:00,89.5,70.7,29.92,South,188,6.0,8.0,54,0.00,,CLR,0.00,VWS V14.01,2013-08-08 16:16:00,
2013-08-08 11:17:00,90.1,70.7,29.92,ESE,121,4.0,9.0,53,0.00,,CLR,0.00,VWS V14.01,2013-08-08 16:17:00,
2013-08-08 11:18:00,90.1,70.7,29.92,ESE,121,4.0,9.0,53,0.00,,CLR,0.00,VWS V14.01,2013-08-08 16:18:00,
2013-08-08 11:19:00,90.3,70.9,29.92,SSW,198,0.0,9.0,53,0.00,,CLR,0.00,VWS V14.01,2013-08-08 16:19:00,
2013-08-08 11:20:00,90.5,71.1,29.92,South,172,1.0,5.0,53,0.00,,CLR,0.00,VWS V14.01,2013-08-08 16:20:00,
2013-08-08 11:21:00,89.9,71.0,29.92,SSE,150,0.0,9.0,54,0.00,,CLR,0.00,VWS V14.01,2013-08-08 16:21:00,
2013-08-08 11:22:00,90.7,71.2,29.92,SSW,213,1.0,5.0,53,0.00,,CLR,0.00,VWS V14.01,2013-08-08 16:22:00,
2013-08-08 11:23:00,90.7,70.7,29.92,South,186,5.0,6.0,52,0.00,,CLR,0.00,VWS V14.01,2013-08-08 16:23:00,
2013-08-08 11:24:00,90.7,70.7,29.92,South,182,2.0,6.0,52,0.00,,CLR,0.00,VWS V14.01,2013-08-08 16:24:00,
2013-08-08 11:25:00,90.7,70.7,29.92,SSW,201,6.0,6.0,52,0.00,,CLR,0.00,VWS V14.01,2013-08-08 16:25:00,
2013-08-08 11:26:00,90.1,70.7,29.92,ESE,121,4.0,9.0,53,0.00,,CLR,0.00,VWS V14.01,2013-08-08 16:26:00,
2013-08-08 11:27:00,91.0,70.4,29.92,SSE,154,5.0,9.0,51,0.00,,CLR,0.00,VWS V14.01,2013-08-08 16:27:00,
2013-08-08 11:28:00,91.0,70.4,29.92,SSE,164,4.0,9.0,51,0.00,,CLR,0.00,VWS V14.01,2013-08-08 16:28:00,
2013-08-08 11:29:00,91.0,70.4,29.92,South,176,1.0,9.0,51,0.00,,CLR,0.00,VWS V14.01,2013-08-08 16:29:00,
2013-08-08 11:30:00,91.0,70.4,29.92,South,182,2.0,5.0,51,0.00,,CLR,0.00,VWS V14.01,2013-08-08 16:30:00,
2013-08-08 11:31:00,90.7,71.2,29.92,South,171,0.0,5.0,53,0.00,,CLR,0.00,VWS V14.01,2013-08-08 16:31:00,
2013-08-08 11:32:00,90.7,70.7,29.92,South,182,2.0,5.0,52,0.00,,CLR,0.00,VWS V14.01,2013-08-08 16:32:00,
2013-08-08 11:33:00,91.0,70.9,29.92,South,175,11.0,11.0,52,0.00,,CLR,0.00,VWS V14.01,2013-08-08 16:33:00,
2013-08-08 11:34:00,91.0,70.9,29.92,SSE,166,9.0,11.0,52,0.00,,CLR,0.00,VWS V14.01,2013-08-08 16:34:00,
2013-08-08 11:35:00,91.0,70.9,29.92,South,184,5.0,11.0,52,0.00,,CLR,0.00,VWS V14.01,2013-08-08 16:35:00,
2013-08-08 11:36:00,91.0,70.9,29.92,South,178,2.0,9.0,52,0.00,,CLR,0.00,VWS V14.01,2013-08-08 16:36:00,
2013-08-08 11:37:00,90.5,70.5,29.92,South,175,0.0,11.0,52,0.00,,CLR,0.00,VWS V14.01,2013-08-08 16:37:00,
2013-08-08 11:38:00,90.5,70.5,29.92,South,175,0.0,11.0,52,0.00,,CLR,0.00,VWS V14.01,2013-08-08 16:38:00,
2013-08-08 11:39:00,90.5,70.5,29.92,SE,132,0.0,11.0,52,0.00,,CLR,0.00,VWS V14.01,2013-08-08 16:39:00,
2013-08-08 11:40:00,90.7,70.7,29.92,ESE,117,6.0,10.0,52,0.00,,CLR,0.00,VWS V14.01,2013-08-08 16:40:00,
2013-08-08 11:41:00,90.7,70.7,29.92,South,182,0.0,5.0,52,0.00,,CLR,0.00,VWS V14.01,2013-08-08 16:41:00,
2013-08-08 11:42:00,91.0,70.4,29.92,South,171,5.0,10.0,51,0.00,,CLR,0.00,VWS V14.01,2013-08-08 16:42:00,
2013-08-08 11:43:00,91.0,70.9,29.92,South,183,4.0,11.0,52,0.00,,CLR,0.00,VWS V14.01,2013-08-08 16:43:00,
2013-08-08 11:44:00,91.0,70.9,29.92,SW,222,0.0,11.0,52,0.00,,CLR,0.00,VWS V14.01,2013-08-08 16:44:00,
2013-08-08 11:45:00,91.0,70.4,29.92,SSE,150,3.0,11.0,51,0.00,,CLR,0.00,VWS V14.01,2013-08-08 16:45:00,
2013-08-08 11:46:00,90.7,70.7,29.92,South,175,0.0,11.0,52,0.00,,CLR,0.00,VWS V14.01,2013-08-08 16:46:00,
2013-08-08 11:47:00,91.2,70.6,29.92,South,177,0.0,11.0,51,0.00,,CLR,0.00,VWS V14.01,2013-08-08 16:47:00,
2013-08-08 11:48:00,91.2,70.0,29.92,SE,128,2.0,11.0,50,0.00,,CLR,0.00,VWS V14.01,2013-08-08 16:48:00,
2013-08-08 11:49:00,91.2,70.0,29.92,SSE,160,3.0,11.0,50,0.00,,CLR,0.00,VWS V14.01,2013-08-08 16:49:00,
2013-08-08 11:50:00,91.4,70.2,29.92,South,177,0.0,4.0,50,0.00,,CLR,0.00,VWS V14.01,2013-08-08 16:50:00,
2013-08-08 11:51:00,90.7,70.1,29.92,SE,140,0.0,10.0,51,0.00,,CLR,0.00,VWS V14.01,2013-08-08 16:51:00,
2013-08-08 11:52:00,91.4,70.7,29.92,SSE,167,2.0,6.0,51,0.00,,CLR,0.00,VWS V14.01,2013-08-08 16:52:00,
2013-08-08 11:53:00,91.6,70.3,29.92,South,179,0.0,6.0,50,0.00,,CLR,0.00,VWS V14.01,2013-08-08 16:53:00,
2013-08-08 11:54:00,91.8,70.5,29.92,SSW,199,7.0,7.0,50,0.00,,CLR,0.00,VWS V14.01,2013-08-08 16:54:00,
2013-08-08 11:55:00,91.8,69.9,29.92,South,189,3.0,7.0,49,0.00,,CLR,0.00,VWS V14.01,2013-08-08 16:55:00,
2013-08-08 11:56:00,91.0,70.4,29.92,South,184,1.0,11.0,51,0.00,,CLR,0.00,VWS V14.01,2013-08-08 16:56:00,
2013-08-08 11:57:00,92.1,70.2,29.92,South,175,12.0,12.0,49,0.00,,CLR,0.00,VWS V14.01,2013-08-08 16:57:00,
2013-08-08 11:58:00,92.1,69.6,29.92,South,184,2.0,12.0,48,0.00,,CLR,0.00,VWS V14.01,2013-08-08 16:58:00,
2013-08-08 11:59:00,92.1,69.6,29.92,South,178,4.0,12.0,48,0.00,,CLR,0.00,VWS V14.01,2013-08-08 16:59:00,
2013-08-08 12:00:00,92.1,69.6,29.92,SSW,198,6.0,10.0,48,0.00,,CLR,0.00,VWS V14.01,2013-08-08 17:00:00,
2013-08-08 12:01:00,91.4,70.7,29.92,South,178,3.0,6.0,51,0.00,,CLR,0.00,VWS V14.01,2013-08-08 17:01:00,
2013-08-08 12:02:00,92.1,69.6,29.92,South,178,4.0,10.0,48,0.00,,CLR,0.00,VWS V14.01,2013-08-08 17:02:00,
2013-08-08 12:03:00,91.8,69.3,29.92,South,180,2.0,10.0,48,0.00,,CLR,0.00,VWS V14.01,2013-08-08 17:03:00,
2013-08-08 12:04:00,92.1,69.6,29.92,South,188,2.0,10.0,48,0.00,,CLR,0.00,VWS V14.01,2013-08-08 17:04:00,
2013-08-08 12:05:00,92.1,69.6,29.92,South,185,0.0,10.0,48,0.00,,CLR,0.00,VWS V14.01,2013-08-08 17:05:00,
2013-08-08 12:06:00,92.1,70.2,29.92,SSE,149,0.0,7.0,49,0.00,,CLR,0.00,VWS V14.01,2013-08-08 17:06:00,
2013-08-08 12:07:00,91.8,69.3,29.92,South,185,0.0,10.0,48,0.00,,CLR,0.00,VWS V14.01,2013-08-08 17:07:00,
2013-08-08 12:08:00,91.8,69.9,29.92,SSE,164,2.0,10.0,49,0.00,,CLR,0.00,VWS V14.01,2013-08-08 17:08:00,
2013-08-08 12:09:00,91.8,69.9,29.92,SE,138,2.0,10.0,49,0.00,,CLR,0.00,VWS V14.01,2013-08-08 17:09:00,
2013-08-08 12:10:00,92.1,69.6,29.92,SSE,165,2.0,4.0,48,0.00,,CLR,0.00,VWS V14.01,2013-08-08 17:10:00,
2013-08-08 12:11:00,92.1,70.2,29.92,SSE,168,10.0,10.0,49,0.00,,CLR,0.00,VWS V14.01,2013-08-08 17:11:00,
2013-08-08 12:12:00,92.1,69.6,29.92,South,181,0.0,4.0,48,0.00,,CLR,0.00,VWS V14.01,2013-08-08 17:12:00,
2013-08-08 12:13:00,92.1,69.6,29.92,South,181,0.0,4.0,48,0.00,,CLR,0.00,VWS V14.01,2013-08-08 17:13:00,
2013-08-08 12:14:00,92.3,69.8,29.91,SSW,198,0.0,4.0,48,0.00,,CLR,0.00,VWS V14.01,2013-08-08 17:14:00,
2013-08-08 12:15:00,92.3,69.8,29.91,SSW,194,0.0,4.0,48,0.00,,CLR,0.00,VWS V14.01,2013-08-08 17:15:00,
2013-08-08 12:16:00,91.8,69.3,29.92,South,185,0.0,10.0,48,0.00,,CLR,0.00,VWS V14.01,2013-08-08 17:16:00,
2013-08-08 12:17:00,92.7,70.2,29.91,SSE,153,2.0,4.0,48,0.00,,CLR,0.00,VWS V14.01,2013-08-08 17:17:00,
2013-08-08 12:18:00,92.9,70.3,29.91,SSE,153,0.0,4.0,48,0.00,,CLR,0.00,VWS V14.01,2013-08-08 17:18:00,
2013-08-08 12:19:00,92.9,70.3,29.91,SSE,168,0.0,4.0,48,0.00,,CLR,0.00,VWS V14.01,2013-08-08 17:19:00,
2013-08-08 12:20:00,93.2,70.6,29.91,South,187,0.0,6.0,48,0.00,,CLR,0.00,VWS V14.01,2013-08-08 17:20:00,
2013-08-08 12:21:00,92.1,69.6,29.92,South,181,0.0,4.0,48,0.00,,CLR,0.00,VWS V14.01,2013-08-08 17:21:00,
2013-08-08 12:22:00,93.4,70.8,29.91,SSW,199,0.0,6.0,48,0.00,,CLR,0.00,VWS V14.01,2013-08-08 17:22:00,
2013-08-08 12:23:00,93.4,70.8,29.91,South,186,7.0,7.0,48,0.00,,CLR,0.00,VWS V14.01,2013-08-08 17:23:00,
2013-08-08 12:24:00,93.6,71.0,29.91,SE,138,0.0,7.0,48,0.00,,CLR,0.00,VWS V14.01,2013-08-08 17:24:00,
2013-08-08 12:25:00,93.6,70.3,29.91,South,174,0.0,7.0,47,0.00,,CLR,0.00,VWS V14.01,2013-08-08 17:25:00,
2013-08-08 12:26:00,92.7,70.2,29.91,SSE,153,4.0,4.0,48,0.00,,CLR,0.00,VWS V14.01,2013-08-08 17:26:00,
2013-08-08 12:27:00,94.0,70.1,29.91,SSE,148,4.0,8.0,46,0.00,,CLR,0.00,VWS V14.01,2013-08-08 17:27:00,
2013-08-08 12:28:00,94.0,70.1,29.91,South,190,1.0,9.0,46,0.00,,CLR,0.00,VWS V14.01,2013-08-08 17:28:00,
2013-08-08 12:29:00,94.0,70.7,29.91,SSW,206,1.0,9.0,47,0.00,,CLR,0.00,VWS V14.01,2013-08-08 17:29:00,
2013-08-08 12:30:00,94.0,70.7,29.91,South,171,0.0,0.0,47,0.00,,CLR,0.00,VWS V14.01,2013-08-08 17:30:00,
2013-08-08 12:31:00,93.2,70.6,29.91,SSW,202,5.0,6.0,48,0.00,,CLR,0.00,VWS V14.01,2013-08-08 17:31:00,
2013-08-08 12:32:00,94.5,69.9,29.91,South,171,0.0,0.0,45,0.00,,CLR,0.00,VWS V14.01,2013-08-08 17:32:00,
2013-08-08 12:33:00,94.5,69.9,29.91,South,186,0.0,10.0,45,0.00,,CLR,0.00,VWS V14.01,2013-08-08 17:33:00,
2013-08-08 12:34:00,94.5,69.9,29.91,South,188,2.0,10.0,45,0.00,,CLR,0.00,VWS V14.01,2013-08-08 17:34:00,
2013-08-08 12:35:00,94.5,69.9,29.91,South,187,0.0,10.0,45,0.00,,CLR,0.00,VWS V14.01,2013-08-08 17:35:00,
2013-08-08 12:36:00,94.0,70.7,29.91,South,173,5.0,8.0,47,0.00,,CLR,0.00,VWS V14.01,2013-08-08 17:36:00,
2013-08-08 12:37:00,94.5,69.2,29.91,SSE,167,6.0,12.0,44,0.00,,CLR,0.00,VWS V14.01,2013-08-08 17:37:00,
2013-08-08 12:38:00,94.3,69.1,29.91,South,170,6.0,12.0,44,0.00,,CLR,0.00,VWS V14.01,2013-08-08 17:38:00,
2013-08-08 12:39:00,94.0,69.4,29.91,SE,138,4.0,12.0,45,0.00,,CLR,0.00,VWS V14.01,2013-08-08 17:39:00,
2013-08-08 12:40:00,94.0,68.8,29.91,East,86,0.0,3.0,44,0.00,,CLR,0.00,VWS V14.01,2013-08-08 17:40:00,
2013-08-08 12:41:00,94.5,70.5,29.91,South,171,0.0,0.0,46,0.00,,CLR,0.00,VWS V14.01,2013-08-08 17:41:00,
2013-08-08 12:42:00,94.5,69.2,29.91,SSE,167,4.0,11.0,44,0.00,,CLR,0.00,VWS V14.01,2013-08-08 17:42:00,
2013-08-08 12:43:00,94.5,69.2,29.91,SSE,165,4.0,11.0,44,0.00,,CLR,0.00,VWS V14.01,2013-08-08 17:43:00,
2013-08-08 12:44:00,94.7,69.4,29.90,South,180,4.0,11.0,44,0.00,,CLR,0.00,VWS V14.01,2013-08-08 17:44:00,
2013-08-08 12:45:00,94.5,68.6,29.90,SSW,195,4.0,11.0,43,0.00,,CLR,0.00,VWS V14.01,2013-08-08 17:45:00,
2013-08-08 12:46:00,94.5,69.2,29.91,SSE,150,7.0,12.0,44,0.00,,CLR,0.00,VWS V14.01,2013-08-08 17:46:00,
2013-08-08 12:47:00,94.5,69.2,29.90,South,171,2.0,11.0,44,0.00,,CLR,0.00,VWS V14.01,2013-08-08 17:47:00,
2013-08-08 12:48:00,94.5,69.2,29.90,South,173,6.0,11.0,44,0.00,,CLR,0.00,VWS V14.01,2013-08-08 17:48:00,
2013-08-08 12:49:00,94.5,69.2,29.90,South,188,6.0,11.0,44,0.00,,CLR,0.00,VWS V14.01,2013-08-08 17:49:00,
2013-08-08 12:50:00,94.7,68.7,29.90,SSE,155,2.0,2.0,43,0.00,,CLR,0.00,VWS V14.01,2013-08-08 17:50:00,
2013-08-08 12:51:00,94.3,69.1,29.91,South,181,6.0,11.0,44,0.00,,CLR,0.00,VWS V14.01,2013-08-08 17:51:00,
2013-08-08 12:52:00,94.9,68.9,29.90,ESE,113,0.0,10.0,43,0.00,,CLR,0.00,VWS V14.01,2013-08-08 17:52:00,
2013-08-08 12:53:00,95.1,69.1,29.90,SSW,199,5.0,10.0,43,0.00,,CLR,0.00,VWS V14.01,2013-08-08 17:53:00,
2013-08-08 12:54:00,95.1,68.4,29.90,WSW,245,0.0,10.0,42,0.00,,CLR,0.00,VWS V14.01,2013-08-08 17:54:00,
2013-08-08 12:55:00,95.4,68.0,29.90,SSW,195,0.0,10.0,41,0.00,,CLR,0.00,VWS V14.01,2013-08-08 17:55:00,
2013-08-08 12:56:00,94.5,69.2,29.90,South,182,4.0,11.0,44,0.00,,CLR,0.00,VWS V14.01,2013-08-08 17:56:00,
2013-08-08 12:57:00,95.4,68.7,29.90,SE,138,0.0,10.0,42,0.00,,CLR,0.00,VWS V14.01,2013-08-08 17:57:00,
2013-08-08 12:58:00,95.6,68.9,29.90,SSW,207,8.0,10.0,42,0.00,,CLR,0.00,VWS V14.01,2013-08-08 17:58:00,
2013-08-08 12:59:00,95.6,68.2,29.90,SSW,194,4.0,10.0,41,0.00,,CLR,0.00,VWS V14.01,2013-08-08 17:59:00,
2013-08-08 13:00:00,95.9,67.7,29.90,SW,215,7.0,13.0,40,0.00,,CLR,0.00,VWS V14.01,2013-08-08 18:00:00,
2013-08-08 13:01:00,94.9,68.9,29.90,ESE,113,2.0,10.0,43,0.00,,CLR,0.00,VWS V14.01,2013-08-08 18:01:00,
2013-08-08 13:02:00,95.6,67.4,29.90,SSE,165,0.0,13.0,40,0.00,,CLR,0.00,VWS V14.01,2013-08-08 18:02:00,
2013-08-08 13:03:00,95.9,67.7,29.90,SSW,198,4.0,13.0,40,0.00,,CLR,0.00,VWS V14.01,2013-08-08 18:03:00,
2013-08-08 13:04:00,95.9,67.0,29.90,South,175,5.0,13.0,39,0.00,,CLR,0.00,VWS V14.01,2013-08-08 18:04:00,
2013-08-08 13:05:00,96.1,67.2,29.90,SE,141,0.0,13.0,39,0.00,,CLR,0.00,VWS V14.01,2013-08-08 18:05:00,
2013-08-08 13:06:00,95.4,68.0,29.90,ESE,109,4.0,10.0,41,0.00,,CLR,0.00,VWS V14.01,2013-08-08 18:06:00,
2013-08-08 13:07:00,96.1,67.9,29.90,SE,133,2.0,13.0,40,0.00,,CLR,0.00,VWS V14.01,2013-08-08 18:07:00,
2013-08-08 13:08:00,96.3,68.1,29.90,South,171,5.0,13.0,40,0.00,,CLR,0.00,VWS V14.01,2013-08-08 18:08:00,
2013-08-08 13:09:00,96.3,68.1,29.90,SE,140,0.0,13.0,40,0.00,,CLR,0.00,VWS V14.01,2013-08-08 18:09:00,
2013-08-08 13:10:00,96.6,68.3,29.90,SE,128,3.0,6.0,40,0.00,,CLR,0.00,VWS V14.01,2013-08-08 18:10:00,
2013-08-08 13:11:00,95.6,68.2,29.90,South,182,5.0,13.0,41,0.00,,CLR,0.00,VWS V14.01,2013-08-08 18:11:00,
2013-08-08 13:12:00,96.8,69.2,29.90,SE,140,4.0,6.0,41,0.00,,CLR,0.00,VWS V14.01,2013-08-08 18:12:00,
2013-08-08 13:13:00,96.8,69.2,29.90,SE,141,0.0,6.0,41,0.00,,CLR,0.00,VWS V14.01,2013-08-08 18:13:00,
2013-08-08 13:14:00,97.1,69.5,29.89,SE,130,2.0,6.0,41,0.00,,CLR,0.00,VWS V14.01,2013-08-08 18:14:00,
2013-08-08 13:15:00,97.1,69.5,29.89,SSE,159,0.0,6.0,41,0.00,,CLR,0.00,VWS V14.01,2013-08-08 18:15:00,
2013-08-08 13:16:00,96.1,67.9,29.90,ENE,78,4.0,13.0,40,0.00,,CLR,0.00,VWS V14.01,2013-08-08 18:16:00,
2013-08-08 13:17:00,97.3,69.0,29.89,SSW,198,7.0,10.0,40,0.00,,CLR,0.00,VWS V14.01,2013-08-08 18:17:00,
2013-08-08 13:18:00,97.3,67.5,29.89,South,190,5.0,11.0,38,0.00,,CLR,0.00,VWS V14.01,2013-08-08 18:18:00,
2013-08-08 13:19:00,97.3,67.5,29.89,ESE,122,3.0,11.0,38,0.00,,CLR,0.00,VWS V14.01,2013-08-08 18:19:00,
2013-08-08 13:20:00,97.5,67.6,29.89,SSW,196,7.0,10.0,38,0.00,,CLR,0.00,VWS V14.01,2013-08-08 18:20:00,
2013-08-08 13:21:00,96.6,68.3,29.90,SE,125,2.0,6.0,40,0.00,,CLR,0.00,VWS V14.01,2013-08-08 18:21:00,
2013-08-08 13:22:00,97.5,67.6,29.89,South,171,0.0,10.0,38,0.00,,CLR,0.00,VWS V14.01,2013-08-08 18:22:00,
2013-08-08 13:23:00,97.5,67.6,29.89,ESE,122,1.0,10.0,38,0.00,,CLR,0.00,VWS V14.01,2013-08-08 18:23:00,
2013-08-08 13:24:00,97.8,66.3,29.89,South,190,4.0,10.0,36,0.00,,CLR,0.00,VWS V14.01,2013-08-08 18:24:00,
2013-08-08 13:25:00,97.8,66.3,29.89,SSW,201,7.0,10.0,36,0.00,,CLR,0.00,VWS V14.01,2013-08-08 18:25:00,
2013-08-08 13:26:00,97.3,69.0,29.89,South,178,6.0,6.0,40,0.00,,CLR,0.00,VWS V14.01,2013-08-08 18:26:00,
2013-08-08 13:27:00,97.8,66.3,29.89,South,184,3.0,10.0,36,0.00,,CLR,0.00,VWS V14.01,2013-08-08 18:27:00,
2013-08-08 13:28:00,97.8,66.3,29.89,South,175,3.0,10.0,36,0.00,,CLR,0.00,VWS V14.01,2013-08-08 18:28:00,
2013-08-08 13:29:00,97.8,67.1,29.88,South,174,6.0,10.0,37,0.00,,CLR,0.00,VWS V14.01,2013-08-08 18:29:00,
2013-08-08 13:30:00,97.5,68.4,29.88,SSW,198,3.0,6.0,39,0.00,,CLR,0.00,VWS V14.01,2013-08-08 18:30:00,
2013-08-08 13:31:00,97.3,67.5,29.89,SW,229,0.0,10.0,38,0.00,,CLR,0.00,VWS V14.01,2013-08-08 18:31:00,
2013-08-08 13:32:00,97.5,68.4,29.88,SSE,159,3.0,9.0,39,0.00,,CLR,0.00,VWS V14.01,2013-08-08 18:32:00,
2013-08-08 13:33:00,97.5,67.6,29.88,SSE,148,5.0,9.0,38,0.00,,CLR,0.00,VWS V14.01,2013-08-08 18:33:00,
2013-08-08 13:34:00,97.5,67.6,29.88,South,188,5.0,10.0,38,0.00,,CLR,0.00,VWS V14.01,2013-08-08 18:34:00,
2013-08-08 13:35:00,97.8,67.1,29.88,SSE,160,5.0,10.0,37,0.00,,CLR,0.00,VWS V14.01,2013-08-08 18:35:00,
2013-08-08 13:36:00,97.8,66.3,29.89,SSW,198,4.0,10.0,36,0.00,,CLR,0.00,VWS V14.01,2013-08-08 18:36:00,
2013-08-08 13:37:00,97.8,64.7,29.88,SSW,205,0.0,10.0,34,0.00,,CLR,0.00,VWS V14.01,2013-08-08 18:37:00,
2013-08-08 13:38:00,98.0,65.7,29.88,ENE,78,0.0,10.0,35,0.00,,CLR,0.00,VWS V14.01,2013-08-08 18:38:00,
2013-08-08 13:39:00,98.0,65.7,29.88,South,184,3.0,10.0,35,0.00,,CLR,0.00,VWS V14.01,2013-08-08 18:39:00,
2013-08-08 13:40:00,98.0,66.5,29.88,ESE,119,3.0,5.0,36,0.00,,CLR,0.00,VWS V14.01,2013-08-08 18:40:00,
2013-08-08 13:41:00,97.3,68.2,29.88,SSE,165,6.0,9.0,39,0.00,,CLR,0.00,VWS V14.01,2013-08-08 18:41:00,
2013-08-08 13:42:00,98.2,66.7,29.88,South,169,4.0,11.0,36,0.00,,CLR,0.00,VWS V14.01,2013-08-08 18:42:00,
2013-08-08 13:43:00,98.0,66.5,29.88,South,170,3.0,11.0,36,0.00,,CLR,0.00,VWS V14.01,2013-08-08 18:43:00,
2013-08-08 13:44:00,98.0,67.3,29.88,SE,138,2.0,11.0,37,0.00,,CLR,0.00,VWS V14.01,2013-08-08 18:44:00,
2013-08-08 13:45:00,98.0,67.3,29.88,SSE,163,5.0,14.0,37,0.00,,CLR,0.00,VWS V14.01,2013-08-08 18:45:00,
2013-08-08 13:46:00,97.8,65.5,29.88,SSW,203,5.0,10.0,35,0.00,,CLR,0.00,VWS V14.01,2013-08-08 18:46:00,
2013-08-08 13:47:00,98.0,66.5,29.88,SE,130,1.0,14.0,36,0.00,,CLR,0.00,VWS V14.01,2013-08-08 18:47:00,
2013-08-08 13:48:00,98.0,67.3,29.88,South,174,4.0,14.0,37,0.00,,CLR,0.00,VWS V14.01,2013-08-08 18:48:00,
2013-08-08 13:49:00,98.2,67.5,29.88,SSE,155,13.0,14.0,37,0.00,,CLR,0.00,VWS V14.01,2013-08-08 18:49:00,
2013-08-08 13:50:00,98.2,67.5,29.88,SSE,155,4.0,9.0,37,0.00,,CLR,0.00,VWS V14.01,2013-08-08 18:50:00,
2013-08-08 13:51:00,98.2,66.7,29.88,NNE,24,3.0,11.0,36,0.00,,CLR,0.00,VWS V14.01,2013-08-08 18:51:00,
2013-08-08 13:52:00,98.2,66.7,29.88,South,175,13.0,13.0,36,0.00,,CLR,0.00,VWS V14.01,2013-08-08 18:52:00,
2013-08-08 13:53:00,98.2,66.7,29.88,SSE,168,1.0,13.0,36,0.00,,CLR,0.00,VWS V14.01,2013-08-08 18:53:00,
2013-08-08 13:54:00,98.5,66.1,29.88,South,173,0.0,13.0,35,0.00,,CLR,0.00,VWS V14.01,2013-08-08 18:54:00,
2013-08-08 13:55:00,98.7,66.3,29.88,South,186,3.0,13.0,35,0.00,,CLR,0.00,VWS V14.01,2013-08-08 18:55:00,
2013-08-08 13:56:00,98.0,67.3,29.88,ENE,75,0.0,14.0,37,0.00,,CLR,0.00,VWS V14.01,2013-08-08 18:56:00,
2013-08-08 13:57:00,98.7,65.5,29.88,East,101,3.0,13.0,34,0.00,,CLR,0.00,VWS V14.01,2013-08-08 18:57:00,
2013-08-08 13:58:00,98.7,65.5,29.88,SSE,150,2.0,13.0,34,0.00,,CLR,0.00,VWS V14.01,2013-08-08 18:58:00,
2013-08-08 13:59:00,98.7,64.6,29.88,SE,129,0.0,13.0,33,0.00,,CLR,0.00,VWS V14.01,2013-08-08 18:59:00,
2013-08-08 14:00:00,98.7,64.6,29.88,ESE,121,3.0,3.0,33,0.00,,CLR,0.00,VWS V14.01,2013-08-08 19:00:00,
2013-08-08 14:01:00,98.2,66.7,29.88,SE,141,5.0,9.0,36,0.00,,CLR,0.00,VWS V14.01,2013-08-08 19:01:00,
2013-08-08 14:02:00,98.7,64.6,29.88,ESE,121,3.0,3.0,33,0.00,,CLR,0.00,VWS V14.01,2013-08-08 19:02:00,
2013-08-08 14:03:00,98.7,64.6,29.88,ESE,121,3.0,3.0,33,0.00,,CLR,0.00,VWS V14.01,2013-08-08 19:03:00,
2013-08-08 14:04:00,98.7,64.6,29.88,ENE,77,0.0,3.0,33,0.00,,CLR,0.00,VWS V14.01,2013-08-08 19:04:00,
2013-08-08 14:05:00,99.0,65.8,29.88,SE,133,7.0,7.0,34,0.00,,CLR,0.00,VWS V14.01,2013-08-08 19:05:00,
2013-08-08 14:06:00,98.7,65.5,29.88,SE,130,0.0,13.0,34,0.00,,CLR,0.00,VWS V14.01,2013-08-08 19:06:00,
2013-08-08 14:07:00,98.7,66.3,29.88,SSE,161,6.0,10.0,35,0.00,,CLR,0.00,VWS V14.01,2013-08-08 19:07:00,
2013-08-08 14:08:00,98.7,65.5,29.88,SE,126,5.0,10.0,34,0.00,,CLR,0.00,VWS V14.01,2013-08-08 19:08:00,
2013-08-08 14:09:00,98.7,65.5,29.88,SE,126,5.0,10.0,34,0.00,,CLR,0.00,VWS V14.01,2013-08-08 19:09:00,
2013-08-08 14:10:00,98.7,65.5,29.88,SE,126,5.0,5.0,34,0.00,,CLR,0.00,VWS V14.01,2013-08-08 19:10:00,
2013-08-08 14:11:00,98.7,64.6,29.88,ESE,121,3.0,3.0,33,0.00,,CLR,0.00,VWS V14.01,2013-08-08 19:11:00,
2013-08-08 14:12:00,98.7,65.5,29.88,SE,126,5.0,5.0,34,0.00,,CLR,0.00,VWS V14.01,2013-08-08 19:12:00,
2013-08-08 14:13:00,98.7,65.5,29.88,SE,126,5.0,5.0,34,0.00,,CLR,0.00,VWS V14.01,2013-08-08 19:13:00,
2013-08-08 14:14:00,99.4,63.5,29.87,South,188,0.0,6.0,31,0.00,,CLR,0.00,VWS V14.01,2013-08-08 19:14:00,
2013-08-08 14:15:00,99.4,63.5,29.87,SE,137,1.0,6.0,31,0.00,,CLR,0.00,VWS V14.01,2013-08-08 19:15:00,
2013-08-08 14:16:00,98.7,66.3,29.88,South,181,0.0,10.0,35,0.00,,CLR,0.00,VWS V14.01,2013-08-08 19:16:00,
2013-08-08 14:17:00,99.7,63.7,29.87,South,170,2.0,6.0,31,0.00,,CLR,0.00,VWS V14.01,2013-08-08 19:17:00,
2013-08-08 14:18:00,99.7,63.7,29.87,SE,146,0.0,6.0,31,0.00,,CLR,0.00,VWS V14.01,2013-08-08 19:18:00,
2013-08-08 14:19:00,99.9,64.8,29.87,ESE,122,2.0,6.0,32,0.00,,CLR,0.00,VWS V14.01,2013-08-08 19:19:00,
2013-08-08 14:20:00,100.4,65.2,29.87,SE,143,9.0,10.0,32,0.00,,CLR,0.00,VWS V14.01,2013-08-08 19:20:00,
2013-08-08 14:21:00,98.7,65.5,29.88,SE,126,5.0,5.0,34,0.00,,CLR,0.00,VWS V14.01,2013-08-08 19:21:00,
2013-08-08 14:22:00,100.2,64.1,29.87,SSE,166,9.0,10.0,31,0.00,,CLR,0.00,VWS V14.01,2013-08-08 19:22:00,
2013-08-08 14:23:00,100.2,64.1,29.87,SSE,166,9.0,10.0,31,0.00,,CLR,0.00,VWS V14.01,2013-08-08 19:23:00,
2013-08-08 14:24:00,99.7,64.6,29.87,ESE,104,0.0,10.0,32,0.00,,CLR,0.00,VWS V14.01,2013-08-08 19:24:00,
2013-08-08 14:25:00,99.7,64.6,29.87,South,180,7.0,10.0,32,0.00,,CLR,0.00,VWS V14.01,2013-08-08 19:25:00,
2013-08-08 14:26:00,99.7,63.7,29.87,South,171,0.0,6.0,31,0.00,,CLR,0.00,VWS V14.01,2013-08-08 19:26:00,
2013-08-08 14:27:00,99.7,63.7,29.87,South,178,3.0,10.0,31,0.00,,CLR,0.00,VWS V14.01,2013-08-08 19:27:00,
2013-08-08 14:28:00,100.2,64.1,29.87,SSE,163,3.0,10.0,31,0.00,,CLR,0.00,VWS V14.01,2013-08-08 19:28:00,
2013-08-08 14:29:00,100.2,64.1,29.86,South,186,6.0,13.0,31,0.00,,CLR,0.00,VWS V14.01,2013-08-08 19:29:00,
2013-08-08 14:30:00,100.2,64.1,29.86,SE,141,4.0,6.0,31,0.00,,CLR,0.00,VWS V14.01,2013-08-08 19:30:00,
2013-08-08 14:31:00,100.4,64.3,29.87,SSE,168,3.0,10.0,31,0.00,,CLR,0.00,VWS V14.01,2013-08-08 19:31:00,
2013-08-08 14:32:00,100.2,63.2,29.86,South,172,4.0,8.0,30,0.00,,CLR,0.00,VWS V14.01,2013-08-08 19:32:00,
2013-08-08 14:33:00,100.2,63.2,29.86,ESE,117,3.0,8.0,30,0.00,,CLR,0.00,VWS V14.01,2013-08-08 19:33:00,
2013-08-08 14:34:00,99.9,62.9,29.86,SSE,154,6.0,9.0,30,0.00,,CLR,0.00,VWS V14.01,2013-08-08 19:34:00,
2013-08-08 14:35:00,99.9,62.0,29.86,SE,143,4.0,9.0,29,0.00,,CLR,0.00,VWS V14.01,2013-08-08 19:35:00,
2013-08-08 14:36:00,99.7,63.7,29.87,South,178,3.0,10.0,31,0.00,,CLR,0.00,VWS V14.01,2013-08-08 19:36:00,
2013-08-08 14:37:00,99.9,62.0,29.86,SSE,161,0.0,9.0,29,0.00,,CLR,0.00,VWS V14.01,2013-08-08 19:37:00,
2013-08-08 14:38:00,99.9,62.0,29.86,SSE,162,0.0,9.0,29,0.00,,CLR,0.00,VWS V14.01,2013-08-08 19:38:00,
2013-08-08 14:39:00,99.9,62.9,29.86,ESE,118,3.0,9.0,30,0.00,,CLR,0.00,VWS V14.01,2013-08-08 19:39:00,
2013-08-08 14:40:00,99.9,63.9,29.86,SE,128,4.0,6.0,31,0.00,,CLR,0.00,VWS V14.01,2013-08-08 19:40:00,
2013-08-08 14:41:00,100.2,63.2,29.86,SE,140,5.0,8.0,30,0.00,,CLR,0.00,VWS V14.01,2013-08-08 19:41:00,
2013-08-08 14:42:00,100.2,62.2,29.86,SE,134,2.0,12.0,29,0.00,,CLR,0.00,VWS V14.01,2013-08-08 19:42:00,
2013-08-08 14:43:00,100.4,63.4,29.86,South,173,2.0,12.0,30,0.00,,CLR,0.00,VWS V14.01,2013-08-08 19:43:00,
2013-08-08 14:44:00,100.7,62.7,29.85,SSE,147,5.0,12.0,29,0.00,,CLR,0.00,VWS V14.01,2013-08-08 19:44:00,
2013-08-08 14:45:00,101.0,61.9,29.85,South,186,5.0,13.0,28,0.00,,CLR,0.00,VWS V14.01,2013-08-08 19:45:00,
2013-08-08 14:46:00,99.9,62.0,29.86,SSE,161,0.0,9.0,29,0.00,,CLR,0.00,VWS V14.01,2013-08-08 19:46:00,
2013-08-08 14:47:00,101.5,61.3,29.85,SSE,153,6.0,13.0,27,0.00,,CLR,0.00,VWS V14.01,2013-08-08 19:47:00,
2013-08-08 14:48:00,101.5,61.3,29.85,South,180,5.0,13.0,27,0.00,,CLR,0.00,VWS V14.01,2013-08-08 19:48:00,
2013-08-08 14:49:00,101.5,62.3,29.85,ESE,119,5.0,13.0,28,0.00,,CLR,0.00,VWS V14.01,2013-08-08 19:49:00,
2013-08-08 14:50:00,101.5,62.3,29.85,SSE,149,5.0,7.0,28,0.00,,CLR,0.00,VWS V14.01,2013-08-08 19:50:00,
2013-08-08 14:51:00,99.9,62.0,29.86,SSE,164,6.0,12.0,29,0.00,,CLR,0.00,VWS V14.01,2013-08-08 19:51:00,
2013-08-08 14:52:00,101.2,62.1,29.85,ESE,123,9.0,9.0,28,0.00,,CLR,0.00,VWS V14.01,2013-08-08 19:52:00,
2013-08-08 14:53:00,101.2,62.1,29.85,South,175,1.0,9.0,28,0.00,,CLR,0.00,VWS V14.01,2013-08-08 19:53:00,
2013-08-08 14:54:00,101.5,62.3,29.85,South,172,0.0,9.0,28,0.00,,CLR,0.00,VWS V14.01,2013-08-08 19:54:00,
2013-08-08 14:55:00,101.5,62.3,29.85,ESE,115,5.0,9.0,28,0.00,,CLR,0.00,VWS V14.01,2013-08-08 19:55:00,
2013-08-08 14:56:00,101.5,62.3,29.85,SE,133,0.0,13.0,28,0.00,,CLR,0.00,VWS V14.01,2013-08-08 19:56:00,
2013-08-08 14:57:00,101.5,62.3,29.85,SSE,168,5.0,15.0,28,0.00,,CLR,0.00,VWS V14.01,2013-08-08 19:57:00,
2013-08-08 14:58:00,101.2,61.1,29.85,South,169,5.0,15.0,27,0.00,,CLR,0.00,VWS V14.01,2013-08-08 19:58:00,
2013-08-08 14:59:00,101.2,61.1,29.85,South,186,1.0,15.0,27,0.00,,CLR,0.00,VWS V14.01,2013-08-08 19:59:00,
2013-08-08 15:00:00,101.0,60.9,29.85,South,169,6.0,6.0,27,0.00,,CLR,0.00,VWS V14.01,2013-08-08 20:00:00,
2013-08-08 15:01:00,101.2,62.1,29.85,SE,130,2.0,7.0,28,0.00,,CLR,0.00,VWS V14.01,2013-08-08 20:01:00,
2013-08-08 15:02:00,101.0,60.9,29.85,East,82,11.0,15.0,27,0.00,,CLR,0.00,VWS V14.01,2013-08-08 20:02:00,
2013-08-08 15:03:00,101.0,61.9,29.85,SE,131,2.0,15.0,28,0.00,,CLR,0.00,VWS V14.01,2013-08-08 20:03:00,
2013-08-08 15:04:00,101.0,61.9,29.85,East,101,4.0,15.0,28,0.00,,CLR,0.00,VWS V14.01,2013-08-08 20:04:00,
2013-08-08 15:05:00,101.2,62.1,29.85,ESE,122,3.0,15.0,28,0.00,,CLR,0.00,VWS V14.01,2013-08-08 20:05:00,
2013-08-08 15:06:00,101.5,61.3,29.85,SSW,193,7.0,15.0,27,0.00,,CLR,0.00,VWS V14.01,2013-08-08 20:06:00,
2013-08-08 15:07:00,101.5,62.3,29.85,SE,136,2.0,15.0,28,0.00,,CLR,0.00,VWS V14.01,2013-08-08 20:07:00,
2013-08-08 15:08:00,101.7,62.5,29.85,South,180,6.0,15.0,28,0.00,,CLR,0.00,VWS V14.01,2013-08-08 20:08:00,
2013-08-08 15:09:00,101.7,61.5,29.85,SE,143,6.0,15.0,27,0.00,,CLR,0.00,VWS V14.01,2013-08-08 20:09:00,
2013-08-08 15:10:00,101.7,61.5,29.85,South,191,5.0,12.0,27,0.00,,CLR,0.00,VWS V14.01,2013-08-08 20:10:00,
2013-08-08 15:11:00,101.0,60.9,29.85,ESE,115,8.0,15.0,27,0.00,,CLR,0.00,VWS V14.01,2013-08-08 20:11:00,
2013-08-08 15:12:00,101.7,60.4,29.85,SE,146,0.0,14.0,26,0.00,,CLR,0.00,VWS V14.01,2013-08-08 20:12:00,
2013-08-08 15:13:00,102.0,60.7,29.85,SE,130,7.0,14.0,26,0.00,,CLR,0.00,VWS V14.01,2013-08-08 20:13:00,
2013-08-08 15:14:00,102.0,60.7,29.84,SSE,149,4.0,14.0,26,0.00,,CLR,0.00,VWS V14.01,2013-08-08 20:14:00,
2013-08-08 15:15:00,102.0,60.7,29.84,SE,134,0.0,14.0,26,0.00,,CLR,0.00,VWS V14.01,2013-08-08 20:15:00,
2013-08-08 15:16:00,101.5,62.3,29.85,ENE,62,3.0,15.0,28,0.00,,CLR,0.00,VWS V14.01,2013-08-08 20:16:00,
2013-08-08 15:17:00,102.3,62.0,29.84,SSE,164,7.0,14.0,27,0.00,,CLR,0.00,VWS V14.01,2013-08-08 20:17:00,
2013-08-08 15:18:00,102.3,62.0,29.84,South,190,2.0,14.0,27,0.00,,CLR,0.00,VWS V14.01,2013-08-08 20:18:00,
2013-08-08 15:19:00,102.3,62.0,29.84,South,188,0.0,14.0,27,0.00,,CLR,0.00,VWS V14.01,2013-08-08 20:19:00,
2013-08-08 15:20:00,102.3,62.0,29.84,South,169,3.0,3.0,27,0.00,,CLR,0.00,VWS V14.01,2013-08-08 20:20:00,
2013-08-08 15:21:00,101.7,60.4,29.85,SSE,159,3.0,14.0,26,0.00,,CLR,0.00,VWS V14.01,2013-08-08 20:21:00,
2013-08-08 15:22:00,102.5,61.1,29.84,SE,144,5.0,11.0,26,0.00,,CLR,0.00,VWS V14.01,2013-08-08 20:22:00,
2013-08-08 15:23:00,102.5,60.0,29.84,South,182,10.0,11.0,25,0.00,,CLR,0.00,VWS V14.01,2013-08-08 20:23:00,
2013-08-08 15:24:00,102.5,60.0,29.84,SE,142,3.0,15.0,25,0.00,,CLR,0.00,VWS V14.01,2013-08-08 20:24:00,
2013-08-08 15:25:00,102.3,59.8,29.84,SW,215,10.0,15.0,25,0.00,,CLR,0.00,VWS V14.01,2013-08-08 20:25:00,
2013-08-08 15:26:00,102.0,61.7,29.84,SE,134,0.0,14.0,27,0.00,,CLR,0.00,VWS V14.01,2013-08-08 20:26:00,
2013-08-08 15:27:00,102.0,59.6,29.84,South,190,0.0,15.0,25,0.00,,CLR,0.00,VWS V14.01,2013-08-08 20:27:00,
2013-08-08 15:28:00,102.3,59.8,29.84,SSE,147,0.0,15.0,25,0.00,,CLR,0.00,VWS V14.01,2013-08-08 20:28:00,
2013-08-08 15:29:00,102.5,60.0,29.83,SSE,158,4.0,15.0,25,0.00,,CLR,0.00,VWS V14.01,2013-08-08 20:29:00,
2013-08-08 15:30:00,102.5,60.0,29.83,SSE,153,0.0,4.0,25,0.00,,CLR,0.00,VWS V14.01,2013-08-08 20:30:00,
2013-08-08 15:31:00,102.5,61.1,29.84,SE,144,5.0,11.0,26,0.00,,CLR,0.00,VWS V14.01,2013-08-08 20:31:00,
2013-08-08 15:32:00,102.8,61.3,29.83,SE,125,5.0,11.0,26,0.00,,CLR,0.00,VWS V14.01,2013-08-08 20:32:00,
2013-08-08 15:33:00,102.8,60.2,29.83,ESE,120,3.0,12.0,25,0.00,,CLR,0.00,VWS V14.01,2013-08-08 20:33:00,
2013-08-08 15:34:00,102.8,60.2,29.83,SSE,167,0.0,12.0,25,0.00,,CLR,0.00,VWS V14.01,2013-08-08 20:34:00,
2013-08-08 15:35:00,102.5,61.1,29.83,South,170,0.0,12.0,26,0.00,,CLR,0.00,VWS V14.01,2013-08-08 20:35:00,
2013-08-08 15:36:00,102.0,59.6,29.84,South,190,1.0,15.0,25,0.00,,CLR,0.00,VWS V14.01,2013-08-08 20:36:00,
2013-08-08 15:37:00,102.8,61.3,29.83,ESE,115,3.0,12.0,26,0.00,,CLR,0.00,VWS V14.01,2013-08-08 20:37:00,
2013-08-08 15:38:00,102.8,60.2,29.83,SSE,155,5.0,12.0,25,0.00,,CLR,0.00,VWS V14.01,2013-08-08 20:38:00,
2013-08-08 15:39:00,103.1,60.5,29.83,SE,146,11.0,14.0,25,0.00,,CLR,0.00,VWS V14.01,2013-08-08 20:39:00,
2013-08-08 15:40:00,102.8,60.2,29.83,SSE,161,12.0,12.0,25,0.00,,CLR,0.00,VWS V14.01,2013-08-08 20:40:00,
2013-08-08 15:41:00,102.8,61.3,29.83,ESE,108,4.0,11.0,26,0.00,,CLR,0.00,VWS V14.01,2013-08-08 20:41:00,
2013-08-08 15:42:00,102.3,59.8,29.83,South,187,6.0,12.0,25,0.00,,CLR,0.00,VWS V14.01,2013-08-08 20:42:00,
2013-08-08 15:43:00,102.3,59.8,29.83,SSE,155,3.0,12.0,25,0.00,,CLR,0.00,VWS V14.01,2013-08-08 20:43:00,
2013-08-08 15:44:00,102.3,59.8,29.83,SSE,164,6.0,13.0,25,0.00,,CLR,0.00,VWS V14.01,2013-08-08 20:44:00,
2013-08-08 15:45:00,102.3,60.9,29.83,SSE,148,2.0,13.0,26,0.00,,CLR,0.00,VWS V14.01,2013-08-08 20:45:00,
2013-08-08 15:46:00,102.8,61.3,29.83,East,90,4.0,12.0,26,0.00,,CLR,0.00,VWS V14.01,2013-08-08 20:46:00,
2013-08-08 15:47:00,102.5,60.0,29.83,East,89,3.0,13.0,25,0.00,,CLR,0.00,VWS V14.01,2013-08-08 20:47:00,
2013-08-08 15:48:00,102.5,60.0,29.83,SE,136,3.0,13.0,25,0.00,,CLR,0.00,VWS V14.01,2013-08-08 20:48:00,
2013-08-08 15:49:00,102.5,60.0,29.83,ESE,106,4.0,13.0,25,0.00,,CLR,0.00,VWS V14.01,2013-08-08 20:49:00,
2013-08-08 15:50:00,102.5,60.0,29.83,ESE,115,2.0,3.0,25,0.00,,CLR,0.00,VWS V14.01,2013-08-08 20:50:00,
2013-08-08 15:51:00,102.3,59.8,29.83,South,185,2.0,12.0,25,0.00,,CLR,0.00,VWS V14.01,2013-08-08 20:51:00,
2013-08-08 15:52:00,102.8,60.2,29.83,SW,225,3.0,12.0,25,0.00,,CLR,0.00,VWS V14.01,2013-08-08 20:52:00,
2013-08-08 15:53:00,102.8,59.1,29.83,SW,220,10.0,12.0,24,0.00,,CLR,0.00,VWS V14.01,2013-08-08 20:53:00,
2013-08-08 15:54:00,102.8,59.1,29.83,SSW,200,4.0,12.0,24,0.00,,CLR,0.00,VWS V14.01,2013-08-08 20:54:00,
2013-08-08 15:55:00,102.8,60.2,29.83,SSE,159,0.0,12.0,25,0.00,,CLR,0.00,VWS V14.01,2013-08-08 20:55:00,
2013-08-08 15:56:00,102.5,60.0,29.83,ESE,115,3.0,13.0,25,0.00,,CLR,0.00,VWS V14.01,2013-08-08 20:56:00,
2013-08-08 15:57:00,102.8,59.1,29.83,SSE,150,4.0,12.0,24,0.00,,CLR,0.00,VWS V14.01,2013-08-08 20:57:00,
2013-08-08 15:58:00,102.8,59.1,29.83,South,184,1.0,12.0,24,0.00,,CLR,0.00,VWS V14.01,2013-08-08 20:58:00,
2013-08-08 15:59:00,102.8,59.1,29.83,South,169,3.0,12.0,24,0.00,,CLR,0.00,VWS V14.01,2013-08-08 20:59:00,
2013-08-08 16:00:00,102.8,59.1,29.83,SW,220,6.0,6.0,24,0.00,,CLR,0.00,VWS V14.01,2013-08-08 21:00:00,
2013-08-08 16:01:00,102.8,60.2,29.83,South,187,3.0,9.0,25,0.00,,CLR,0.00,VWS V14.01,2013-08-08 21:01:00,
2013-08-08 16:02:00,103.1,59.3,29.83,South,176,0.0,6.0,24,0.00,,CLR,0.00,VWS V14.01,2013-08-08 21:02:00,
2013-08-08 16:03:00,103.1,59.3,29.83,South,182,9.0,11.0,24,0.00,,CLR,0.00,VWS V14.01,2013-08-08 21:03:00,
2013-08-08 16:04:00,103.3,59.5,29.83,SSE,149,7.0,11.0,24,0.00,,CLR,0.00,VWS V14.01,2013-08-08 21:04:00,
2013-08-08 16:05:00,103.1,59.3,29.83,South,190,6.0,12.0,24,0.00,,CLR,0.00,VWS V14.01,2013-08-08 21:05:00,
2013-08-08 16:06:00,102.8,60.2,29.83,SSE,159,0.0,12.0,25,0.00,,CLR,0.00,VWS V14.01,2013-08-08 21:06:00,
2013-08-08 16:07:00,103.1,59.3,29.83,WSW,240,9.0,12.0,24,0.00,,CLR,0.00,VWS V14.01,2013-08-08 21:07:00,
2013-08-08 16:08:00,103.1,59.3,29.83,WSW,240,9.0,12.0,24,0.00,,CLR,0.00,VWS V14.01,2013-08-08 21:08:00,
2013-08-08 16:09:00,103.1,59.3,29.83,WSW,240,9.0,12.0,24,0.00,,CLR,0.00,VWS V14.01,2013-08-08 21:09:00,
2013-08-08 16:10:00,103.1,59.3,29.83,WSW,240,9.0,9.0,24,0.00,,CLR,0.00,VWS V14.01,2013-08-08 21:10:00,
2013-08-08 16:11:00,102.8,59.1,29.83,South,189,0.0,6.0,24,0.00,,CLR,0.00,VWS V14.01,2013-08-08 21:11:00,
2013-08-08 16:12:00,103.1,59.3,29.83,WSW,240,9.0,9.0,24,0.00,,CLR,0.00,VWS V14.01,2013-08-08 21:12:00,
2013-08-08 16:13:00,103.3,59.5,29.83,SSE,155,3.0,9.0,24,0.00,,CLR,0.00,VWS V14.01,2013-08-08 21:13:00,
2013-08-08 16:14:00,103.3,58.3,29.82,SSE,163,1.0,9.0,23,0.00,,CLR,0.00,VWS V14.01,2013-08-08 21:14:00,
2013-08-08 16:15:00,103.3,58.3,29.82,ESE,122,2.0,11.0,23,0.00,,CLR,0.00,VWS V14.01,2013-08-08 21:15:00,
2013-08-08 16:16:00,103.1,59.3,29.83,WSW,240,9.0,12.0,24,0.00,,CLR,0.00,VWS V14.01,2013-08-08 21:16:00,
2013-08-08 16:17:00,103.3,59.5,29.82,SSE,163,1.0,11.0,24,0.00,,CLR,0.00,VWS V14.01,2013-08-08 21:17:00,
2013-08-08 16:18:00,103.3,59.5,29.82,SSE,148,0.0,11.0,24,0.00,,CLR,0.00,VWS V14.01,2013-08-08 21:18:00,
2013-08-08 16:19:00,103.6,59.8,29.82,SSE,148,1.0,11.0,24,0.00,,CLR,0.00,VWS V14.01,2013-08-08 21:19:00,
2013-08-08 16:20:00,103.6,59.8,29.82,SE,142,5.0,6.0,24,0.00,,CLR,0.00,VWS V14.01,2013-08-08 21:20:00,
2013-08-08 16:21:00,103.1,59.3,29.83,WSW,240,9.0,9.0,24,0.00,,CLR,0.00,VWS V14.01,2013-08-08 21:21:00,
2013-08-08 16:22:00,103.8,58.7,29.82,South,174,3.0,6.0,23,0.00,,CLR,0.00,VWS V14.01,2013-08-08 21:22:00,
2013-08-08 16:23:00,103.8,58.7,29.82,SSE,158,8.0,9.0,23,0.00,,CLR,0.00,VWS V14.01,2013-08-08 21:23:00,
2013-08-08 16:24:00,103.8,58.7,29.82,South,179,5.0,12.0,23,0.00,,CLR,0.00,VWS V14.01,2013-08-08 21:24:00,
2013-08-08 16:25:00,103.6,58.6,29.82,SSE,165,5.0,12.0,23,0.00,,CLR,0.00,VWS V14.01,2013-08-08 21:25:00,
2013-08-08 16:26:00,103.3,59.5,29.82,SSE,161,1.0,11.0,24,0.00,,CLR,0.00,VWS V14.01,2013-08-08 21:26:00,
2013-08-08 16:27:00,103.3,59.5,29.82,East,96,2.0,12.0,24,0.00,,CLR,0.00,VWS V14.01,2013-08-08 21:27:00,
2013-08-08 16:28:00,103.3,59.5,29.82,SE,136,3.0,12.0,24,0.00,,CLR,0.00,VWS V14.01,2013-08-08 21:28:00,
2013-08-08 16:29:00,103.3,59.5,29.82,ESE,107,4.0,12.0,24,0.00,,CLR,0.00,VWS V14.01,2013-08-08 21:29:00,
2013-08-08 16:30:00,103.3,59.5,29.82,ESE,118,1.0,10.0,24,0.00,,CLR,0.00,VWS V14.01,2013-08-08 21:30:00,
2013-08-08 16:31:00,103.8,58.7,29.82,SSE,166,3.0,6.0,23,0.00,,CLR,0.00,VWS V14.01,2013-08-08 21:31:00,
2013-08-08 16:32:00,103.6,58.6,29.82,SSE,161,8.0,10.0,23,0.00,,CLR,0.00,VWS V14.01,2013-08-08 21:32:00,
2013-08-08 16:33:00,103.6,58.6,29.82,SSW,192,3.0,11.0,23,0.00,,CLR,0.00,VWS V14.01,2013-08-08 21:33:00,
2013-08-08 16:34:00,103.6,58.6,29.82,South,175,4.0,11.0,23,0.00,,CLR,0.00,VWS V14.01,2013-08-08 21:34:00,
2013-08-08 16:35:00,103.6,58.6,29.82,SSE,165,1.0,11.0,23,0.00,,CLR,0.00,VWS V14.01,2013-08-08 21:35:00,
2013-08-08 16:36:00,103.6,58.6,29.82,East,88,3.0,11.0,23,0.00,,CLR,0.00,VWS V14.01,2013-08-08 21:36:00,
2013-08-08 16:37:00,103.3,59.5,29.82,ENE,76,2.0,12.0,24,0.00,,CLR,0.00,VWS V14.01,2013-08-08 21:37:00,
2013-08-08 16:38:00,103.6,57.3,29.82,SE,134,2.0,15.0,22,0.00,,CLR,0.00,VWS V14.01,2013-08-08 21:38:00,
2013-08-08 16:39:00,103.6,58.6,29.82,ESE,120,3.0,15.0,23,0.00,,CLR,0.00,VWS V14.01,2013-08-08 21:39:00,
2013-08-08 16:40:00,103.6,58.6,29.82,SSE,163,4.0,4.0,23,0.00,,CLR,0.00,VWS V14.01,2013-08-08 21:40:00,
2013-08-08 16:41:00,103.8,58.7,29.82,SE,143,2.0,4.0,23,0.00,,CLR,0.00,VWS V14.01,2013-08-08 21:41:00,
2013-08-08 16:42:00,103.6,58.6,29.82,SSE,165,4.0,10.0,23,0.00,,CLR,0.00,VWS V14.01,2013-08-08 21:42:00,
2013-08-08 16:43:00,103.6,58.6,29.82,ESE,123,3.0,9.0,23,0.00,,CLR,0.00,VWS V14.01,2013-08-08 21:43:00,
2013-08-08 16:44:00,103.6,58.6,29.81,South,170,1.0,9.0,23,0.00,,CLR,0.00,VWS V14.01,2013-08-08 21:44:00,
2013-08-08 16:45:00,103.6,58.6,29.81,ESE,104,0.0,9.0,23,0.00,,CLR,0.00,VWS V14.01,2013-08-08 21:45:00,
2013-08-08 16:46:00,103.8,58.7,29.81,SE,138,11.0,11.0,23,0.00,,CLR,0.00,VWS V14.01,2013-08-08 21:46:00,
2013-08-08 16:47:00,103.8,57.5,29.82,SE,130,3.0,15.0,22,0.00,,CLR,0.00,VWS V14.01,2013-08-08 21:47:00,
2013-08-08 16:48:00,103.6,58.6,29.81,SSE,148,0.0,11.0,23,0.00,,CLR,0.00,VWS V14.01,2013-08-08 21:48:00,
2013-08-08 16:49:00,103.6,58.6,29.81,SSE,148,0.0,11.0,23,0.00,,CLR,0.00,VWS V14.01,2013-08-08 21:49:00,
2013-08-08 16:50:00,103.8,58.7,29.81,SE,146,7.0,10.0,23,0.00,,CLR,0.00,VWS V14.01,2013-08-08 21:50:00,
2013-08-08 16:51:00,103.8,58.7,29.81,SE,135,4.0,12.0,23,0.00,,CLR,0.00,VWS V14.01,2013-08-08 21:51:00,
2013-08-08 16:52:00,103.6,58.6,29.82,SE,136,6.0,9.0,23,0.00,,CLR,0.00,VWS V14.01,2013-08-08 21:52:00,
2013-08-08 16:53:00,103.6,58.6,29.81,SE,124,7.0,12.0,23,0.00,,CLR,0.00,VWS V14.01,2013-08-08 21:53:00,
2013-08-08 16:54:00,103.6,58.6,29.81,ESE,121,0.0,12.0,23,0.00,,CLR,0.00,VWS V14.01,2013-08-08 21:54:00,
2013-08-08 16:55:00,103.6,58.6,29.81,SSE,167,9.0,12.0,23,0.00,,CLR,0.00,VWS V14.01,2013-08-08 21:55:00,
2013-08-08 16:56:00,103.3,57.1,29.81,SE,132,4.0,12.0,22,0.00,,CLR,0.00,VWS V14.01,2013-08-08 21:56:00,
2013-08-08 16:57:00,103.6,58.6,29.81,SSE,148,0.0,11.0,23,0.00,,CLR,0.00,VWS V14.01,2013-08-08 21:57:00,
2013-08-08 16:58:00,103.3,58.3,29.81,South,188,5.0,12.0,23,0.00,,CLR,0.00,VWS V14.01,2013-08-08 21:58:00,
2013-08-08 16:59:00,103.6,58.6,29.80,SE,141,1.0,12.0,23,0.00,,CLR,0.00,VWS V14.01,2013-08-08 21:59:00,
2013-08-08 17:00:00,103.6,58.6,29.80,ESE,106,4.0,8.0,23,0.00,,CLR,0.00,VWS V14.01,2013-08-08 22:00:00,
2013-08-08 17:01:00,103.3,57.1,29.80,SE,140,4.0,8.0,22,0.00,,CLR,0.00,VWS V14.01,2013-08-08 22:01:00,
2013-08-08 17:02:00,103.3,58.3,29.80,SE,124,9.0,9.0,23,0.00,,CLR,0.00,VWS V14.01,2013-08-08 22:02:00,
2013-08-08 17:03:00,103.6,58.6,29.81,SE,124,7.0,12.0,23,0.00,,CLR,0.00,VWS V14.01,2013-08-08 22:03:00,
2013-08-08 17:04:00,103.1,58.2,29.80,SE,128,2.0,12.0,23,0.00,,CLR,0.00,VWS V14.01,2013-08-08 22:04:00,
2013-08-08 17:05:00,103.1,58.2,29.80,SE,134,10.0,12.0,23,0.00,,CLR,0.00,VWS V14.01,2013-08-08 22:05:00,
2013-08-08 17:06:00,102.8,57.9,29.80,SE,134,3.0,12.0,23,0.00,,CLR,0.00,VWS V14.01,2013-08-08 22:06:00,
2013-08-08 17:07:00,103.1,58.2,29.80,SE,139,0.0,12.0,23,0.00,,CLR,0.00,VWS V14.01,2013-08-08 22:07:00,
2013-08-08 17:08:00,103.3,58.3,29.81,SE,141,1.0,12.0,23,0.00,,CLR,0.00,VWS V14.01,2013-08-08 22:08:00,
2013-08-08 17:09:00,103.3,57.1,29.80,SE,136,3.0,12.0,22,0.00,,CLR,0.00,VWS V14.01,2013-08-08 22:09:00,
2013-08-08 17:10:00,103.3,57.1,29.80,SE,126,10.0,11.0,22,0.00,,CLR,0.00,VWS V14.01,2013-08-08 22:10:00,
2013-08-08 17:11:00,103.3,57.1,29.80,East,96,1.0,11.0,22,0.00,,CLR,0.00,VWS V14.01,2013-08-08 22:11:00,
2013-08-08 17:12:00,103.6,57.3,29.80,SE,145,4.0,11.0,22,0.00,,CLR,0.00,VWS V14.01,2013-08-08 22:12:00,
2013-08-08 17:13:00,103.1,58.2,29.80,SSE,147,6.0,12.0,23,0.00,,CLR,0.00,VWS V14.01,2013-08-08 22:13:00,
2013-08-08 17:14:00,103.6,57.3,29.80,SE,138,11.0,11.0,22,0.00,,CLR,0.00,VWS V14.01,2013-08-08 22:14:00,
2013-08-08 17:15:00,103.6,57.3,29.80,ESE,105,5.0,11.0,22,0.00,,CLR,0.00,VWS V14.01,2013-08-08 22:15:00,
2013-08-08 17:16:00,103.6,56.0,29.80,ESE,107,13.0,16.0,21,0.00,,CLR,0.00,VWS V14.01,2013-08-08 22:16:00,
2013-08-08 17:17:00,103.3,55.8,29.80,SSE,156,0.0,16.0,21,0.00,,CLR,0.00,VWS V14.01,2013-08-08 22:17:00,
2013-08-08 17:18:00,103.3,57.1,29.80,East,94,5.0,12.0,22,0.00,,CLR,0.00,VWS V14.01,2013-08-08 22:18:00,
2013-08-08 17:19:00,103.3,55.8,29.80,SSE,165,4.0,16.0,21,0.00,,CLR,0.00,VWS V14.01,2013-08-08 22:19:00,
2013-08-08 17:20:00,103.3,55.8,29.80,SE,145,2.0,11.0,21,0.00,,CLR,0.00,VWS V14.01,2013-08-08 22:20:00,
2013-08-08 17:21:00,103.3,55.8,29.80,SE,132,7.0,11.0,21,0.00,,CLR,0.00,VWS V14.01,2013-08-08 22:21:00,
2013-08-08 17:22:00,103.6,56.0,29.80,SSE,150,0.0,11.0,21,0.00,,CLR,0.00,VWS V14.01,2013-08-08 22:22:00,
2013-08-08 17:23:00,103.6,57.3,29.80,SE,130,7.0,11.0,22,0.00,,CLR,0.00,VWS V14.01,2013-08-08 22:23:00,
2013-08-08 17:24:00,103.6,56.0,29.80,SE,145,4.0,11.0,21,0.00,,CLR,0.00,VWS V14.01,2013-08-08 22:24:00,
2013-08-08 17:25:00,103.3,55.8,29.80,SSE,151,6.0,11.0,21,0.00,,CLR,0.00,VWS V14.01,2013-08-08 22:25:00,
2013-08-08 17:26:00,103.3,55.8,29.80,SSW,193,5.0,11.0,21,0.00,,CLR,0.00,VWS V14.01,2013-08-08 22:26:00,
2013-08-08 17:27:00,103.3,55.8,29.80,SE,140,4.0,11.0,21,0.00,,CLR,0.00,VWS V14.01,2013-08-08 22:27:00,
2013-08-08 17:28:00,103.3,55.8,29.80,East,84,3.0,16.0,21,0.00,,CLR,0.00,VWS V14.01,2013-08-08 22:28:00,
2013-08-08 17:29:00,103.3,55.8,29.80,East,95,6.0,11.0,21,0.00,,CLR,0.00,VWS V14.01,2013-08-08 22:29:00,
2013-08-08 17:30:00,103.3,55.8,29.80,ESE,120,9.0,12.0,21,0.00,,CLR,0.00,VWS V14.01,2013-08-08 22:30:00,
2013-08-08 17:31:00,103.3,55.8,29.80,SE,134,3.0,12.0,21,0.00,,CLR,0.00,VWS V14.01,2013-08-08 22:31:00,
2013-08-08 17:32:00,103.3,55.8,29.80,South,175,6.0,12.0,21,0.00,,CLR,0.00,VWS V14.01,2013-08-08 22:32:00,
2013-08-08 17:33:00,103.6,56.0,29.80,SSE,153,3.0,11.0,21,0.00,,CLR,0.00,VWS V14.01,2013-08-08 22:33:00,
2013-08-08 17:34:00,103.1,54.3,29.80,South,182,4.0,12.0,20,0.00,,CLR,0.00,VWS V14.01,2013-08-08 22:34:00,
2013-08-08 17:35:00,103.1,55.6,29.80,SE,135,3.0,12.0,21,0.00,,CLR,0.00,VWS V14.01,2013-08-08 22:35:00,
2013-08-08 17:36:00,103.3,54.5,29.80,ESE,123,12.0,17.0,20,0.00,,CLR,0.00,VWS V14.01,2013-08-08 22:36:00,
2013-08-08 17:37:00,103.1,54.3,29.80,East,98,12.0,17.0,20,0.00,,CLR,0.00,VWS V14.01,2013-08-08 22:37:00,
2013-08-08 17:38:00,103.3,55.8,29.80,SE,128,3.0,11.0,21,0.00,,CLR,0.00,VWS V14.01,2013-08-08 22:38:00,
2013-08-08 17:39:00,103.1,54.3,29.80,SE,141,2.0,17.0,20,0.00,,CLR,0.00,VWS V14.01,2013-08-08 22:39:00,
2013-08-08 17:40:00,103.1,54.3,29.80,SE,131,5.0,5.0,20,0.00,,CLR,0.00,VWS V14.01,2013-08-08 22:40:00,
2013-08-08 17:41:00,103.1,54.3,29.80,ESE,114,5.0,6.0,20,0.00,,CLR,0.00,VWS V14.01,2013-08-08 22:41:00,
2013-08-08 17:42:00,103.1,54.3,29.80,SSE,156,9.0,12.0,20,0.00,,CLR,0.00,VWS V14.01,2013-08-08 22:42:00,
2013-08-08 17:43:00,103.1,54.3,29.80,ESE,115,0.0,12.0,20,0.00,,CLR,0.00,VWS V14.01,2013-08-08 22:43:00,
2013-08-08 17:44:00,103.1,55.6,29.80,South,181,2.0,12.0,21,0.00,,CLR,0.00,VWS V14.01,2013-08-08 22:44:00,
2013-08-08 17:45:00,103.1,54.3,29.79,SE,129,0.0,12.0,20,0.00,,CLR,0.00,VWS V14.01,2013-08-08 22:45:00,
2013-08-08 17:46:00,103.3,54.5,29.79,SE,130,0.0,12.0,20,0.00,,CLR,0.00,VWS V14.01,2013-08-08 22:46:00,
2013-08-08 17:47:00,103.3,54.5,29.79,SE,132,1.0,12.0,20,0.00,,CLR,0.00,VWS V14.01,2013-08-08 22:47:00,
2013-08-08 17:48:00,103.6,54.7,29.79,SE,136,1.0,12.0,20,0.00,,CLR,0.00,VWS V14.01,2013-08-08 22:48:00,
2013-08-08 17:49:00,103.1,54.3,29.80,SSE,150,5.0,17.0,20,0.00,,CLR,0.00,VWS V14.01,2013-08-08 22:49:00,
2013-08-08 17:50:00,103.6,53.3,29.79,South,179,6.0,11.0,19,0.00,,CLR,0.00,VWS V14.01,2013-08-08 22:50:00,
2013-08-08 17:51:00,103.6,53.3,29.79,ESE,107,2.0,11.0,19,0.00,,CLR,0.00,VWS V14.01,2013-08-08 22:51:00,
2013-08-08 17:52:00,103.3,53.1,29.79,ESE,118,0.0,11.0,19,0.00,,CLR,0.00,VWS V14.01,2013-08-08 22:52:00,
2013-08-08 17:53:00,103.6,53.3,29.79,ESE,121,4.0,11.0,19,0.00,,CLR,0.00,VWS V14.01,2013-08-08 22:53:00,
2013-08-08 17:54:00,103.1,54.3,29.79,SE,129,0.0,12.0,20,0.00,,CLR,0.00,VWS V14.01,2013-08-08 22:54:00,
2013-08-08 17:55:00,103.6,53.3,29.79,South,182,6.0,11.0,19,0.00,,CLR,0.00,VWS V14.01,2013-08-08 22:55:00,
2013-08-08 17:56:00,103.6,53.3,29.79,SSW,198,6.0,11.0,19,0.00,,CLR,0.00,VWS V14.01,2013-08-08 22:56:00,
2013-08-08 17:57:00,103.6,54.7,29.79,East,94,2.0,11.0,20,0.00,,CLR,0.00,VWS V14.01,2013-08-08 22:57:00,
2013-08-08 17:58:00,103.6,54.7,29.79,ESE,114,10.0,11.0,20,0.00,,CLR,0.00,VWS V14.01,2013-08-08 22:58:00,
2013-08-08 17:59:00,103.6,53.3,29.79,East,101,8.0,12.0,19,0.00,,CLR,0.00,VWS V14.01,2013-08-08 22:59:00,
2013-08-08 18:01:00,103.1,54.3,29.79,South,171,5.0,9.0,20,0.00,,CLR,0.00,VWS V14.01,2013-08-08 23:01:00,
2013-08-08 18:02:00,103.1,54.3,29.79,SE,146,5.0,9.0,20,0.00,,CLR,0.00,VWS V14.01,2013-08-08 23:02:00,
2013-08-08 18:03:00,103.1,54.3,29.79,South,173,3.0,10.0,20,0.00,,CLR,0.00,VWS V14.01,2013-08-08 23:03:00,
2013-08-08 18:04:00,103.6,53.3,29.79,South,171,7.0,11.0,19,0.00,,CLR,0.00,VWS V14.01,2013-08-08 23:04:00,
2013-08-08 18:05:00,102.8,54.1,29.79,SSE,151,0.0,10.0,20,0.00,,CLR,0.00,VWS V14.01,2013-08-08 23:05:00,
2013-08-08 18:06:00,102.8,54.1,29.79,SSE,151,0.0,10.0,20,0.00,,CLR,0.00,VWS V14.01,2013-08-08 23:06:00,
2013-08-08 18:07:00,102.8,54.1,29.79,SSE,151,0.0,10.0,20,0.00,,CLR,0.00,VWS V14.01,2013-08-08 23:07:00,
2013-08-08 18:08:00,102.8,54.1,29.79,SSE,151,0.0,10.0,20,0.00,,CLR,0.00,VWS V14.01,2013-08-08 23:08:00,
2013-08-08 18:09:00,103.3,54.5,29.79,East,98,7.0,12.0,20,0.00,,CLR,0.00,VWS V14.01,2013-08-08 23:09:00,
2013-08-08 18:10:00,102.8,54.1,29.79,ESE,121,5.0,5.0,20,0.00,,CLR,0.00,VWS V14.01,2013-08-08 23:10:00,
2013-08-08 18:11:00,102.8,54.1,29.79,East,86,3.0,11.0,20,0.00,,CLR,0.00,VWS V14.01,2013-08-08 23:11:00,
2013-08-08 18:12:00,102.8,55.4,29.79,SE,137,4.0,11.0,21,0.00,,CLR,0.00,VWS V14.01,2013-08-08 23:12:00,
2013-08-08 18:13:00,102.8,54.1,29.79,SSE,157,5.0,11.0,20,0.00,,CLR,0.00,VWS V14.01,2013-08-08 23:13:00,
2013-08-08 18:14:00,102.8,54.1,29.79,SSE,151,0.0,10.0,20,0.00,,CLR,0.00,VWS V14.01,2013-08-08 23:14:00,
2013-08-08 18:15:00,102.5,53.8,29.79,ESE,107,5.0,11.0,20,0.00,,CLR,0.00,VWS V14.01,2013-08-08 23:15:00,
2013-08-08 18:16:00,102.5,53.8,29.79,SE,146,2.0,11.0,20,0.00,,CLR,0.00,VWS V14.01,2013-08-08 23:16:00,
2013-08-08 18:17:00,102.3,55.0,29.79,SSE,149,3.0,11.0,21,0.00,,CLR,0.00,VWS V14.01,2013-08-08 23:17:00,
2013-08-08 18:18:00,102.3,55.0,29.79,SSE,157,5.0,11.0,21,0.00,,CLR,0.00,VWS V14.01,2013-08-08 23:18:00,
2013-08-08 18:19:00,102.8,54.1,29.79,ESE,111,0.0,2.0,20,0.00,,CLR,0.00,VWS V14.01,2013-08-08 23:19:00,
2013-08-08 18:20:00,102.3,53.7,29.79,SSE,161,4.0,5.0,20,0.00,,CLR,0.00,VWS V14.01,2013-08-08 23:20:00,
2013-08-08 18:21:00,102.3,55.0,29.79,SSE,148,5.0,5.0,21,0.00,,CLR,0.00,VWS V14.01,2013-08-08 23:21:00,
2013-08-08 18:22:00,102.3,55.0,29.79,South,180,5.0,6.0,21,0.00,,CLR,0.00,VWS V14.01,2013-08-08 23:22:00,
2013-08-08 18:23:00,102.3,55.0,29.79,SSE,163,9.0,9.0,21,0.00,,CLR,0.00,VWS V14.01,2013-08-08 23:23:00,
2013-08-08 18:24:00,102.5,53.8,29.79,SE,135,6.0,11.0,20,0.00,,CLR,0.00,VWS V14.01,2013-08-08 23:24:00,
2013-08-08 18:25:00,102.3,55.0,29.79,SE,144,5.0,9.0,21,0.00,,CLR,0.00,VWS V14.01,2013-08-08 23:25:00,
2013-08-08 18:26:00,102.3,55.0,29.79,SE,144,5.0,9.0,21,0.00,,CLR,0.00,VWS V14.01,2013-08-08 23:26:00,
2013-08-08 18:27:00,102.0,54.7,29.79,SSE,152,5.0,10.0,21,0.00,,CLR,0.00,VWS V14.01,2013-08-08 23:27:00,
2013-08-08 18:28:00,102.0,54.7,29.79,SSE,161,7.0,10.0,21,0.00,,CLR,0.00,VWS V14.01,2013-08-08 23:28:00,
2013-08-08 18:29:00,102.3,53.7,29.79,SSE,167,5.0,5.0,20,0.00,,CLR,0.00,VWS V14.01,2013-08-08 23:29:00,
2013-08-08 18:30:00,102.0,54.7,29.79,SSE,161,5.0,9.0,21,0.00,,CLR,0.00,VWS V14.01,2013-08-08 23:30:00,
2013-08-08 18:31:00,102.0,54.7,29.79,ENE,69,3.0,9.0,21,0.00,,CLR,0.00,VWS V14.01,2013-08-08 23:31:00,
2013-08-08 18:32:00,102.0,54.7,29.79,SSE,150,0.0,9.0,21,0.00,,CLR,0.00,VWS V14.01,2013-08-08 23:32:00,
2013-08-08 18:33:00,102.0,54.7,29.79,SSE,156,0.0,9.0,21,0.00,,CLR,0.00,VWS V14.01,2013-08-08 23:33:00,
2013-08-08 18:34:00,102.3,55.0,29.79,SE,144,5.0,9.0,21,0.00,,CLR,0.00,VWS V14.01,2013-08-08 23:34:00,
2013-08-08 18:35:00,102.0,54.7,29.79,SE,138,2.0,9.0,21,0.00,,CLR,0.00,VWS V14.01,2013-08-08 23:35:00,
2013-08-08 18:36:00,101.7,54.5,29.79,SSE,167,1.0,9.0,21,0.00,,CLR,0.00,VWS V14.01,2013-08-08 23:36:00,
2013-08-08 18:37:00,101.7,54.5,29.79,SE,132,1.0,9.0,21,0.00,,CLR,0.00,VWS V14.01,2013-08-08 23:37:00,
2013-08-08 18:38:00,101.7,54.5,29.79,SE,131,1.0,9.0,21,0.00,,CLR,0.00,VWS V14.01,2013-08-08 23:38:00,
2013-08-08 18:39:00,101.7,54.5,29.79,SSE,161,2.0,9.0,21,0.00,,CLR,0.00,VWS V14.01,2013-08-08 23:39:00,
2013-08-08 18:40:00,102.0,54.7,29.79,SSE,151,3.0,9.0,21,0.00,,CLR,0.00,VWS V14.01,2013-08-08 23:40:00,
2013-08-08 18:41:00,102.0,54.7,29.79,SSW,196,0.0,5.0,21,0.00,,CLR,0.00,VWS V14.01,2013-08-08 23:41:00,
2013-08-08 18:42:00,102.0,54.7,29.79,SE,132,0.0,5.0,21,0.00,,CLR,0.00,VWS V14.01,2013-08-08 23:42:00,
2013-08-08 18:43:00,102.0,54.7,29.79,East,94,0.0,5.0,21,0.00,,CLR,0.00,VWS V14.01,2013-08-08 23:43:00,
2013-08-08 18:44:00,102.0,54.7,29.78,East,94,0.0,5.0,21,0.00,,CLR,0.00,VWS V14.01,2013-08-08 23:44:00,
2013-08-08 18:45:00,101.7,54.5,29.79,South,169,3.0,9.0,21,0.00,,CLR,0.00,VWS V14.01,2013-08-08 23:45:00,
2013-08-08 18:46:00,102.3,55.0,29.78,East,101,1.0,5.0,21,0.00,,CLR,0.00,VWS V14.01,2013-08-08 23:46:00,
2013-08-08 18:47:00,102.3,53.7,29.78,SSE,152,11.0,11.0,20,0.00,,CLR,0.00,VWS V14.01,2013-08-08 23:47:00,
2013-08-08 18:48:00,102.3,53.7,29.78,South,186,4.0,11.0,20,0.00,,CLR,0.00,VWS V14.01,2013-08-08 23:48:00,
2013-08-08 18:49:00,102.3,53.7,29.78,South,179,5.0,11.0,20,0.00,,CLR,0.00,VWS V14.01,2013-08-08 23:49:00,
2013-08-08 18:50:00,102.0,53.4,29.78,South,176,3.0,4.0,20,0.00,,CLR,0.00,VWS V14.01,2013-08-08 23:50:00,
2013-08-08 18:51:00,102.0,54.7,29.79,SSW,196,0.0,5.0,21,0.00,,CLR,0.00,VWS V14.01,2013-08-08 23:51:00,
2013-08-08 18:52:00,101.7,53.2,29.78,SE,135,6.0,10.0,20,0.00,,CLR,0.00,VWS V14.01,2013-08-08 23:52:00,
2013-08-08 18:53:00,101.7,54.5,29.78,SSE,153,1.0,10.0,21,0.00,,CLR,0.00,VWS V14.01,2013-08-08 23:53:00,
2013-08-08 18:54:00,101.7,54.5,29.78,South,172,4.0,10.0,21,0.00,,CLR,0.00,VWS V14.01,2013-08-08 23:54:00,
2013-08-08 18:55:00,101.5,54.3,29.78,South,169,1.0,10.0,21,0.00,,CLR,0.00,VWS V14.01,2013-08-08 23:55:00,
2013-08-08 18:56:00,102.3,55.0,29.78,SE,141,0.0,5.0,21,0.00,,CLR,0.00,VWS V14.01,2013-08-08 23:56:00,
2013-08-08 18:57:00,101.5,54.3,29.78,SE,140,4.0,10.0,21,0.00,,CLR,0.00,VWS V14.01,2013-08-08 23:57:00,
2013-08-08 18:58:00,101.5,54.3,29.78,SE,145,0.0,10.0,21,0.00,,CLR,0.00,VWS V14.01,2013-08-08 23:58:00,
2013-08-08 18:59:00,101.5,54.3,29.78,SE,145,0.0,10.0,21,0.00,,CLR,0.00,VWS V14.01,2013-08-08 23:59:00,
2013-08-08 19:00:00,101.5,54.3,29.78,SE,145,0.0,0.0,21,0.00,,CLR,0.00,VWS V14.01,2013-08-09 00:00:00,
2013-08-08 19:01:00,101.7,53.2,29.78,SSW,196,3.0,10.0,20,0.00,,CLR,0.00,VWS V14.01,2013-08-09 00:01:00,
2013-08-08 19:02:00,101.5,54.3,29.78,SSE,162,4.0,6.0,21,0.00,,CLR,0.00,VWS V14.01,2013-08-09 00:02:00,
2013-08-08 19:03:00,101.5,54.3,29.78,SSE,168,6.0,7.0,21,0.00,,CLR,0.00,VWS V14.01,2013-08-09 00:03:00,
2013-08-08 19:04:00,101.5,55.6,29.78,SSE,155,7.0,9.0,22,0.00,,CLR,0.00,VWS V14.01,2013-08-09 00:04:00,
2013-08-08 19:05:00,101.2,55.4,29.78,SE,139,1.0,9.0,22,0.00,,CLR,0.00,VWS V14.01,2013-08-09 00:05:00,
2013-08-08 19:06:00,101.5,54.3,29.78,SSE,163,5.0,10.0,21,0.00,,CLR,0.00,VWS V14.01,2013-08-09 00:06:00,
2013-08-08 19:07:00,101.0,55.2,29.78,South,169,11.0,11.0,22,0.00,,CLR,0.00,VWS V14.01,2013-08-09 00:07:00,
2013-08-08 19:08:00,100.7,57.3,29.78,ESE,105,1.0,12.0,24,0.00,,CLR,0.00,VWS V14.01,2013-08-09 00:08:00,
2013-08-08 19:09:00,100.4,58.2,29.78,SSE,167,10.0,13.0,25,0.00,,CLR,0.00,VWS V14.01,2013-08-09 00:09:00,
2013-08-08 19:10:00,100.2,60.2,29.78,SE,132,11.0,11.0,27,0.00,,CLR,0.00,VWS V14.01,2013-08-09 00:10:00,
2013-08-08 19:11:00,101.5,54.3,29.78,South,173,6.0,6.0,21,0.00,,CLR,0.00,VWS V14.01,2013-08-09 00:11:00,
2013-08-08 19:12:00,99.9,61.0,29.78,ESE,111,3.0,12.0,28,0.00,,CLR,0.00,VWS V14.01,2013-08-09 00:12:00,
2013-08-08 19:13:00,99.7,60.8,29.78,ESE,121,9.0,14.0,28,0.00,,CLR,0.00,VWS V14.01,2013-08-09 00:13:00,
2013-08-08 19:14:00,99.4,61.5,29.79,SE,132,10.0,14.0,29,0.00,,CLR,0.00,VWS V14.01,2013-08-09 00:14:00,
2013-08-08 19:15:00,99.0,63.1,29.79,SE,138,5.0,15.0,31,0.00,,CLR,0.00,VWS V14.01,2013-08-09 00:15:00,
2013-08-08 19:16:00,101.0,55.2,29.78,SSE,168,4.0,9.0,22,0.00,,CLR,0.00,VWS V14.01,2013-08-09 00:16:00,
2013-08-08 19:17:00,98.7,62.8,29.79,SE,140,8.0,15.0,31,0.00,,CLR,0.00,VWS V14.01,2013-08-09 00:17:00,
2013-08-08 19:19:00,98.5,62.7,29.79,SSE,151,3.0,15.0,31,0.00,,CLR,0.00,VWS V14.01,2013-08-09 00:19:00,
2013-08-08 19:20:00,98.5,63.6,29.79,SSE,160,5.0,5.0,32,0.00,,CLR,0.00,VWS V14.01,2013-08-09 00:20:00,
2013-08-08 19:21:00,99.9,61.0,29.78,ESE,105,7.0,12.0,28,0.00,,CLR,0.00,VWS V14.01,2013-08-09 00:21:00,
2013-08-08 19:22:00,98.2,63.3,29.79,SE,145,0.0,12.0,32,0.00,,CLR,0.00,VWS V14.01,2013-08-09 00:22:00,
2013-08-08 19:23:00,98.0,63.1,29.79,SE,130,4.0,12.0,32,0.00,,CLR,0.00,VWS V14.01,2013-08-09 00:23:00,
2013-08-08 19:24:00,98.0,64.0,29.79,SE,138,10.0,12.0,33,0.00,,CLR,0.00,VWS V14.01,2013-08-09 00:24:00,
2013-08-08 19:25:00,97.8,63.8,29.79,SSE,163,2.0,12.0,33,0.00,,CLR,0.00,VWS V14.01,2013-08-09 00:25:00,
2013-08-08 19:26:00,98.7,62.8,29.79,East,87,1.0,15.0,31,0.00,,CLR,0.00,VWS V14.01,2013-08-09 00:26:00,
2013-08-08 19:27:00,97.5,64.4,29.79,East,92,6.0,16.0,34,0.00,,CLR,0.00,VWS V14.01,2013-08-09 00:27:00,
2013-08-08 19:28:00,97.3,64.3,29.79,SSW,192,12.0,20.0,34,0.00,,CLR,0.00,VWS V14.01,2013-08-09 00:28:00,
2013-08-08 19:29:00,97.1,64.1,29.79,ENE,60,9.0,20.0,34,0.00,,CLR,0.00,VWS V14.01,2013-08-09 00:29:00,
2013-08-08 19:30:00,97.1,64.1,29.79,South,175,7.0,12.0,34,0.00,,CLR,0.00,VWS V14.01,2013-08-09 00:30:00,
2013-08-08 19:31:00,98.2,63.3,29.79,ESE,123,5.0,12.0,32,0.00,,CLR,0.00,VWS V14.01,2013-08-09 00:31:00,
2013-08-08 19:32:00,96.8,64.7,29.79,SE,133,2.0,12.0,35,0.00,,CLR,0.00,VWS V14.01,2013-08-09 00:32:00,
2013-08-08 19:33:00,96.8,64.7,29.79,SSE,158,4.0,12.0,35,0.00,,CLR,0.00,VWS V14.01,2013-08-09 00:33:00,
2013-08-08 19:34:00,96.6,64.5,29.79,South,177,5.0,12.0,35,0.00,,CLR,0.00,VWS V14.01,2013-08-09 00:34:00,
2013-08-08 19:35:00,96.6,64.5,29.79,SSE,161,11.0,13.0,35,0.00,,CLR,0.00,VWS V14.01,2013-08-09 00:35:00,
2013-08-08 19:36:00,97.5,64.4,29.79,South,171,5.0,16.0,34,0.00,,CLR,0.00,VWS V14.01,2013-08-09 00:36:00,
2013-08-08 19:37:00,96.3,64.2,29.79,SE,128,4.0,13.0,35,0.00,,CLR,0.00,VWS V14.01,2013-08-09 00:37:00,
2013-08-08 19:38:00,96.3,64.2,29.79,South,176,3.0,13.0,35,0.00,,CLR,0.00,VWS V14.01,2013-08-09 00:38:00,
2013-08-08 19:39:00,96.1,64.0,29.79,South,180,4.0,14.0,35,0.00,,CLR,0.00,VWS V14.01,2013-08-09 00:39:00,
2013-08-08 19:40:00,96.1,64.0,29.79,ESE,120,6.0,7.0,35,0.00,,CLR,0.00,VWS V14.01,2013-08-09 00:40:00,
2013-08-08 19:41:00,96.1,64.0,29.79,SE,141,6.0,10.0,35,0.00,,CLR,0.00,VWS V14.01,2013-08-09 00:41:00,
2013-08-08 19:42:00,96.8,64.7,29.79,SSE,163,9.0,12.0,35,0.00,,CLR,0.00,VWS V14.01,2013-08-09 00:42:00,
2013-08-08 19:43:00,95.9,63.9,29.79,South,189,3.0,13.0,35,0.00,,CLR,0.00,VWS V14.01,2013-08-09 00:43:00,
2013-08-08 19:44:00,95.6,63.6,29.80,SSE,163,5.0,13.0,35,0.00,,CLR,0.00,VWS V14.01,2013-08-09 00:44:00,
2013-08-08 19:45:00,95.6,64.4,29.80,ENE,71,4.0,13.0,36,0.00,,CLR,0.00,VWS V14.01,2013-08-09 00:45:00,
2013-08-08 19:46:00,95.6,64.4,29.80,ESE,113,7.0,13.0,36,0.00,,CLR,0.00,VWS V14.01,2013-08-09 00:46:00,
2013-08-08 19:47:00,96.3,64.2,29.79,SSE,165,1.0,13.0,35,0.00,,CLR,0.00,VWS V14.01,2013-08-09 00:47:00,
2013-08-08 19:48:00,95.4,64.2,29.80,SE,143,6.0,13.0,36,0.00,,CLR,0.00,VWS V14.01,2013-08-09 00:48:00,
2013-08-08 19:49:00,95.4,64.2,29.80,SSE,147,5.0,13.0,36,0.00,,CLR,0.00,VWS V14.01,2013-08-09 00:49:00,
2013-08-08 19:50:00,95.1,64.0,29.80,East,100,4.0,16.0,36,0.00,,CLR,0.00,VWS V14.01,2013-08-09 00:50:00,
2013-08-08 19:51:00,95.1,64.0,29.80,SE,134,5.0,16.0,36,0.00,,CLR,0.00,VWS V14.01,2013-08-09 00:51:00,
2013-08-08 19:52:00,95.9,63.9,29.79,ESE,111,9.0,13.0,35,0.00,,CLR,0.00,VWS V14.01,2013-08-09 00:52:00,
2013-08-08 19:53:00,94.9,63.8,29.80,SE,129,4.0,16.0,36,0.00,,CLR,0.00,VWS V14.01,2013-08-09 00:53:00,
2013-08-08 19:54:00,94.9,63.8,29.80,SSE,167,1.0,16.0,36,0.00,,CLR,0.00,VWS V14.01,2013-08-09 00:54:00,
2013-08-08 19:55:00,94.9,63.8,29.80,East,92,6.0,16.0,36,0.00,,CLR,0.00,VWS V14.01,2013-08-09 00:55:00,
2013-08-08 19:56:00,94.9,63.8,29.80,ESE,111,5.0,16.0,36,0.00,,CLR,0.00,VWS V14.01,2013-08-09 00:56:00,
2013-08-08 19:57:00,95.4,64.2,29.80,SSE,156,6.0,13.0,36,0.00,,CLR,0.00,VWS V14.01,2013-08-09 00:57:00,
2013-08-08 19:58:00,94.7,63.6,29.80,South,178,6.0,16.0,36,0.00,,CLR,0.00,VWS V14.01,2013-08-09 00:58:00,
2013-08-08 19:59:00,94.5,63.4,29.81,ESE,109,11.0,16.0,36,0.00,,CLR,0.00,VWS V14.01,2013-08-09 00:59:00,
2013-08-08 20:00:00,94.5,63.4,29.81,South,173,3.0,3.0,36,0.00,,CLR,0.00,VWS V14.01,2013-08-09 01:00:00,
2013-08-08 20:01:00,94.5,64.2,29.81,South,177,0.0,4.0,37,0.00,,CLR,0.00,VWS V14.01,2013-08-09 01:01:00,
2013-08-08 20:02:00,94.9,63.8,29.80,SE,126,2.0,16.0,36,0.00,,CLR,0.00,VWS V14.01,2013-08-09 01:02:00,
2013-08-08 20:03:00,94.3,64.1,29.81,SE,126,9.0,9.0,37,0.00,,CLR,0.00,VWS V14.01,2013-08-09 01:03:00,
2013-08-08 20:04:00,94.3,63.3,29.81,SSE,168,2.0,9.0,36,0.00,,CLR,0.00,VWS V14.01,2013-08-09 01:04:00,
2013-08-08 20:05:00,94.3,63.3,29.81,SSE,153,9.0,10.0,36,0.00,,CLR,0.00,VWS V14.01,2013-08-09 01:05:00,
2013-08-08 20:06:00,94.0,63.0,29.81,East,86,7.0,12.0,36,0.00,,CLR,0.00,VWS V14.01,2013-08-09 01:06:00,
2013-08-08 20:07:00,94.7,63.6,29.80,South,173,3.0,16.0,36,0.00,,CLR,0.00,VWS V14.01,2013-08-09 01:07:00,
2013-08-08 20:08:00,94.0,63.8,29.81,SSE,158,2.0,13.0,37,0.00,,CLR,0.00,VWS V14.01,2013-08-09 01:08:00,
2013-08-08 20:09:00,94.0,63.8,29.81,ESE,117,3.0,13.0,37,0.00,,CLR,0.00,VWS V14.01,2013-08-09 01:09:00,
2013-08-08 20:10:00,93.8,63.6,29.81,SSE,157,5.0,5.0,37,0.00,,CLR,0.00,VWS V14.01,2013-08-09 01:10:00,
2013-08-08 20:11:00,93.8,63.6,29.81,SE,130,3.0,6.0,37,0.00,,CLR,0.00,VWS V14.01,2013-08-09 01:11:00,
2013-08-08 20:12:00,94.5,64.2,29.81,SSE,162,1.0,7.0,37,0.00,,CLR,0.00,VWS V14.01,2013-08-09 01:12:00,
2013-08-08 20:13:00,93.6,63.4,29.81,South,181,6.0,12.0,37,0.00,,CLR,0.00,VWS V14.01,2013-08-09 01:13:00,
2013-08-08 20:14:00,93.6,63.4,29.81,SE,142,3.0,12.0,37,0.00,,CLR,0.00,VWS V14.01,2013-08-09 01:14:00,
2013-08-08 20:15:00,93.6,63.4,29.81,SE,146,9.0,12.0,37,0.00,,CLR,0.00,VWS V14.01,2013-08-09 01:15:00,
2013-08-08 20:16:00,93.6,63.4,29.81,SE,132,10.0,12.0,37,0.00,,CLR,0.00,VWS V14.01,2013-08-09 01:16:00,
2013-08-08 20:17:00,94.0,63.0,29.81,SE,142,0.0,13.0,36,0.00,,CLR,0.00,VWS V14.01,2013-08-09 01:17:00,
2013-08-08 20:18:00,93.4,63.3,29.81,SSE,163,1.0,13.0,37,0.00,,CLR,0.00,VWS V14.01,2013-08-09 01:18:00,
2013-08-08 20:19:00,93.2,63.1,29.81,South,187,4.0,13.0,37,0.00,,CLR,0.00,VWS V14.01,2013-08-09 01:19:00,
2013-08-08 20:20:00,93.2,63.1,29.81,SE,127,5.0,5.0,37,0.00,,CLR,0.00,VWS V14.01,2013-08-09 01:20:00,
2013-08-08 20:21:00,93.2,63.1,29.81,East,96,9.0,9.0,37,0.00,,CLR,0.00,VWS V14.01,2013-08-09 01:21:00,
2013-08-08 20:22:00,93.8,63.6,29.81,SSE,162,11.0,12.0,37,0.00,,CLR,0.00,VWS V14.01,2013-08-09 01:22:00,
2013-08-08 20:23:00,92.9,62.8,29.81,SE,137,3.0,13.0,37,0.00,,CLR,0.00,VWS V14.01,2013-08-09 01:23:00,
2013-08-08 20:24:00,92.9,62.8,29.81,SSE,166,4.0,13.0,37,0.00,,CLR,0.00,VWS V14.01,2013-08-09 01:24:00,
2013-08-08 20:25:00,92.9,62.8,29.81,SE,126,0.0,13.0,37,0.00,,CLR,0.00,VWS V14.01,2013-08-09 01:25:00,
2013-08-08 20:26:00,92.9,62.8,29.81,ESE,106,4.0,13.0,37,0.00,,CLR,0.00,VWS V14.01,2013-08-09 01:26:00,
2013-08-08 20:27:00,93.4,63.3,29.81,South,175,9.0,13.0,37,0.00,,CLR,0.00,VWS V14.01,2013-08-09 01:27:00,
2013-08-08 20:28:00,92.7,62.6,29.81,ESE,104,0.0,13.0,37,0.00,,CLR,0.00,VWS V14.01,2013-08-09 01:28:00,
2013-08-08 20:29:00,92.7,62.6,29.82,South,190,2.0,13.0,37,0.00,,CLR,0.00,VWS V14.01,2013-08-09 01:29:00,
2013-08-08 20:30:00,92.7,62.6,29.82,SE,127,4.0,4.0,37,0.00,,CLR,0.00,VWS V14.01,2013-08-09 01:30:00,
2013-08-08 20:31:00,92.7,63.4,29.82,SE,137,0.0,4.0,38,0.00,,CLR,0.00,VWS V14.01,2013-08-09 01:31:00,
2013-08-08 20:32:00,92.5,63.2,29.82,SSE,166,5.0,6.0,38,0.00,,CLR,0.00,VWS V14.01,2013-08-09 01:32:00,
2013-08-08 20:33:00,92.9,62.8,29.81,SE,130,0.0,13.0,37,0.00,,CLR,0.00,VWS V14.01,2013-08-09 01:33:00,
2013-08-08 20:34:00,92.5,63.2,29.82,SE,136,5.0,9.0,38,0.00,,CLR,0.00,VWS V14.01,2013-08-09 01:34:00,
2013-08-08 20:35:00,92.5,63.2,29.82,ESE,115,3.0,10.0,38,0.00,,CLR,0.00,VWS V14.01,2013-08-09 01:35:00,
2013-08-08 20:36:00,92.3,63.0,29.82,SE,138,2.0,10.0,38,0.00,,CLR,0.00,VWS V14.01,2013-08-09 01:36:00,
2013-08-08 20:37:00,92.3,63.0,29.82,SE,134,2.0,10.0,38,0.00,,CLR,0.00,VWS V14.01,2013-08-09 01:37:00,
2013-08-08 20:38:00,92.7,62.6,29.82,SSW,197,4.0,13.0,37,0.00,,CLR,0.00,VWS V14.01,2013-08-09 01:38:00,
2013-08-08 20:39:00,92.1,62.9,29.82,SSE,148,3.0,10.0,38,0.00,,CLR,0.00,VWS V14.01,2013-08-09 01:39:00,
2013-08-08 20:40:00,92.1,62.9,29.82,South,177,0.0,1.0,38,0.00,,CLR,0.00,VWS V14.01,2013-08-09 01:40:00,
2013-08-08 20:41:00,92.1,62.9,29.82,ESE,109,7.0,7.0,38,0.00,,CLR,0.00,VWS V14.01,2013-08-09 01:41:00,
2013-08-08 20:42:00,92.1,62.9,29.82,SSE,150,4.0,7.0,38,0.00,,CLR,0.00,VWS V14.01,2013-08-09 01:42:00,
2013-08-08 20:43:00,91.8,62.6,29.82,SSE,155,5.0,10.0,38,0.00,,CLR,0.00,VWS V14.01,2013-08-09 01:43:00,
2013-08-08 20:44:00,92.5,63.2,29.82,SE,136,3.0,9.0,38,0.00,,CLR,0.00,VWS V14.01,2013-08-09 01:44:00,
2013-08-08 20:45:00,91.8,62.6,29.83,South,179,3.0,11.0,38,0.00,,CLR,0.00,VWS V14.01,2013-08-09 01:45:00,
2013-08-08 20:46:00,91.6,62.4,29.83,NE,40,6.0,11.0,38,0.00,,CLR,0.00,VWS V14.01,2013-08-09 01:46:00,
2013-08-08 20:47:00,91.6,62.4,29.83,SSE,159,5.0,11.0,38,0.00,,CLR,0.00,VWS V14.01,2013-08-09 01:47:00,
2013-08-08 20:48:00,91.6,62.4,29.83,SSE,168,4.0,11.0,38,0.00,,CLR,0.00,VWS V14.01,2013-08-09 01:48:00,
2013-08-08 20:49:00,92.1,62.9,29.82,SE,144,0.0,10.0,38,0.00,,CLR,0.00,VWS V14.01,2013-08-09 01:49:00,
2013-08-08 20:50:00,91.4,62.2,29.83,South,175,13.0,13.0,38,0.00,,CLR,0.00,VWS V14.01,2013-08-09 01:50:00,
2013-08-08 20:51:00,91.4,63.0,29.83,ESE,121,5.0,13.0,39,0.00,,CLR,0.00,VWS V14.01,2013-08-09 01:51:00,
2013-08-08 20:52:00,91.4,63.0,29.83,SSE,163,0.0,13.0,39,0.00,,CLR,0.00,VWS V14.01,2013-08-09 01:52:00,
2013-08-08 20:53:00,91.2,62.8,29.83,ENE,73,3.0,14.0,39,0.00,,CLR,0.00,VWS V14.01,2013-08-09 01:53:00,
2013-08-08 20:54:00,91.2,62.8,29.83,SSE,157,8.0,14.0,39,0.00,,CLR,0.00,VWS V14.01,2013-08-09 01:54:00,
2013-08-08 20:55:00,91.8,62.6,29.83,South,178,5.0,11.0,38,0.00,,CLR,0.00,VWS V14.01,2013-08-09 01:55:00,
2013-08-08 20:56:00,91.0,63.3,29.83,SE,127,3.0,14.0,40,0.00,,CLR,0.00,VWS V14.01,2013-08-09 01:56:00,
2013-08-08 20:57:00,91.0,63.3,29.83,SE,124,3.0,14.0,40,0.00,,CLR,0.00,VWS V14.01,2013-08-09 01:57:00,
2013-08-08 20:58:00,91.0,63.3,29.83,SE,124,3.0,14.0,40,0.00,,CLR,0.00,VWS V14.01,2013-08-09 01:58:00,
2013-08-08 20:59:00,91.0,63.3,29.84,SE,124,3.0,14.0,40,0.00,,CLR,0.00,VWS V14.01,2013-08-09 01:59:00,
2013-08-08 21:00:00,91.4,62.2,29.83,SE,146,1.0,13.0,38,0.00,,CLR,0.00,VWS V14.01,2013-08-09 02:00:00,
2013-08-08 21:01:00,91.0,63.3,29.84,SE,124,3.0,3.0,40,0.00,,CLR,0.00,VWS V14.01,2013-08-09 02:01:00,
2013-08-08 21:02:00,90.7,63.1,29.84,ENE,59,2.0,3.0,40,0.00,,CLR,0.00,VWS V14.01,2013-08-09 02:02:00,
2013-08-08 21:03:00,90.5,63.6,29.84,South,176,5.0,10.0,41,0.00,,CLR,0.00,VWS V14.01,2013-08-09 02:03:00,
2013-08-08 21:04:00,90.5,63.6,29.84,SSE,161,1.0,10.0,41,0.00,,CLR,0.00,VWS V14.01,2013-08-09 02:04:00,
2013-08-08 21:05:00,91.0,63.3,29.83,SSE,152,1.0,14.0,40,0.00,,CLR,0.00,VWS V14.01,2013-08-09 02:05:00,
2013-08-08 21:06:00,90.5,63.6,29.84,SE,144,4.0,10.0,41,0.00,,CLR,0.00,VWS V14.01,2013-08-09 02:06:00,
2013-08-08 21:07:00,90.3,63.4,29.84,SSE,158,7.0,10.0,41,0.00,,CLR,0.00,VWS V14.01,2013-08-09 02:07:00,
2013-08-08 21:08:00,90.3,64.1,29.84,SSE,150,4.0,10.0,42,0.00,,CLR,0.00,VWS V14.01,2013-08-09 02:08:00,
2013-08-08 21:09:00,90.3,64.1,29.84,South,175,1.0,10.0,42,0.00,,CLR,0.00,VWS V14.01,2013-08-09 02:09:00,
2013-08-08 21:10:00,91.0,63.3,29.84,SE,124,3.0,3.0,40,0.00,,CLR,0.00,VWS V14.01,2013-08-09 02:10:00,
2013-08-08 21:11:00,90.1,63.9,29.84,SSE,150,2.0,12.0,42,0.00,,CLR,0.00,VWS V14.01,2013-08-09 02:11:00,
2013-08-08 21:12:00,90.1,64.6,29.84,South,172,3.0,12.0,43,0.00,,CLR,0.00,VWS V14.01,2013-08-09 02:12:00,
2013-08-08 21:13:00,89.9,65.1,29.84,SE,127,6.0,12.0,44,0.00,,CLR,0.00,VWS V14.01,2013-08-09 02:13:00,
2013-08-08 21:14:00,89.9,65.1,29.85,SE,139,0.0,12.0,44,0.00,,CLR,0.00,VWS V14.01,2013-08-09 02:14:00,
2013-08-08 21:15:00,90.5,63.6,29.84,SSE,165,5.0,10.0,41,0.00,,CLR,0.00,VWS V14.01,2013-08-09 02:15:00,
2013-08-08 21:16:00,89.7,64.9,29.85,SE,146,11.0,15.0,44,0.00,,CLR,0.00,VWS V14.01,2013-08-09 02:16:00,
2013-08-08 21:17:00,89.7,65.6,29.85,SSE,150,2.0,15.0,45,0.00,,CLR,0.00,VWS V14.01,2013-08-09 02:17:00,
2013-08-08 21:18:00,89.5,66.0,29.85,SE,142,5.0,15.0,46,0.00,,CLR,0.00,VWS V14.01,2013-08-09 02:18:00,
2013-08-08 21:19:00,89.5,66.0,29.85,ESE,121,7.0,15.0,46,0.00,,CLR,0.00,VWS V14.01,2013-08-09 02:19:00,
2013-08-08 21:20:00,90.1,63.9,29.84,South,176,12.0,12.0,42,0.00,,CLR,0.00,VWS V14.01,2013-08-09 02:20:00,
2013-08-08 21:21:00,89.3,66.4,29.85,SSE,153,10.0,13.0,47,0.00,,CLR,0.00,VWS V14.01,2013-08-09 02:21:00,
2013-08-08 21:22:00,89.3,66.4,29.85,SSE,155,7.0,13.0,47,0.00,,CLR,0.00,VWS V14.01,2013-08-09 02:22:00,
2013-08-08 21:23:00,89.0,66.2,29.85,South,175,3.0,13.0,47,0.00,,CLR,0.00,VWS V14.01,2013-08-09 02:23:00,
2013-08-08 21:24:00,89.0,66.8,29.85,ESE,119,1.0,13.0,48,0.00,,CLR,0.00,VWS V14.01,2013-08-09 02:24:00,
2013-08-08 21:25:00,89.0,66.8,29.85,SE,141,3.0,13.0,48,0.00,,CLR,0.00,VWS V14.01,2013-08-09 02:25:00,
2013-08-08 21:26:00,89.7,65.6,29.85,South,173,5.0,15.0,45,0.00,,CLR,0.00,VWS V14.01,2013-08-09 02:26:00,
2013-08-08 21:27:00,88.8,66.6,29.85,SE,136,7.0,13.0,48,0.00,,CLR,0.00,VWS V14.01,2013-08-09 02:27:00,
2013-08-08 21:28:00,88.8,66.6,29.85,South,180,5.0,13.0,48,0.00,,CLR,0.00,VWS V14.01,2013-08-09 02:28:00,
2013-08-08 21:29:00,88.6,67.0,29.85,ESE,105,3.0,13.0,49,0.00,,CLR,0.00,VWS V14.01,2013-08-09 02:29:00,
2013-08-08 21:30:00,88.6,67.0,29.85,South,169,6.0,11.0,49,0.00,,CLR,0.00,VWS V14.01,2013-08-09 02:30:00,
2013-08-08 21:31:00,89.3,66.4,29.85,SSE,164,4.0,13.0,47,0.00,,CLR,0.00,VWS V14.01,2013-08-09 02:31:00,
2013-08-08 21:32:00,88.4,66.8,29.85,SSW,202,6.0,11.0,49,0.00,,CLR,0.00,VWS V14.01,2013-08-09 02:32:00,
2013-08-08 21:33:00,88.4,67.4,29.85,South,185,1.0,11.0,50,0.00,,CLR,0.00,VWS V14.01,2013-08-09 02:33:00,
2013-08-08 21:34:00,88.4,67.4,29.85,SSW,200,5.0,11.0,50,0.00,,CLR,0.00,VWS V14.01,2013-08-09 02:34:00,
2013-08-08 21:35:00,88.2,67.2,29.85,South,177,2.0,11.0,50,0.00,,CLR,0.00,VWS V14.01,2013-08-09 02:35:00,
2013-08-08 21:36:00,88.8,66.6,29.85,SSE,167,11.0,13.0,48,0.00,,CLR,0.00,VWS V14.01,2013-08-09 02:36:00,
2013-08-08 21:37:00,88.2,67.8,29.85,SSW,211,0.0,11.0,51,0.00,,CLR,0.00,VWS V14.01,2013-08-09 02:37:00,
2013-08-08 21:38:00,88.2,67.8,29.85,South,180,6.0,12.0,51,0.00,,CLR,0.00,VWS V14.01,2013-08-09 02:38:00,
2013-08-08 21:39:00,88.0,68.2,29.85,SSE,153,4.0,12.0,52,0.00,,CLR,0.00,VWS V14.01,2013-08-09 02:39:00,
2013-08-08 21:40:00,88.0,68.2,29.85,SSE,168,9.0,9.0,52,0.00,,CLR,0.00,VWS V14.01,2013-08-09 02:40:00,
2013-08-08 21:41:00,88.4,66.8,29.85,ESE,115,10.0,11.0,49,0.00,,CLR,0.00,VWS V14.01,2013-08-09 02:41:00,
2013-08-08 21:42:00,88.0,68.2,29.85,SSE,150,8.0,10.0,52,0.00,,CLR,0.00,VWS V14.01,2013-08-09 02:42:00,
2013-08-08 21:43:00,87.8,68.0,29.85,SE,127,4.0,10.0,52,0.00,,CLR,0.00,VWS V14.01,2013-08-09 02:43:00,
2013-08-08 21:44:00,87.8,68.6,29.86,SSE,152,4.0,11.0,53,0.00,,CLR,0.00,VWS V14.01,2013-08-09 02:44:00,
2013-08-08 21:45:00,87.8,68.6,29.86,South,182,6.0,12.0,53,0.00,,CLR,0.00,VWS V14.01,2013-08-09 02:45:00,
2013-08-08 21:46:00,88.2,67.8,29.85,SSW,211,0.0,11.0,51,0.00,,CLR,0.00,VWS V14.01,2013-08-09 02:46:00,
2013-08-08 21:47:00,87.6,68.9,29.86,SSW,192,6.0,15.0,54,0.00,,CLR,0.00,VWS V14.01,2013-08-09 02:47:00,
2013-08-08 21:48:00,87.6,68.9,29.86,SE,126,3.0,15.0,54,0.00,,CLR,0.00,VWS V14.01,2013-08-09 02:48:00,
2013-08-08 21:49:00,87.4,68.7,29.86,South,171,4.0,15.0,54,0.00,,CLR,0.00,VWS V14.01,2013-08-09 02:49:00,
2013-08-08 21:50:00,87.4,68.7,29.86,SE,133,3.0,6.0,54,0.00,,CLR,0.00,VWS V14.01,2013-08-09 02:50:00,
2013-08-08 21:51:00,88.0,68.2,29.85,SSE,164,7.0,10.0,52,0.00,,CLR,0.00,VWS V14.01,2013-08-09 02:51:00,
2013-08-08 21:52:00,87.2,69.1,29.86,South,173,4.0,11.0,55,0.00,,CLR,0.00,VWS V14.01,2013-08-09 02:52:00,
2013-08-08 21:53:00,87.2,69.1,29.86,East,101,4.0,11.0,55,0.00,,CLR,0.00,VWS V14.01,2013-08-09 02:53:00,
2013-08-08 21:54:00,87.2,69.1,29.86,South,187,7.0,11.0,55,0.00,,CLR,0.00,VWS V14.01,2013-08-09 02:54:00,
2013-08-08 21:55:00,87.2,69.1,29.86,ESE,123,1.0,11.0,55,0.00,,CLR,0.00,VWS V14.01,2013-08-09 02:55:00,
2013-08-08 21:56:00,87.2,69.1,29.86,East,88,0.0,11.0,55,0.00,,CLR,0.00,VWS V14.01,2013-08-09 02:56:00,
2013-08-08 21:57:00,87.6,68.9,29.86,SSE,162,1.0,15.0,54,0.00,,CLR,0.00,VWS V14.01,2013-08-09 02:57:00,
2013-08-08 21:58:00,87.0,68.9,29.86,ESE,121,0.0,11.0,55,0.00,,CLR,0.00,VWS V14.01,2013-08-09 02:58:00,
2013-08-08 21:59:00,87.0,68.9,29.87,SSE,167,6.0,11.0,55,0.00,,CLR,0.00,VWS V14.01,2013-08-09 02:59:00,
2013-08-08 22:00:00,87.0,68.9,29.87,SSE,156,4.0,5.0,55,0.00,,CLR,0.00,VWS V14.01,2013-08-09 03:00:00,
2013-08-08 22:01:00,87.0,69.4,29.87,SE,136,0.0,5.0,56,0.00,,CLR,0.00,VWS V14.01,2013-08-09 03:01:00,
2013-08-08 22:02:00,86.7,69.1,29.87,SE,140,3.0,9.0,56,0.00,,CLR,0.00,VWS V14.01,2013-08-09 03:02:00,
2013-08-08 22:03:00,87.2,69.1,29.86,East,101,4.0,11.0,55,0.00,,CLR,0.00,VWS V14.01,2013-08-09 03:03:00,
2013-08-08 22:04:00,86.7,69.1,29.87,ESE,122,2.0,9.0,56,0.00,,CLR,0.00,VWS V14.01,2013-08-09 03:04:00,
2013-08-08 22:05:00,86.5,69.0,29.87,SSE,151,2.0,9.0,56,0.00,,CLR,0.00,VWS V14.01,2013-08-09 03:05:00,
2013-08-08 22:06:00,86.5,69.5,29.87,SSE,159,5.0,9.0,57,0.00,,CLR,0.00,VWS V14.01,2013-08-09 03:06:00,
2013-08-08 22:07:00,87.0,68.9,29.86,ESE,121,0.0,11.0,55,0.00,,CLR,0.00,VWS V14.01,2013-08-09 03:07:00,
2013-08-08 22:08:00,86.5,69.5,29.87,ESE,104,4.0,9.0,57,0.00,,CLR,0.00,VWS V14.01,2013-08-09 03:08:00,
2013-08-08 22:09:00,86.5,69.5,29.87,ESE,122,7.0,9.0,57,0.00,,CLR,0.00,VWS V14.01,2013-08-09 03:09:00,
2013-08-08 22:10:00,86.3,69.3,29.87,ESE,117,1.0,7.0,57,0.00,,CLR,0.00,VWS V14.01,2013-08-09 03:10:00,
2013-08-08 22:11:00,86.3,69.8,29.87,SSE,163,0.0,7.0,58,0.00,,CLR,0.00,VWS V14.01,2013-08-09 03:11:00,
2013-08-08 22:12:00,86.3,69.8,29.87,SSE,149,3.0,7.0,58,0.00,,CLR,0.00,VWS V14.01,2013-08-09 03:12:00,
2013-08-08 22:13:00,86.7,69.1,29.87,SE,124,6.0,9.0,56,0.00,,CLR,0.00,VWS V14.01,2013-08-09 03:13:00,
2013-08-08 22:14:00,86.1,70.1,29.88,ESE,111,0.0,15.0,59,0.00,,CLR,0.00,VWS V14.01,2013-08-09 03:14:00,
2013-08-08 22:15:00,86.1,70.1,29.88,East,94,1.0,15.0,59,0.00,,CLR,0.00,VWS V14.01,2013-08-09 03:15:00,
2013-08-08 22:16:00,85.9,70.4,29.88,South,178,5.0,15.0,60,0.00,,CLR,0.00,VWS V14.01,2013-08-09 03:16:00,
2013-08-08 22:17:00,85.9,70.4,29.88,South,190,5.0,15.0,60,0.00,,CLR,0.00,VWS V14.01,2013-08-09 03:17:00,
2013-08-08 22:18:00,86.5,69.5,29.87,ESE,108,2.0,9.0,57,0.00,,CLR,0.00,VWS V14.01,2013-08-09 03:18:00,
2013-08-08 22:19:00,85.7,70.2,29.88,ESE,120,3.0,15.0,60,0.00,,CLR,0.00,VWS V14.01,2013-08-09 03:19:00,
2013-08-08 22:20:00,85.7,70.7,29.88,SE,146,4.0,5.0,61,0.00,,CLR,0.00,VWS V14.01,2013-08-09 03:20:00,
2013-08-08 22:21:00,85.7,70.7,29.88,SSE,150,2.0,14.0,61,0.00,,CLR,0.00,VWS V14.01,2013-08-09 03:21:00,
2013-08-08 22:22:00,85.5,70.5,29.88,ESE,116,3.0,14.0,61,0.00,,CLR,0.00,VWS V14.01,2013-08-09 03:22:00,
2013-08-08 22:23:00,86.1,70.1,29.88,SE,140,3.0,15.0,59,0.00,,CLR,0.00,VWS V14.01,2013-08-09 03:23:00,
2013-08-08 22:24:00,85.5,70.5,29.88,South,175,3.0,14.0,61,0.00,,CLR,0.00,VWS V14.01,2013-08-09 03:24:00,
2013-08-08 22:25:00,85.5,70.5,29.88,ESE,110,4.0,14.0,61,0.00,,CLR,0.00,VWS V14.01,2013-08-09 03:25:00,
2013-08-08 22:26:00,85.5,70.5,29.88,SE,137,0.0,14.0,61,0.00,,CLR,0.00,VWS V14.01,2013-08-09 03:26:00,
2013-08-08 22:27:00,85.3,70.3,29.88,SSE,148,0.0,14.0,61,0.00,,CLR,0.00,VWS V14.01,2013-08-09 03:27:00,
2013-08-08 22:28:00,85.7,70.2,29.88,East,81,11.0,15.0,60,0.00,,CLR,0.00,VWS V14.01,2013-08-09 03:28:00,
2013-08-08 22:29:00,85.3,70.8,29.88,ESE,122,1.0,14.0,62,0.00,,CLR,0.00,VWS V14.01,2013-08-09 03:29:00,
2013-08-08 22:30:00,85.3,70.8,29.88,ESE,114,5.0,7.0,62,0.00,,CLR,0.00,VWS V14.01,2013-08-09 03:30:00,
2013-08-08 22:31:00,85.1,70.6,29.88,NE,48,4.0,7.0,62,0.00,,CLR,0.00,VWS V14.01,2013-08-09 03:31:00,
2013-08-08 22:32:00,85.1,70.6,29.88,SE,139,0.0,7.0,62,0.00,,CLR,0.00,VWS V14.01,2013-08-09 03:32:00,
2013-08-08 22:33:00,85.5,70.5,29.88,SSE,167,0.0,14.0,61,0.00,,CLR,0.00,VWS V14.01,2013-08-09 03:33:00,
2013-08-08 22:34:00,84.9,70.9,29.88,ENE,71,0.0,7.0,63,0.00,,CLR,0.00,VWS V14.01,2013-08-09 03:34:00,
2013-08-08 22:35:00,84.9,70.9,29.88,ESE,119,9.0,9.0,63,0.00,,CLR,0.00,VWS V14.01,2013-08-09 03:35:00,
2013-08-08 22:36:00,84.9,70.9,29.88,South,180,3.0,9.0,63,0.00,,CLR,0.00,VWS V14.01,2013-08-09 03:36:00,
2013-08-08 22:37:00,84.9,71.4,29.88,SE,129,1.0,9.0,64,0.00,,CLR,0.00,VWS V14.01,2013-08-09 03:37:00,
2013-08-08 22:38:00,85.3,70.8,29.88,ESE,121,3.0,14.0,62,0.00,,CLR,0.00,VWS V14.01,2013-08-09 03:38:00,
2013-08-08 22:39:00,84.7,71.2,29.88,ESE,122,3.0,10.0,64,0.00,,CLR,0.00,VWS V14.01,2013-08-09 03:39:00,
2013-08-08 22:40:00,84.7,71.2,29.88,SSE,156,6.0,6.0,64,0.00,,CLR,0.00,VWS V14.01,2013-08-09 03:40:00,
2013-08-08 22:41:00,84.7,71.6,29.88,SE,129,9.0,9.0,65,0.00,,CLR,0.00,VWS V14.01,2013-08-09 03:41:00,
2013-08-08 22:42:00,84.5,71.4,29.88,SE,130,5.0,9.0,65,0.00,,CLR,0.00,VWS V14.01,2013-08-09 03:42:00,
2013-08-08 22:43:00,84.9,70.9,29.88,SE,142,0.0,7.0,63,0.00,,CLR,0.00,VWS V14.01,2013-08-09 03:43:00,
2013-08-08 22:44:00,84.3,71.3,29.89,SE,124,3.0,12.0,65,0.00,,CLR,0.00,VWS V14.01,2013-08-09 03:44:00,
2013-08-08 22:45:00,84.3,71.3,29.89,ESE,103,4.0,12.0,65,0.00,,CLR,0.00,VWS V14.01,2013-08-09 03:45:00,
2013-08-08 22:46:00,84.3,71.7,29.89,SE,126,4.0,12.0,66,0.00,,CLR,0.00,VWS V14.01,2013-08-09 03:46:00,
2013-08-08 22:47:00,84.1,71.5,29.89,ESE,110,7.0,12.0,66,0.00,,CLR,0.00,VWS V14.01,2013-08-09 03:47:00,
2013-08-08 22:48:00,84.1,71.5,29.89,East,98,4.0,12.0,66,0.00,,CLR,0.00,VWS V14.01,2013-08-09 03:48:00,
2013-08-08 22:49:00,84.7,71.2,29.88,ESE,122,3.0,10.0,64,0.00,,CLR,0.00,VWS V14.01,2013-08-09 03:49:00,
2013-08-08 22:50:00,84.1,71.5,29.89,SSE,164,1.0,2.0,66,0.00,,CLR,0.00,VWS V14.01,2013-08-09 03:50:00,
2013-08-08 22:51:00,84.1,71.5,29.89,ESE,116,0.0,6.0,66,0.00,,CLR,0.00,VWS V14.01,2013-08-09 03:51:00,
2013-08-08 22:52:00,84.0,71.4,29.89,ESE,115,7.0,10.0,66,0.00,,CLR,0.00,VWS V14.01,2013-08-09 03:52:00,
2013-08-08 22:53:00,84.0,71.4,29.89,SE,127,0.0,10.0,66,0.00,,CLR,0.00,VWS V14.01,2013-08-09 03:53:00,
2013-08-08 22:54:00,84.3,71.3,29.89,East,84,0.0,12.0,65,0.00,,CLR,0.00,VWS V14.01,2013-08-09 03:54:00,
2013-08-08 22:55:00,84.0,71.4,29.89,SE,138,0.0,10.0,66,0.00,,CLR,0.00,VWS V14.01,2013-08-09 03:55:00,
2013-08-08 22:56:00,84.0,71.9,29.89,SE,129,0.0,10.0,67,0.00,,CLR,0.00,VWS V14.01,2013-08-09 03:56:00,
2013-08-08 22:57:00,83.8,71.7,29.89,SSE,158,2.0,10.0,67,0.00,,CLR,0.00,VWS V14.01,2013-08-09 03:57:00,
2013-08-08 22:58:00,83.8,71.7,29.89,SSE,153,4.0,10.0,67,0.00,,CLR,0.00,VWS V14.01,2013-08-09 03:58:00,
2013-08-08 22:59:00,84.1,71.5,29.89,SSE,148,2.0,12.0,66,0.00,,CLR,0.00,VWS V14.01,2013-08-09 03:59:00,
2013-08-08 23:00:00,83.8,71.7,29.90,SSE,163,4.0,4.0,67,0.00,,CLR,0.00,VWS V14.01,2013-08-09 04:00:00,
2013-08-08 23:01:00,84.0,71.4,29.89,ESE,116,0.0,6.0,66,0.00,,CLR,0.00,VWS V14.01,2013-08-09 04:01:00,
2013-08-08 23:02:00,83.6,71.5,29.90,SSE,156,0.0,9.0,67,0.00,,CLR,0.00,VWS V14.01,2013-08-09 04:02:00,
2013-08-08 23:03:00,83.6,71.5,29.90,SE,134,0.0,9.0,67,0.00,,CLR,0.00,VWS V14.01,2013-08-09 04:03:00,
2013-08-08 23:04:00,83.6,71.9,29.90,South,173,0.0,9.0,68,0.00,,CLR,0.00,VWS V14.01,2013-08-09 04:04:00,
2013-08-08 23:05:00,83.6,71.9,29.90,SSE,165,3.0,9.0,68,0.00,,CLR,0.00,VWS V14.01,2013-08-09 04:05:00,
2013-08-08 23:06:00,83.8,71.7,29.89,SSE,165,0.0,10.0,67,0.00,,CLR,0.00,VWS V14.01,2013-08-09 04:06:00,
2013-08-08 23:07:00,83.4,71.7,29.90,South,181,6.0,9.0,68,0.00,,CLR,0.00,VWS V14.01,2013-08-09 04:07:00,
2013-08-08 23:08:00,83.4,71.7,29.90,ESE,113,0.0,9.0,68,0.00,,CLR,0.00,VWS V14.01,2013-08-09 04:08:00,
2013-08-08 23:09:00,83.4,71.7,29.90,SE,132,0.0,11.0,68,0.00,,CLR,0.00,VWS V14.01,2013-08-09 04:09:00,
2013-08-08 23:10:00,83.4,71.7,29.90,SSE,157,7.0,7.0,68,0.00,,CLR,0.00,VWS V14.01,2013-08-09 04:10:00,
2013-08-08 23:11:00,83.6,71.5,29.90,SSE,159,0.0,9.0,67,0.00,,CLR,0.00,VWS V14.01,2013-08-09 04:11:00,
2013-08-08 23:12:00,83.2,72.0,29.90,SSE,159,1.0,10.0,69,0.00,,CLR,0.00,VWS V14.01,2013-08-09 04:12:00,
2013-08-08 23:13:00,83.2,72.0,29.90,SE,146,1.0,10.0,69,0.00,,CLR,0.00,VWS V14.01,2013-08-09 04:13:00,
2013-08-08 23:14:00,83.2,72.0,29.90,SE,144,0.0,10.0,69,0.00,,CLR,0.00,VWS V14.01,2013-08-09 04:14:00,
2013-08-08 23:15:00,83.2,72.0,29.90,ESE,120,7.0,10.0,69,0.00,,CLR,0.00,VWS V14.01,2013-08-09 04:15:00,
2013-08-08 23:16:00,83.4,71.7,29.90,SE,142,0.0,9.0,68,0.00,,CLR,0.00,VWS V14.01,2013-08-09 04:16:00,
2013-08-08 23:17:00,83.0,71.8,29.90,SE,141,3.0,10.0,69,0.00,,CLR,0.00,VWS V14.01,2013-08-09 04:17:00,
2013-08-08 23:18:00,83.0,71.8,29.90,South,182,4.0,10.0,69,0.00,,CLR,0.00,VWS V14.01,2013-08-09 04:18:00,
2013-08-08 23:19:00,83.0,71.8,29.90,SSE,168,6.0,12.0,69,0.00,,CLR,0.00,VWS V14.01,2013-08-09 04:19:00,
2013-08-08 23:20:00,82.8,71.6,29.90,South,182,1.0,5.0,69,0.00,,CLR,0.00,VWS V14.01,2013-08-09 04:20:00,
2013-08-08 23:21:00,83.2,72.0,29.90,SSE,168,0.0,10.0,69,0.00,,CLR,0.00,VWS V14.01,2013-08-09 04:21:00,
2013-08-08 23:22:00,82.8,72.0,29.90,SSE,161,0.0,10.0,70,0.00,,CLR,0.00,VWS V14.01,2013-08-09 04:22:00,
2013-08-08 23:23:00,82.6,71.8,29.90,South,186,4.0,10.0,70,0.00,,CLR,0.00,VWS V14.01,2013-08-09 04:23:00,
2013-08-08 23:24:00,82.6,71.8,29.90,SSW,194,12.0,12.0,70,0.00,,CLR,0.00,VWS V14.01,2013-08-09 04:24:00,
2013-08-08 23:25:00,82.6,71.8,29.90,South,175,7.0,12.0,70,0.00,,CLR,0.00,VWS V14.01,2013-08-09 04:25:00,
2013-08-08 23:26:00,83.0,71.8,29.90,South,178,2.0,10.0,69,0.00,,CLR,0.00,VWS V14.01,2013-08-09 04:26:00,
2013-08-08 23:27:00,82.4,71.6,29.90,South,184,4.0,12.0,70,0.00,,CLR,0.00,VWS V14.01,2013-08-09 04:27:00,
2013-08-08 23:28:00,82.4,71.6,29.90,SSE,165,3.0,12.0,70,0.00,,CLR,0.00,VWS V14.01,2013-08-09 04:28:00,
2013-08-08 23:29:00,82.4,71.6,29.90,South,180,0.0,12.0,70,0.00,,CLR,0.00,VWS V14.01,2013-08-09 04:29:00,
2013-08-08 23:30:00,82.4,71.6,29.90,SE,142,5.0,9.0,70,0.00,,CLR,0.00,VWS V14.01,2013-08-09 04:30:00,
2013-08-08 23:31:00,82.8,72.0,29.90,SSE,162,10.0,10.0,70,0.00,,CLR,0.00,VWS V14.01,2013-08-09 04:31:00,
2013-08-08 23:32:00,82.2,71.9,29.90,ESE,117,5.0,9.0,71,0.00,,CLR,0.00,VWS V14.01,2013-08-09 04:32:00,
2013-08-08 23:33:00,82.2,71.9,29.90,SE,145,1.0,13.0,71,0.00,,CLR,0.00,VWS V14.01,2013-08-09 04:33:00,
2013-08-08 23:34:00,82.0,71.7,29.90,SE,125,0.0,13.0,71,0.00,,CLR,0.00,VWS V14.01,2013-08-09 04:34:00,
2013-08-08 23:35:00,82.0,71.7,29.90,SE,143,3.0,13.0,71,0.00,,CLR,0.00,VWS V14.01,2013-08-09 04:35:00,
2013-08-08 23:36:00,82.4,71.6,29.90,ESE,115,5.0,12.0,70,0.00,,CLR,0.00,VWS V14.01,2013-08-09 04:36:00,
2013-08-08 23:37:00,82.0,71.7,29.90,SSE,162,2.0,13.0,71,0.00,,CLR,0.00,VWS V14.01,2013-08-09 04:37:00,
2013-08-08 23:38:00,82.0,71.7,29.90,SSE,147,10.0,13.0,71,0.00,,CLR,0.00,VWS V14.01,2013-08-09 04:38:00,
2013-08-08 23:39:00,81.8,71.9,29.90,South,177,0.0,13.0,72,0.00,,CLR,0.00,VWS V14.01,2013-08-09 04:39:00,
2013-08-08 23:40:00,81.8,71.9,29.90,SE,146,3.0,7.0,72,0.00,,CLR,0.00,VWS V14.01,2013-08-09 04:40:00,
2013-08-08 23:41:00,82.2,71.9,29.90,South,186,7.0,9.0,71,0.00,,CLR,0.00,VWS V14.01,2013-08-09 04:41:00,
2013-08-08 23:42:00,81.6,71.7,29.90,ESE,123,0.0,9.0,72,0.00,,CLR,0.00,VWS V14.01,2013-08-09 04:42:00,
2013-08-08 23:43:00,81.6,71.7,29.90,SSE,158,0.0,9.0,72,0.00,,CLR,0.00,VWS V14.01,2013-08-09 04:43:00,
2013-08-08 23:44:00,81.6,71.7,29.91,SE,138,5.0,9.0,72,0.00,,CLR,0.00,VWS V14.01,2013-08-09 04:44:00,
2013-08-08 23:45:00,81.6,72.1,29.91,ESE,115,1.0,9.0,73,0.00,,CLR,0.00,VWS V14.01,2013-08-09 04:45:00,
2013-08-08 23:46:00,82.0,71.7,29.90,SSE,149,10.0,13.0,71,0.00,,CLR,0.00,VWS V14.01,2013-08-09 04:46:00,
2013-08-08 23:47:00,81.6,72.1,29.91,ESE,115,5.0,11.0,73,0.00,,CLR,0.00,VWS V14.01,2013-08-09 04:47:00,
2013-08-08 23:48:00,81.4,71.9,29.91,SSE,160,4.0,11.0,73,0.00,,CLR,0.00,VWS V14.01,2013-08-09 04:48:00,
2013-08-08 23:49:00,81.4,71.9,29.91,SSE,155,2.0,11.0,73,0.00,,CLR,0.00,VWS V14.01,2013-08-09 04:49:00,
2013-08-08 23:50:00,81.4,72.3,29.91,South,178,1.0,3.0,74,0.00,,CLR,0.00,VWS V14.01,2013-08-09 04:50:00,
2013-08-08 23:51:00,81.8,71.9,29.90,SE,140,0.0,9.0,72,0.00,,CLR,0.00,VWS V14.01,2013-08-09 04:51:00,
2013-08-08 23:52:00,81.4,72.3,29.91,ESE,107,2.0,9.0,74,0.00,,CLR,0.00,VWS V14.01,2013-08-09 04:52:00,
2013-08-08 23:53:00,81.4,72.3,29.91,SSE,167,5.0,9.0,74,0.00,,CLR,0.00,VWS V14.01,2013-08-09 04:53:00,
2013-08-08 23:54:00,81.2,72.1,29.91,South,171,0.0,9.0,74,0.00,,CLR,0.00,VWS V14.01,2013-08-09 04:54:00,
2013-08-08 23:55:00,81.2,72.1,29.91,South,171,0.0,9.0,74,0.00,,CLR,0.00,VWS V14.01,2013-08-09 04:55:00,
2013-08-08 23:56:00,81.6,72.1,29.91,ESE,118,5.0,11.0,73,0.00,,CLR,0.00,VWS V14.01,2013-08-09 04:56:00,
2013-08-08 23:57:00,81.2,72.1,29.91,SSE,149,0.0,9.0,74,0.00,,CLR,0.00,VWS V14.01,2013-08-09 04:57:00,
2013-08-08 23:58:00,81.2,72.1,29.91,South,174,0.0,9.0,74,0.00,,CLR,0.00,VWS V14.01,2013-08-09 04:58:00,
2013-08-08 23:59:00,81.2,72.1,29.91,SSE,161,0.0,9.0,74,0.00,,CLR,0.00,VWS V14.01,2013-08-09 04:59:00,